[[{"header":{"parameterUnit":"m.s-1","parameterCategory":1,"la1":30.6,"la2":29.2853,"lo1":-89.7004,"lo2":-87.6739,"dy":0.0162,"dx":0.0183,"nx":112,"ny":82,"refTime":"2024-05-15T06:00:00:Z","depth":0,"parameterNumber":2,"parameterNumberName":"U-component_of_WINDS"},"data":[0.0,0.0,0.0,0.0,0.0,0.0,0.0,0.0,0.0,0.0,0.0,0.0,0.0,0.0,0.0,0.0,0.0,0.0,0.0,0.0,0.0,0.0,0.0,0.0,0.0,0.0,0.0,0.0,0.0,0.0,0.0,0.0,0.0,0.0,0.0,0.0,0.0,0.0,0.0,0.0,0.0,0.0,0.0,0.0,0.0,0.0,0.0,0.0,0.0,0.0,0.0,0.0,0.0,0.0,0.0,0.0,0.0,0.0,0.0,0.0,0.0,0.0,0.0,0.0,0.0,0.0,0.0,0.0,0.0,0.0,0.0,0.0,0.0,0.0,0.0,0.0,0.0,0.0,0.0,0.0,0.0,0.0,0.0,0.0,0.0,0.0,0.0,0.0,0.0,0.0,-3.4576,-3.4576,-3.5207,-3.5316,-3.4688,-3.4528,-3.3987,-3.2841,0.0,0.0,0.0,0.0,0.0,0.0,0.0,0.0,0.0,0.0,0.0,0.0,0.0,0.0,0.0,0.0,0.0,0.0,0.0,0.0,0.0,0.0,0.0,0.0,0.0,0.0,0.0,0.0,0.0,0.0,0.0,0.0,0.0,0.0,0.0,0.0,0.0,0.0,0.0,0.0,0.0,0.0,0.0,0.0,0.0,0.0,0.0,0.0,0.0,0.0,0.0,0.0,0.0,0.0,0.0,0.0,0.0,0.0,0.0,0.0,0.0,0.0,0.0,0.0,0.0,0.0,0.0,0.0,0.0,0.0,0.0,0.0,0.0,0.0,0.0,0.0,0.0,0.0,0.0,0.0,0.0,0.0,0.0,0.0,0.0,0.0,0.0,0.0,0.0,0.0,0.0,0.0,0.0,0.0,0.0,0.0,0.0,0.0,0.0,0.0,0.0,0.0,0.0,0.0,-3.4576,-3.4576,-3.5207,-3.5316,-3.4688,-3.4087,-3.3684,-3.3443,0.0,0.0,0.0,0.0,0.0,0.0,0.0,0.0,0.0,0.0,0.0,0.0,0.0,0.0,0.0,0.0,0.0,0.0,0.0,0.0,0.0,0.0,0.0,0.0,0.0,0.0,0.0,0.0,0.0,0.0,0.0,0.0,0.0,0.0,0.0,0.0,0.0,0.0,0.0,0.0,0.0,0.0,0.0,0.0,0.0,0.0,0.0,0.0,0.0,0.0,0.0,0.0,0.0,0.0,0.0,0.0,0.0,0.0,0.0,0.0,0.0,0.0,0.0,0.0,0.0,0.0,0.0,0.0,0.0,0.0,0.0,0.0,0.0,0.0,0.0,0.0,0.0,0.0,0.0,0.0,0.0,0.0,0.0,0.0,0.0,0.0,0.0,0.0,0.0,0.0,0.0,0.0,0.0,0.0,0.0,0.0,0.0,0.0,0.0,0.0,0.0,0.0,0.0,-3.4496,-3.4186,-3.4576,-3.4544,-3.4252,-3.3582,-3.3235,-3.2879,-3.2516,-3.216,0.0,0.0,0.0,0.0,0.0,0.0,0.0,0.0,0.0,0.0,0.0,0.0,0.0,0.0,0.0,0.0,0.0,0.0,0.0,0.0,0.0,0.0,0.0,0.0,0.0,0.0,0.0,0.0,0.0,0.0,0.0,0.0,0.0,0.0,0.0,0.0,0.0,0.0,0.0,0.0,0.0,0.0,0.0,0.0,0.0,0.0,0.0,0.0,0.0,0.0,0.0,0.0,0.0,0.0,0.0,0.0,0.0,0.0,0.0,0.0,0.0,0.0,0.0,0.0,0.0,0.0,0.0,0.0,0.0,0.0,0.0,0.0,0.0,0.0,0.0,0.0,0.0,0.0,0.0,0.0,0.0,0.0,0.0,0.0,0.0,0.0,0.0,0.0,0.0,0.0,0.0,0.0,0.0,0.0,0.0,0.0,0.0,0.0,0.0,0.0,0.0,0.0,-3.4103,-3.3531,-3.4087,-3.3836,-3.3339,-3.2641,-3.2586,-3.2272,-3.1539,-3.1482,0.0,0.0,0.0,0.0,0.0,0.0,0.0,0.0,0.0,0.0,0.0,0.0,0.0,0.0,0.0,0.0,0.0,0.0,0.0,0.0,0.0,0.0,0.0,0.0,0.0,0.0,0.0,0.0,0.0,0.0,0.0,0.0,0.0,0.0,0.0,0.0,0.0,0.0,0.0,0.0,0.0,0.0,0.0,0.0,0.0,0.0,0.0,0.0,0.0,0.0,0.0,0.0,0.0,0.0,0.0,0.0,0.0,0.0,0.0,0.0,0.0,0.0,0.0,0.0,0.0,0.0,0.0,0.0,0.0,0.0,0.0,0.0,0.0,0.0,0.0,0.0,0.0,0.0,0.0,0.0,0.0,0.0,0.0,0.0,0.0,0.0,0.0,0.0,0.0,0.0,0.0,0.0,0.0,0.0,0.0,0.0,0.0,0.0,0.0,0.0,0.0,0.0,-3.3093,-3.2695,-3.2749,-3.3251,-3.3339,-3.2641,-3.2586,-3.2272,-3.1539,-3.1482,0.0,0.0,0.0,0.0,0.0,0.0,0.0,0.0,0.0,0.0,0.0,0.0,0.0,0.0,0.0,0.0,0.0,0.0,0.0,0.0,0.0,0.0,0.0,0.0,0.0,0.0,0.0,0.0,0.0,0.0,0.0,0.0,0.0,0.0,0.0,0.0,0.0,0.0,0.0,0.0,0.0,0.0,0.0,0.0,0.0,0.0,0.0,0.0,0.0,0.0,0.0,0.0,0.0,0.0,0.0,0.0,0.0,0.0,0.0,0.0,0.0,0.0,0.0,0.0,0.0,0.0,0.0,0.0,0.0,0.0,0.0,0.0,0.0,0.0,0.0,0.0,0.0,0.0,0.0,0.0,0.0,0.0,0.0,0.0,0.0,0.0,0.0,0.0,0.0,0.0,0.0,0.0,0.0,0.0,0.0,0.0,0.0,0.0,0.0,0.0,0.0,0.0,-3.2986,-3.2586,0.0,-3.2422,-3.2201,-3.1951,-3.191,-3.1796,-3.1539,0.0,0.0,0.0,0.0,0.0,0.0,0.0,0.0,0.0,0.0,0.0,0.0,0.0,0.0,0.0,0.0,0.0,0.0,0.0,0.0,0.0,0.0,0.0,0.0,0.0,0.0,0.0,0.0,0.0,0.0,0.0,0.0,0.0,0.0,0.0,0.0,0.0,0.0,0.0,0.0,0.0,0.0,0.0,0.0,0.0,0.0,0.0,0.0,0.0,0.0,0.0,0.0,0.0,0.0,0.0,0.0,0.0,0.0,0.0,0.0,0.0,0.0,0.0,0.0,0.0,0.0,0.0,0.0,0.0,0.0,0.0,0.0,0.0,0.0,0.0,0.0,0.0,0.0,0.0,0.0,0.0,0.0,0.0,0.0,0.0,0.0,0.0,0.0,0.0,0.0,0.0,0.0,0.0,0.0,0.0,0.0,0.0,0.0,0.0,0.0,0.0,0.0,-3.3339,-3.268,-3.2272,0.0,-3.1796,-3.1482,-3.1482,-3.1482,-3.1482,-3.1482,0.0,0.0,0.0,0.0,0.0,0.0,0.0,0.0,0.0,0.0,0.0,0.0,0.0,0.0,0.0,0.0,0.0,0.0,0.0,0.0,0.0,0.0,0.0,0.0,0.0,0.0,0.0,0.0,0.0,0.0,0.0,0.0,0.0,0.0,0.0,0.0,0.0,0.0,0.0,0.0,0.0,0.0,0.0,0.0,0.0,0.0,0.0,0.0,0.0,0.0,0.0,0.0,0.0,0.0,0.0,0.0,0.0,0.0,0.0,0.0,0.0,0.0,0.0,0.0,0.0,0.0,0.0,0.0,0.0,0.0,0.0,0.0,0.0,0.0,0.0,0.0,0.0,0.0,0.0,0.0,0.0,0.0,0.0,0.0,0.0,0.0,0.0,0.0,0.0,0.0,0.0,0.0,0.0,0.0,0.0,0.0,0.0,0.0,0.0,0.0,0.0,0.0,-3.2586,-3.1966,-3.1482,-3.1482,-3.1482,-3.1482,-3.1482,-3.1482,-3.1482,0.0,0.0,0.0,0.0,0.0,0.0,0.0,0.0,0.0,0.0,0.0,0.0,0.0,0.0,0.0,0.0,0.0,0.0,0.0,0.0,0.0,0.0,0.0,0.0,0.0,0.0,0.0,0.0,0.0,0.0,0.0,0.0,0.0,0.0,0.0,0.0,0.0,0.0,0.0,0.0,0.0,0.0,0.0,0.0,0.0,0.0,0.0,0.0,0.0,0.0,0.0,0.0,0.0,0.0,0.0,0.0,0.0,0.0,0.0,0.0,0.0,0.0,0.0,0.0,0.0,0.0,0.0,0.0,0.0,0.0,0.0,0.0,0.0,0.0,0.0,0.0,0.0,0.0,0.0,0.0,0.0,0.0,0.0,0.0,0.0,0.0,0.0,0.0,0.0,0.0,0.0,0.0,0.0,0.0,0.0,0.0,0.0,0.0,0.0,0.0,0.0,0.0,0.0,-3.2641,-3.1966,-3.1482,-3.1482,-3.1482,-3.1482,-3.1482,-3.1482,-3.1482,-3.1482,0.0,0.0,0.0,0.0,0.0,0.0,0.0,0.0,0.0,0.0,0.0,0.0,0.0,0.0,0.0,0.0,0.0,0.0,0.0,0.0,0.0,0.0,0.0,0.0,0.0,0.0,0.0,0.0,0.0,0.0,0.0,0.0,0.0,0.0,0.0,0.0,0.0,0.0,0.0,0.0,0.0,0.0,0.0,0.0,0.0,0.0,0.0,0.0,0.0,0.0,0.0,0.0,0.0,0.0,0.0,0.0,0.0,0.0,0.0,0.0,0.0,0.0,0.0,0.0,0.0,0.0,0.0,0.0,0.0,0.0,0.0,0.0,0.0,0.0,0.0,0.0,0.0,0.0,0.0,0.0,0.0,0.0,0.0,0.0,0.0,0.0,0.0,0.0,0.0,0.0,0.0,0.0,0.0,0.0,0.0,0.0,0.0,0.0,0.0,0.0,0.0,0.0,-3.2272,-3.1796,-3.1482,-3.1482,-3.1482,-3.1482,-3.1482,-3.1482,-3.1482,-3.1482,0.0,0.0,0.0,0.0,0.0,0.0,0.0,0.0,0.0,0.0,0.0,0.0,0.0,0.0,0.0,0.0,0.0,0.0,0.0,0.0,0.0,0.0,0.0,0.0,0.0,0.0,0.0,0.0,0.0,0.0,0.0,0.0,0.0,0.0,0.0,0.0,0.0,0.0,0.0,0.0,0.0,0.0,0.0,0.0,0.0,0.0,0.0,0.0,0.0,0.0,0.0,0.0,0.0,0.0,0.0,0.0,0.0,0.0,0.0,0.0,0.0,0.0,0.0,0.0,0.0,0.0,0.0,0.0,0.0,0.0,0.0,0.0,0.0,0.0,0.0,0.0,0.0,0.0,0.0,0.0,0.0,0.0,0.0,0.0,0.0,0.0,0.0,0.0,0.0,0.0,0.0,0.0,0.0,0.0,0.0,0.0,0.0,0.0,0.0,0.0,0.0,0.0,-3.1697,-3.1524,-3.1482,-3.1482,-3.1482,-3.1482,-3.1482,-3.1482,-3.1452,-3.1377,0.0,0.0,0.0,0.0,0.0,0.0,0.0,0.0,0.0,0.0,0.0,0.0,0.0,0.0,0.0,0.0,0.0,0.0,0.0,0.0,0.0,0.0,0.0,0.0,0.0,0.0,0.0,0.0,0.0,0.0,0.0,0.0,0.0,0.0,0.0,0.0,0.0,0.0,0.0,0.0,0.0,0.0,0.0,0.0,0.0,0.0,0.0,0.0,0.0,0.0,0.0,0.0,0.0,0.0,0.0,0.0,0.0,0.0,0.0,0.0,-4.5586,0.0,0.0,0.0,0.0,0.0,0.0,0.0,0.0,0.0,0.0,0.0,0.0,0.0,0.0,0.0,0.0,0.0,0.0,0.0,0.0,0.0,0.0,0.0,0.0,0.0,0.0,0.0,0.0,0.0,0.0,0.0,0.0,0.0,0.0,0.0,0.0,0.0,0.0,0.0,0.0,0.0,-3.2422,-3.1853,-3.1482,-3.1482,-3.1482,-3.1482,-3.1482,-3.1482,-3.1243,-3.0761,-2.9899,0.0,0.0,0.0,0.0,0.0,0.0,0.0,0.0,0.0,0.0,0.0,0.0,0.0,0.0,0.0,0.0,0.0,0.0,0.0,0.0,0.0,0.0,0.0,0.0,0.0,0.0,0.0,0.0,0.0,0.0,0.0,0.0,0.0,0.0,0.0,0.0,0.0,0.0,0.0,0.0,0.0,0.0,0.0,0.0,0.0,0.0,0.0,0.0,0.0,0.0,0.0,0.0,0.0,0.0,0.0,0.0,0.0,0.0,0.0,0.0,-4.5355,0.0,0.0,0.0,0.0,0.0,0.0,0.0,0.0,0.0,0.0,0.0,0.0,0.0,0.0,0.0,0.0,0.0,0.0,0.0,0.0,0.0,0.0,0.0,0.0,0.0,0.0,0.0,0.0,0.0,0.0,0.0,0.0,0.0,0.0,0.0,0.0,0.0,0.0,0.0,0.0,-3.213,-3.1754,-3.1482,-3.1482,-3.1482,-3.1482,-3.1482,-3.1482,-3.1053,-3.0056,-2.8987,0.0,0.0,0.0,0.0,0.0,0.0,0.0,0.0,0.0,0.0,0.0,0.0,0.0,0.0,0.0,0.0,0.0,0.0,0.0,0.0,0.0,0.0,0.0,0.0,0.0,0.0,0.0,0.0,0.0,0.0,0.0,0.0,0.0,0.0,0.0,0.0,0.0,0.0,0.0,0.0,0.0,0.0,0.0,0.0,0.0,0.0,0.0,0.0,0.0,0.0,0.0,0.0,0.0,-4.5696,-4.5618,-4.5586,-4.5586,-4.5201,-4.4566,-4.5278,-4.5028,-4.4126,0.0,0.0,0.0,0.0,0.0,0.0,0.0,0.0,0.0,0.0,0.0,0.0,0.0,0.0,0.0,0.0,0.0,0.0,0.0,0.0,0.0,0.0,0.0,0.0,0.0,-3.5622,-3.5622,0.0,0.0,0.0,0.0,0.0,0.0,0.0,0.0,0.0,0.0,0.0,0.0,-3.1507,-3.1482,-3.1482,-3.1482,-3.1482,-3.1482,-3.1482,-3.1482,-3.0878,-2.9536,-2.8092,-2.6965,0.0,0.0,0.0,0.0,0.0,0.0,0.0,0.0,0.0,0.0,0.0,0.0,0.0,0.0,0.0,0.0,0.0,0.0,0.0,0.0,0.0,0.0,0.0,0.0,0.0,0.0,0.0,0.0,0.0,0.0,0.0,0.0,-4.594,-4.6084,0.0,0.0,0.0,0.0,0.0,0.0,0.0,0.0,0.0,0.0,0.0,0.0,0.0,-4.6075,-4.6075,-4.5952,-4.5861,-4.5796,-4.5783,-4.5723,-4.5586,-4.5586,-4.5528,-4.5432,-4.5547,0.0,-4.3242,-4.2967,0.0,0.0,0.0,0.0,0.0,0.0,0.0,0.0,0.0,0.0,0.0,0.0,0.0,0.0,0.0,0.0,0.0,0.0,0.0,0.0,0.0,0.0,-3.5622,-3.5622,-3.5622,-3.5622,0.0,-3.5115,-3.4641,-3.4641,-3.4641,0.0,0.0,0.0,0.0,0.0,0.0,0.0,-3.1567,-3.1482,-3.1482,-3.1482,-3.1482,-3.1482,-3.1482,-3.1482,-3.0959,-2.9665,-2.8154,-2.6771,-2.5564,-2.4047,0.0,0.0,0.0,0.0,0.0,0.0,0.0,0.0,0.0,0.0,0.0,0.0,0.0,0.0,0.0,0.0,0.0,0.0,0.0,0.0,0.0,0.0,0.0,0.0,0.0,0.0,0.0,0.0,0.0,-4.579,-4.5881,-4.5974,-4.605,-4.6147,0.0,0.0,0.0,0.0,0.0,0.0,0.0,0.0,0.0,-4.6308,-4.6246,-4.6202,-4.6202,-4.608,-4.6001,-4.5974,-4.5844,-4.5775,-4.5708,-4.5635,-4.5316,-4.4874,-4.4874,-4.4201,-4.3124,-4.3404,-4.2387,-4.0726,0.0,0.0,0.0,0.0,-3.9239,-3.9184,-3.8817,-3.8707,0.0,0.0,0.0,0.0,0.0,0.0,0.0,0.0,0.0,0.0,0.0,0.0,0.0,-3.5622,-3.5622,-3.5622,-3.5622,-3.503,-3.4624,0.0,-3.4813,-3.4226,-3.3222,0.0,0.0,0.0,0.0,-3.147,-3.148,-3.1482,-3.1482,-3.1482,-3.1482,-3.1482,-3.1482,-3.1482,-3.077,-2.9031,-2.7925,-2.6569,-2.4835,-2.3708,-2.3078,0.0,0.0,0.0,0.0,0.0,0.0,0.0,0.0,0.0,0.0,0.0,0.0,0.0,0.0,0.0,0.0,0.0,0.0,0.0,0.0,0.0,0.0,0.0,0.0,0.0,0.0,0.0,0.0,-4.5696,-4.5777,-4.5852,-4.5974,-4.6108,0.0,0.0,0.0,0.0,0.0,0.0,-4.6308,-4.6308,-4.6308,-4.6308,-4.6308,-4.6308,-4.6308,-4.62,-4.6124,-4.6108,-4.5957,-4.5844,-4.5796,-4.5692,-4.5288,-4.4624,-4.4624,-4.4162,-4.3412,-4.3585,-4.224,-4.0094,-4.0511,-3.9939,-3.8803,-3.8803,-3.8762,-3.8707,-3.8707,-3.8707,-3.8707,-3.8707,0.0,-3.8032,-3.7703,0.0,0.0,0.0,0.0,-3.5622,-3.5622,-3.5622,-3.5622,-3.5622,-3.5622,-3.5622,-3.5622,-3.5182,-3.4895,0.0,-3.4768,-3.4034,-3.3123,0.0,0.0,0.0,0.0,-3.0956,-3.1407,-3.1482,-3.1482,-3.1482,-3.1482,-3.1482,-3.1482,-3.1278,-3.0396,-2.8539,-2.7505,-2.6158,-2.439,-2.3543,-2.3078,-2.3078,0.0,0.0,0.0,0.0,0.0,0.0,0.0,0.0,0.0,0.0,0.0,0.0,0.0,0.0,0.0,0.0,0.0,0.0,0.0,0.0,0.0,0.0,0.0,0.0,0.0,0.0,0.0,0.0,0.0,-4.5796,-4.5871,0.0,0.0,0.0,0.0,-4.6308,-4.6308,-4.6308,-4.6308,-4.6308,-4.6308,-4.6308,-4.6308,-4.6308,-4.6308,-4.6289,-4.6225,-4.6108,-4.6084,-4.5979,-4.5796,-4.5796,-4.5703,-4.5528,-4.5528,-4.5028,-4.4124,-4.2566,-4.1642,-4.1149,-4.0424,-3.9724,-3.9072,-3.9072,-3.8923,-3.8707,-3.8707,-3.8707,-3.8707,-3.8707,-3.8676,-3.8676,-3.8627,-3.7913,0.0,0.0,-3.6399,-3.5622,-3.5622,-3.5622,-3.5622,-3.5622,-3.5622,-3.5622,-3.5622,-3.5588,-3.5368,0.0,-3.4018,-3.3154,-3.1838,0.0,-3.2105,-3.0764,-3.1061,-3.1437,-3.1482,-3.1482,-3.1482,-3.1482,-3.1482,-3.1482,-3.1482,-3.0777,-2.9781,-2.8468,-2.7001,-2.5614,-2.4332,-2.3543,-2.3078,-2.3078,-2.3078,0.0,0.0,0.0,0.0,0.0,0.0,0.0,0.0,0.0,0.0,0.0,0.0,0.0,0.0,0.0,0.0,0.0,0.0,0.0,0.0,0.0,0.0,0.0,0.0,0.0,0.0,0.0,0.0,-4.5783,-4.5808,0.0,-4.5967,-4.6084,-4.6173,-4.6173,-4.6247,-4.6308,-4.6308,-4.6308,-4.6308,-4.6308,-4.6308,-4.6308,-4.6308,-4.6308,-4.6289,-4.6225,-4.605,-4.5935,-4.5861,-4.5728,-4.5651,-4.5586,-4.5586,-4.5413,-4.5047,-4.3893,-4.2581,-4.1284,-4.0978,-4.0144,-3.9099,-3.9099,-3.8933,-3.8707,-3.8707,-3.8707,-3.8707,-3.8707,-3.8465,-3.8183,-3.8183,-3.747,-3.6684,-3.6684,-3.6165,-3.5622,-3.5622,-3.5622,-3.5622,-3.5622,-3.5622,-3.5622,-3.5622,-3.5622,-3.5537,-3.5267,-3.4325,-3.3435,-3.2928,-3.2353,-3.1705,-3.1195,-3.1375,-3.1482,-3.1482,-3.1482,-3.1482,-3.1482,-3.1482,-3.1278,-3.0777,-3.045,-2.9543,-2.7734,-2.6654,-2.5554,-2.4332,-2.3543,-2.3078,-2.3078,-2.3078,-2.3078,0.0,0.0,0.0,0.0,0.0,0.0,0.0,0.0,0.0,0.0,0.0,0.0,0.0,0.0,0.0,0.0,0.0,0.0,0.0,0.0,0.0,0.0,0.0,0.0,0.0,0.0,-4.5635,-4.5718,-4.5769,-4.5828,-4.5871,-4.5967,-4.6045,-4.6108,-4.6175,-4.6247,-4.6308,-4.6308,-4.6308,-4.6308,-4.6308,-4.6308,-4.6308,-4.6308,-4.6308,-4.6308,-4.6117,-4.5988,-4.5899,-4.5764,-4.5658,-4.5586,-4.5586,-4.5586,-4.5547,-4.497,-4.3768,-4.2259,-4.1686,-4.0753,-3.9682,-3.9376,-3.9017,-3.8707,-3.8707,-3.8707,-3.8707,-3.8707,-3.835,-3.7893,-3.7893,-3.7193,-3.6374,-3.6374,-3.6011,-3.5622,-3.5622,-3.5622,-3.5622,-3.5622,-3.5622,-3.5622,-3.5622,-3.5622,-3.5515,-3.5316,-3.435,-3.3582,-3.3582,-3.2407,-3.1482,-3.1482,-3.1482,-3.1482,-3.1482,-3.1482,-3.1482,-3.1482,-3.1482,-3.1161,-3.0389,-3.0329,-2.9288,-2.6977,-2.6363,-2.5432,-2.3936,-2.3365,-2.3078,-2.3078,-2.3078,-2.3078,-2.3078,0.0,0.0,0.0,0.0,0.0,0.0,0.0,0.0,0.0,0.0,0.0,0.0,0.0,0.0,0.0,0.0,0.0,0.0,0.0,0.0,0.0,0.0,0.0,-4.5377,-4.5586,-4.5586,-4.5586,-4.5723,-4.5796,-4.5796,-4.5861,-4.5959,-4.608,-4.6108,-4.617,-4.6289,-4.6308,-4.6308,-4.6308,-4.6308,-4.6308,-4.6308,-4.6308,-4.6308,-4.6308,-4.6308,-4.617,-4.5899,-4.5899,-4.5782,-4.5586,-4.5586,-4.5586,-4.5586,-4.5586,-4.5086,-4.4162,-4.2508,-4.1457,-4.0797,-3.9901,-3.9216,-3.8707,-3.8707,-3.8707,-3.8707,-3.8707,-3.835,-3.7911,-3.7911,-3.7193,-3.6416,-3.6416,-3.6011,-3.5622,-3.5622,-3.5622,-3.5622,-3.5622,-3.5622,-3.5622,-3.5622,-3.5577,-3.5362,-3.4736,-3.4037,-3.3598,-3.3598,-3.2407,-3.1482,-3.1482,-3.1482,0.0,-3.1482,-3.1482,-3.1482,-3.1482,-3.1482,-3.1161,-3.0329,-3.0269,-2.9045,-2.6286,-2.6083,-2.5201,-2.3201,-2.3078,-2.3078,-2.3078,-2.309,-2.3103,-2.3103,0.0,0.0,0.0,0.0,0.0,0.0,0.0,0.0,0.0,0.0,0.0,0.0,0.0,0.0,0.0,0.0,0.0,0.0,0.0,0.0,0.0,0.0,-4.3935,-4.4266,-4.5054,-4.5586,-4.5586,-4.5635,-4.5648,-4.5648,-4.5769,-4.5844,-4.5889,-4.6027,-4.6117,-4.6147,-4.6247,-4.6308,-4.6308,-4.6308,-4.6308,-4.6308,-4.6308,-4.6308,-4.6308,-4.62,-4.6075,-4.5899,-4.5839,-4.5742,-4.5586,-4.5586,-4.5586,-4.5586,-4.5586,-4.5451,-4.5066,-4.3393,-4.1972,-4.0797,-3.9901,-3.9216,-3.8707,-3.8707,-3.8707,-3.8707,-3.8707,-3.8596,-3.8433,-3.8013,-3.747,-3.6921,-3.6498,-3.6011,-3.5622,-3.5622,-3.5622,-3.5622,-3.5622,-3.5622,-3.5622,-3.5622,-3.5207,-3.483,-3.464,-3.3684,-3.2895,-3.2895,-3.2104,-3.1482,-3.1482,-3.1482,0.0,-3.1482,-3.1482,-3.1482,-3.1482,-3.1482,-3.0896,-2.9504,-2.938,-2.8343,-2.5922,-2.5384,-2.4735,-2.3791,-2.3364,-2.3078,-2.3078,-2.3552,-2.3766,0.0,0.0,0.0,0.0,0.0,0.0,0.0,0.0,0.0,0.0,0.0,0.0,0.0,0.0,0.0,0.0,0.0,0.0,0.0,0.0,0.0,0.0,-4.3686,-4.3926,-4.4109,-4.4977,-4.5586,-4.5586,-4.5586,-4.5586,-4.5586,-4.5665,-4.5733,-4.5796,-4.5911,-4.6001,-4.6108,-4.6173,-4.6246,-4.6308,-4.6308,-4.6308,-4.6308,-4.6308,-4.6308,-4.6308,-4.6223,-4.6113,-4.5981,-4.5891,-4.577,0.0,-4.5618,-4.5586,-4.5586,-4.5586,-4.5586,0.0,0.0,0.0,0.0,0.0,-3.8998,-3.8707,-3.8707,-3.8707,-3.8707,-3.8707,-3.8546,-3.8267,-3.7773,-3.7248,-3.6764,-3.6224,-3.5854,-3.5622,-3.5622,-3.5622,-3.5622,-3.5622,-3.5622,-3.5515,-3.5253,-3.4894,-3.4431,-3.3887,0.0,0.0,-3.2176,-3.1796,-3.1482,-3.1482,-3.1482,-3.1482,-3.1482,-3.1482,-3.1351,-3.1029,-3.1029,-3.0329,-2.862,-2.8812,0.0,0.0,0.0,-2.5282,-2.4368,-2.4017,0.0,0.0,0.0,0.0,0.0,0.0,0.0,0.0,-2.5146,-2.5485,0.0,0.0,0.0,0.0,0.0,0.0,0.0,0.0,0.0,0.0,0.0,0.0,0.0,0.0,0.0,0.0,-4.3772,-4.4117,-4.4474,-4.5077,-4.5513,-4.5586,-4.5586,-4.5586,-4.5586,-4.5586,-4.5651,-4.5775,-4.5783,-4.5889,-4.6059,0.0,0.0,0.0,0.0,-4.6308,-4.6308,-4.6308,-4.6308,-4.6308,-4.6308,-4.6225,-4.6108,-4.5967,-4.5852,-4.5796,-4.5648,-4.5586,-4.5586,-4.5586,-4.547,-4.5108,-4.3574,-4.2485,-4.15,-3.9468,-3.8707,0.0,-3.8707,0.0,0.0,-3.8707,-3.8382,-3.7911,-3.736,-3.6882,-3.6374,-3.5783,-3.5622,-3.5622,-3.5622,-3.5622,-3.5622,-3.5622,-3.5622,-3.5424,-3.483,-3.4576,-3.4104,-3.2839,-3.2478,-3.2133,-3.1429,-3.1377,-3.1452,-3.1377,-3.1362,-3.1332,-3.1258,-3.1315,-3.0997,-3.0172,0.0,0.0,-2.7669,-2.8238,-2.7739,-2.5668,-2.6207,-2.6116,-2.4833,-2.482,-2.482,-2.482,-2.4883,-2.4908,-2.4908,-2.5435,-2.5686,-2.5686,-2.5686,-2.5686,0.0,0.0,0.0,0.0,0.0,0.0,0.0,0.0,0.0,0.0,0.0,0.0,0.0,0.0,0.0,-4.3461,-4.3772,-4.4046,-4.4106,-4.4508,-4.4988,-4.555,-4.5586,-4.5586,-4.5586,-4.5586,-4.5603,-4.5635,-4.5733,-4.5835,-4.5856,-4.6001,0.0,-4.6144,-4.6246,-4.6308,-4.6308,-4.6308,-4.6308,-4.6308,0.0,0.0,-4.6108,-4.5967,-4.5852,-4.5796,-4.5648,-4.5586,-4.5586,-4.5586,-4.4651,-4.3119,-4.2547,-4.1216,-3.9608,-3.8944,-3.8707,-3.8707,-3.8707,-3.8707,-3.8707,-3.8707,-3.8627,-3.8401,-3.7487,-3.7152,0.0,-3.5854,-3.5622,-3.5622,-3.5622,-3.5622,-3.5622,-3.5622,-3.5622,-3.556,-3.5407,-3.4544,-3.3574,-3.2761,-3.1681,-3.0704,-3.0098,-3.0836,-3.1345,-3.0791,-3.0702,-3.0522,-3.0028,-2.9968,-2.9648,-2.8828,-2.8771,-2.8119,-2.6525,-2.6587,-2.6172,-2.5036,-2.51,-2.5114,-2.482,-2.482,-2.482,-2.482,-2.5234,-2.5448,-2.5448,-2.6013,-2.6302,-2.6302,-2.6302,-2.6302,0.0,0.0,0.0,0.0,0.0,0.0,0.0,0.0,0.0,0.0,0.0,-4.2415,0.0,0.0,-4.3497,-4.3497,-4.3646,-4.3804,-4.3986,-4.4175,-4.4561,-4.5263,-4.5342,-4.5419,-4.5586,-4.5586,-4.5586,-4.5586,-4.5665,-4.5718,-4.5796,-4.5929,-4.6033,-4.6108,-4.6225,-4.6308,-4.6308,-4.6308,-4.6308,-4.6308,-4.6308,-4.6268,-4.62,-4.605,-4.5944,-4.5828,-4.5742,-4.5665,-4.5566,-4.5124,-4.4019,-4.2522,-4.1783,-4.0522,-3.9072,-3.8803,-3.8707,-3.8707,-3.8707,-3.8707,-3.8707,-3.8707,-3.8707,-3.8515,-3.7487,-3.719,-3.6981,-3.5898,-3.5622,-3.5622,-3.5622,-3.5622,-3.5622,-3.5622,-3.5362,-3.4905,-3.4242,-3.3321,-3.2316,-3.128,-3.0556,-2.9939,-2.9639,-3.0118,-3.0447,-3.0103,-3.0043,-2.9924,-2.9624,-2.9579,-2.9153,-2.7953,-2.7824,-2.7179,-2.5597,-2.5484,-2.5231,-2.482,-2.5059,-2.5209,-2.5209,-2.5485,-2.5636,-2.5636,-2.59,-2.6025,-2.6025,-2.6314,-2.6533,-2.6533,-2.6533,-2.6533,0.0,0.0,0.0,0.0,0.0,0.0,0.0,-4.0569,-4.1534,-4.2176,-4.2415,-4.2727,-4.3369,-4.3497,-4.3497,-4.3497,-4.3497,-4.3597,-4.3849,-4.3893,-4.4146,-4.4806,-4.5011,-4.5201,-4.5476,-4.5568,-4.5586,-4.5586,-4.5586,-4.5651,-4.5761,-4.5847,-4.5935,-4.6069,-4.6198,-4.6268,-4.6308,-4.6308,-4.6308,-4.6308,-4.6308,-4.6308,-4.6308,-4.615,-4.6033,-4.589,-4.5796,-4.5596,-4.5278,-4.4586,-4.354,-4.2255,-4.1339,-4.0196,-3.9072,-3.8803,-3.8707,-3.8707,-3.8707,-3.8707,-3.8707,-3.8707,-3.8627,-3.8401,-3.7487,-3.7152,-3.6825,-3.5854,-3.5622,-3.5622,-3.5622,-3.5622,-3.5588,-3.5436,-3.4881,-3.4085,-3.2822,-3.195,-3.1072,-2.9864,-2.9477,-2.934,-2.9205,-2.919,-2.9235,-2.937,-2.9385,-2.934,-2.9205,-2.9083,-2.844,-2.7023,-2.673,-2.6029,-2.4608,-2.4494,-2.4544,-2.4657,-2.5059,-2.5372,-2.5586,-2.605,-2.6352,-2.6533,-2.6533,-2.6533,-2.6533,-2.6533,-2.6533,-2.6533,-2.6533,-2.6533,-3.7228,-3.7303,-3.721,-3.7266,-3.8205,-3.9102,0.0,-4.0735,-4.2194,-4.2286,-4.2873,-4.3387,-4.3461,-4.3497,-4.3497,-4.3497,-4.3497,-4.3513,-4.3548,-4.3548,-4.3712,-4.4087,-4.4688,-4.5118,-4.514,-4.5419,-4.5586,-4.5586,-4.5586,-4.5603,-4.5637,-4.5728,-4.5847,-4.5916,-4.6045,-4.6175,-4.6308,-4.6308,-4.6308,-4.6308,-4.6308,-4.6308,-4.6308,-4.615,-4.6033,-4.589,-4.5713,-4.5178,-4.4432,-4.4335,-4.3175,-4.1436,-4.1301,-4.0367,-3.9072,-3.8803,-3.8707,-3.8707,-3.8707,-3.8707,-3.8707,-3.8707,-3.8382,-3.7911,-3.736,-3.6882,-3.6374,-3.5783,-3.5622,-3.5622,-3.5622,-3.5622,-3.5453,-3.4776,-3.4175,-3.3485,-3.2685,-3.155,-3.0483,-2.9751,-2.9118,-2.8517,-2.7955,-2.785,-2.8008,-2.8622,-2.8712,-2.8487,-2.7874,-2.7254,-2.6551,-2.5716,-2.504,-2.4243,-2.3387,-2.3265,-2.354,-2.4054,-2.4155,-2.4607,-2.5548,-2.5649,-2.5937,-2.6521,-2.6533,-2.6533,-2.6533,-2.6533,-2.6533,-2.6533,-2.6533,-2.6533,-3.6207,-3.6481,-3.6724,-3.6724,-3.78,-3.8961,-3.9251,-4.0733,-4.1998,-4.1998,-4.2289,-4.2619,-4.2976,-4.3014,-4.3142,0.0,-4.3497,-4.3644,-4.4121,-4.3791,-4.3713,-4.4325,-4.4445,-4.4638,-4.5052,-4.5222,-4.54,-4.5586,-4.5586,-4.5586,-4.5586,-4.5737,-4.5815,-4.5836,-4.6008,-4.614,-4.6175,-4.6268,-4.6308,-4.6308,-4.6308,-4.6308,-4.6308,-4.6246,-4.6108,-4.5851,-4.5235,-4.4716,-4.422,-4.3258,-4.2362,-4.1529,-4.0864,-4.0122,-3.9339,-3.9054,-3.8844,-3.8707,-3.8707,-3.8707,-3.8707,-3.8707,-3.835,-3.7825,-3.7323,-3.6843,-3.6308,-3.5739,-3.5622,-3.5622,-3.5622,-3.5301,-3.479,-3.4125,-3.3176,-3.2109,-3.1022,-3.0086,-2.9225,-2.8591,-2.8233,-2.7919,-2.767,-2.7625,-2.773,-2.7964,-2.7669,-2.7305,-2.7026,-2.6336,-2.5563,-2.4851,-2.406,-2.3484,-2.3138,-2.3078,-2.3238,-2.3477,-2.3816,-2.4205,-2.4644,-2.5272,-2.5711,-2.595,-2.6289,-2.6533,-2.6533,-2.6533,-2.6533,-2.6533,-2.6533,-2.6533,-3.5622,-3.5898,-3.6233,-3.644,-3.7612,-3.8877,-3.9469,-4.0711,-4.181,-4.181,-4.181,-4.1979,-4.2577,-4.2711,-4.2864,-4.341,-4.3681,-4.403,-4.4635,-4.4195,-4.4048,-4.4635,-4.4192,-4.4087,-4.4738,-4.4988,-4.5243,-4.5568,-4.5586,-4.5586,-4.5586,-4.5692,-4.5761,-4.5796,-4.5963,-4.605,-4.6108,-4.6225,-4.6308,-4.6308,-4.6308,-4.6308,-4.6289,-4.6014,-4.5773,-4.5543,-4.4575,-4.3954,-4.357,-4.2313,-4.1662,-4.1357,-4.0516,-4.0003,-3.9709,-3.9364,-3.9017,-3.8707,-3.8707,-3.8707,-3.8707,-3.8707,-3.835,-3.7825,-3.7323,-3.6843,-3.6308,-3.5739,-3.5622,-3.5571,-3.5368,-3.4895,-3.4283,-3.3434,-3.2226,-3.0911,-2.98,-2.8909,-2.8173,-2.7715,-2.7625,-2.7625,-2.7625,-2.7408,-2.7306,-2.7306,-2.6496,-2.6068,-2.6457,-2.5673,-2.4794,-2.406,-2.3424,-2.3078,-2.3078,-2.3078,-2.3078,-2.3078,-2.3527,-2.3841,-2.3991,-2.4745,-2.5297,-2.5586,-2.6013,-2.6302,-2.6533,-2.6533,-2.6533,-2.6533,-2.6533,-2.6533,-3.5622,-3.5622,-3.5791,-3.6598,-3.7734,-3.8885,-3.9631,-4.0841,-4.181,-4.181,-4.181,-4.1979,-4.2577,-4.2711,-4.2864,-4.341,-4.4158,-4.4672,-4.4709,-4.469,-4.4672,-4.4709,-4.3993,-4.3646,0.0,-4.4688,-4.5243,-4.5568,-4.5586,-4.5586,-4.5586,-4.5603,-4.5665,-4.5796,-4.5881,-4.5974,-4.6108,-4.6225,-4.6308,-4.6308,-4.6308,-4.6308,-4.6269,-4.5291,-4.484,-4.4768,-4.3694,-4.2802,-4.2073,-4.1874,-4.1296,-4.0527,-4.0508,-4.0321,-4.0042,-3.9709,-3.9216,-3.8707,-3.8707,-3.8707,-3.8707,-3.8707,-3.835,-3.7825,-3.7323,-3.6843,-3.6308,-3.5739,-3.5622,-3.5453,-3.4726,-3.4506,-3.4117,-3.2679,-3.1396,-3.0316,-2.9582,-2.8479,-2.764,-2.7625,-2.7625,-2.7625,-2.7625,-2.6982,-2.651,-2.651,-2.5287,-2.4908,-2.6336,-2.5231,-2.4002,-2.3185,-2.3138,-2.3078,-2.3078,-2.3078,-2.3078,-2.3078,-2.309,-2.3414,-2.3979,-2.4029,-2.4531,-2.5573,-2.5611,-2.59,-2.6533,-2.6533,-2.6533,-2.6533,-2.6533,-2.6533,-3.5622,-3.5622,-3.5808,-3.6586,-3.75,-3.8355,-3.9105,-3.9983,-4.0689,-4.0689,-4.0689,-4.114,-4.2612,-4.246,-4.2584,-4.4053,-4.4085,-4.4085,-4.4635,-4.425,-4.4103,-4.4654,-4.3993,0.0,0.0,0.0,0.0,-4.5243,-4.5457,-4.5586,-4.5586,-4.5586,-4.562,-4.5665,-4.5777,-4.5871,-4.5974,-4.6108,-4.6202,-4.6308,-4.6308,-4.5996,-4.543,-4.5095,-4.4594,-4.3953,-4.2911,-4.2285,-4.1938,-4.1234,-4.0758,-4.0489,-4.0489,-4.0212,-3.9735,-3.9645,-3.9216,-3.8707,-3.8707,-3.8707,-3.8707,-3.8707,-3.8135,-3.7396,-3.7248,-3.6563,-3.581,-3.5667,-3.5267,-3.481,-3.4556,-3.3761,-3.2715,-3.1419,-3.0396,-2.9496,-2.8446,-2.7894,-2.7625,-2.7625,-2.7625,-2.7458,-2.693,-2.6669,-2.6336,-2.5837,-2.4951,-2.4292,-2.4266,-2.3813,-2.3424,-2.3138,-2.3078,-2.3078,-2.3078,-2.3078,-2.3078,-2.3078,-2.3078,-2.3165,-2.3414,-2.3791,-2.4167,-2.4531,-2.5234,-2.5686,-2.5887,-2.6264,-2.6533,-2.6533,-2.6533,-2.6533,-3.5622,-3.5622,-3.5876,-3.6924,-3.755,-3.8159,-3.9157,-3.9732,-4.007,-4.007,-4.007,-4.0521,-4.1988,-4.1824,-4.2041,-4.3782,-4.407,-4.4236,-4.4728,-4.4546,-4.4433,-4.4672,-4.3993,-4.3597,0.0,0.0,0.0,-4.5074,-4.5419,-4.5586,-4.5586,-4.5586,-4.5586,-4.5586,-4.5718,-4.5825,-4.5899,-4.6033,-4.6173,-4.6308,-4.5976,-4.5547,-4.498,-4.4355,-4.3747,-4.3124,-4.2134,-4.1657,-4.1516,-4.0849,-4.0545,-4.0489,-4.0489,-4.0193,-3.9775,-3.9645,-3.9275,-3.8815,-3.875,-3.8707,-3.8707,-3.8707,-3.8117,-3.7433,-3.7248,-3.6603,-3.5803,-3.5328,-3.4861,-3.437,-3.3846,-3.3,-3.1967,-3.0712,-2.9907,-2.9134,-2.814,-2.776,-2.7625,-2.7625,-2.7625,-2.7357,-2.6616,-2.6068,-2.5453,-2.4667,-2.4163,-2.3767,-2.3543,-2.3245,-2.3078,-2.3078,-2.3078,-2.3078,-2.3078,-2.3078,-2.3078,-2.3078,-2.3078,-2.3078,-2.3078,-2.3489,-2.3791,-2.4004,-2.4669,-2.5222,-2.5598,-2.5623,-2.5758,-2.5955,-2.5581,-2.5429,-3.5622,-3.5622,-3.5977,-3.7483,-3.7872,-3.8278,-3.9698,-4.0054,-4.007,-4.007,-4.007,-4.0254,0.0,0.0,-4.1331,-4.2688,-4.408,-4.4953,-4.4895,-4.5383,-4.5498,0.0,0.0,0.0,0.0,0.0,0.0,-4.5011,0.0,-4.5586,-4.5586,-4.5586,-4.5586,-4.5586,-4.5718,-4.5832,-4.589,-4.5994,-4.6095,-4.6211,-4.5351,-4.4902,-4.4805,-4.3144,-4.2383,-4.2285,-4.1387,-4.092,-4.0793,-4.0721,-4.0623,-4.0489,-4.0489,-4.0339,-4.0061,-3.9712,-3.9389,-3.9044,-3.8803,-3.8707,-3.8707,-3.8707,-3.835,-3.7825,-3.7323,-3.6808,-3.6084,-3.4848,-3.4438,-3.4049,-3.2645,-3.2256,-3.1857,-3.0542,-2.9805,-2.918,-2.8591,-2.7993,-2.7625,-2.7625,-2.756,-2.724,-2.6496,-2.5175,-2.4002,-2.3185,-2.3078,-2.3365,-2.4118,-2.3603,-2.3078,-2.3078,-2.3078,-2.3078,-2.3078,-2.3078,-2.3078,-2.3078,-2.3078,-2.3078,-2.3078,-2.3078,-2.3328,-2.3879,-2.3917,-2.443,-2.5378,-2.4538,-2.4412,-2.4898,-2.3952,-2.3514,-3.5622,-3.5622,-3.5859,-3.6823,-3.7483,-3.8142,-3.9056,-3.9681,-4.007,-4.007,-4.007,-4.0474,-4.167,-4.1319,0.0,-4.2776,-4.3166,0.0,-4.3289,-4.378,0.0,-4.3828,-4.3608,-4.3497,-4.3497,-4.3804,0.0,0.0,-4.5052,-4.5342,-4.5586,-4.5586,-4.5586,-4.5586,-4.5635,-4.5703,-4.582,-4.5358,-4.5197,-4.5312,-4.4453,-4.3691,-4.3047,-4.2598,-4.207,-4.1484,-4.1153,-4.092,-4.0793,-4.0721,-4.0623,-4.0489,-4.0489,-4.0339,-4.0061,-3.9712,-3.9389,-3.9044,-3.8803,-3.8707,-3.8707,-3.8707,-3.835,-3.7825,-3.7323,-3.6439,-3.5451,-3.4695,-3.3694,-3.2747,-3.2374,-3.1549,-3.0608,-2.981,-2.918,-2.8543,-2.7944,-2.771,-2.7625,-2.7625,-2.6707,-2.5728,-2.5007,-2.4047,-2.3365,-2.3138,-2.3078,-2.3185,-2.3365,-2.3245,-2.3078,-2.3078,-2.3078,-2.3078,-2.3078,-2.3078,-2.3078,-2.3078,-2.3078,-2.3078,-2.3078,-2.3078,-2.2885,-2.2466,-2.2865,-2.2858,-2.2503,-2.2995,-2.3301,-2.3427,-2.3492,-2.3514,-3.5622,-3.5622,-3.5808,-3.6586,-3.7347,-3.8091,-3.8819,-3.9546,-4.007,-4.007,-4.007,-4.034,-4.1128,-4.0886,-4.0913,-4.2037,0.0,0.0,-4.2762,-4.3315,-4.3633,0.0,-4.3497,0.0,-4.3497,-4.3679,-4.3943,0.0,-4.4806,-4.5243,-4.5586,-4.5586,-4.5586,-4.5586,-4.5586,-4.5491,-4.5235,-4.4591,-4.4309,-4.4388,-4.3534,-4.2871,-4.2383,-4.2031,-4.1621,-4.1191,0.0,-4.092,-4.0793,-4.0721,-4.0623,-4.0489,-4.0489,-4.0339,-4.0061,-3.9712,-3.9389,-3.9044,-3.8803,-3.8707,-3.8707,-3.8707,-3.8201,-3.7542,-3.7285,-3.6142,-3.4812,-3.4185,-3.3186,-3.2246,-3.1884,-3.1041,-3.0166,-2.954,-2.8919,-2.8319,-2.771,-2.7625,-2.7509,-2.7203,-2.6162,-2.5175,-2.4452,-2.3649,-2.3078,-2.3078,-2.3078,-2.3078,-2.3078,-2.3078,-2.3078,-2.3078,-2.3078,-2.3078,-2.3078,-2.3078,-2.3078,-2.3078,-2.3078,-2.3078,-2.3078,-2.3078,-2.2884,-2.2445,-2.2738,-2.2552,-2.1989,-2.2083,-2.2162,-2.2237,-2.1987,-2.1998,-3.5622,-3.5622,-3.5774,-3.6451,-3.7195,-3.7939,-3.8764,-3.9542,-4.0085,-4.0187,-4.0254,-4.0303,-4.0121,-4.0171,-4.0375,-4.095,-4.1606,-4.2178,-4.2714,-4.3327,-4.3663,-4.3536,-4.3497,-4.3497,-4.3497,-4.3497,-4.3646,-4.3986,-4.4587,-4.5118,-4.5513,-4.5531,-4.551,-4.5432,-4.5432,-4.5067,-4.4324,-4.3693,-4.3402,-4.342,-4.2591,-4.2226,-4.2226,-4.1523,-4.1191,-4.1191,0.0,0.0,-4.0793,-4.0742,-4.063,-4.0489,-4.0489,-4.0356,-4.0101,-3.9797,-3.9438,-3.9125,-3.8844,-3.8719,-3.8707,-3.8707,-3.8101,-3.7342,-3.7124,-3.5906,-3.438,-3.3499,-3.2713,-3.1985,-3.136,-3.0699,-3.0038,-2.954,-2.8873,-2.8238,-2.771,-2.7509,-2.7255,-2.651,-2.5728,-2.5007,-2.4292,-2.3543,-2.3078,-2.3078,-2.3078,-2.3078,-2.3078,-2.3078,-2.3078,-2.3078,-2.3078,-2.3078,-2.3078,-2.3078,-2.3078,-2.3078,-2.3017,-2.2944,-2.2944,-2.2823,-2.2689,-2.2628,-2.2628,-2.2404,-2.2092,-2.1274,-2.0935,-2.1042,-2.0217,-2.0117,-3.5739,-3.5622,-3.5656,-3.5791,-3.64,-3.7284,-3.8481,-3.9312,-4.0038,-4.0659,-4.115,-4.1196,-4.0254,-4.0449,-4.0659,-4.0341,-4.0734,-4.1342,-4.1919,-4.2499,-4.3065,0.0,-4.3497,-4.3497,-4.3497,-4.3497,0.0,0.0,0.0,-4.4463,-4.514,-4.5201,-4.4997,-4.4547,-4.4528,-4.418,-4.3427,-4.266,-4.2361,-4.2522,-4.1651,-4.1297,-4.1406,-4.1269,-4.1191,-4.1191,-4.1171,0.0,-4.0793,-4.0796,-4.0668,-4.0489,-4.0489,-4.0473,-4.0389,-4.012,-3.9797,-3.9481,-3.9125,-3.8884,-3.8707,-3.8707,-3.8596,-3.8158,-3.6684,-3.5542,-3.451,-3.2929,-3.1952,-3.136,-3.1224,-3.0393,-2.954,-2.9406,-2.8543,-2.771,-2.7625,-2.7137,-2.6443,-2.5728,-2.5007,-2.4221,-2.3424,-2.3198,-2.3078,-2.3078,-2.3078,-2.3078,-2.3078,-2.3078,-2.3078,-2.3078,-2.3078,-2.3078,-2.3078,-2.3078,-2.3078,-2.3078,-2.2506,-2.2125,-2.2125,-2.1428,-2.0707,-1.9944,-1.9944,-1.9594,-1.8843,-1.8992,-1.9043,-1.9081,-1.9654,-1.9951,-3.6522,-3.6207,-3.6028,-3.6028,-3.6593,-3.7315,-3.7949,-3.9181,-4.0254,-4.0245,-4.1077,-4.1552,-4.0655,-4.0967,-4.1178,-4.0625,-4.1013,-4.149,-4.175,-4.2302,-4.2902,-4.3444,-4.3497,-4.3497,-4.3497,-4.3497,-4.3582,0.0,0.0,-4.4136,-4.5052,-4.4842,-4.4364,-4.3701,-4.3239,-4.2826,-4.2469,-4.1699,-4.1371,-4.1463,-4.1139,-4.1026,-4.1103,-4.1171,-4.1191,-4.1191,-4.1128,0.0,-4.0793,-4.0752,-4.066,-4.0489,-4.0489,-4.0489,-4.0473,-4.0195,-4.0002,-3.9797,-3.9264,-3.9027,-3.881,-3.8254,-3.7875,-3.7461,-3.6346,-3.501,-3.3698,-3.2582,-3.1749,-3.119,-3.119,-3.0293,-2.9406,-2.9406,-2.8496,-2.7509,-2.7086,-2.6774,-2.6176,-2.5063,-2.4509,-2.406,-2.3245,-2.3078,-2.3078,-2.3078,-2.3078,-2.3078,-2.3078,-2.3078,-2.3078,-2.3078,-2.3078,-2.3078,-2.3078,-2.3078,-2.3078,-2.3078,-2.2763,-2.2506,-2.2506,-2.1741,-2.1112,-2.0655,-2.0204,-1.9562,-1.8654,-1.8866,-1.8824,-1.8582,-1.9062,-1.9492,-3.7228,-3.6865,-3.658,-3.658,-3.7015,-3.7526,-3.7766,-3.91,-4.0235,-4.0088,-4.1036,-4.1724,-4.1188,-4.1578,-4.181,-4.1178,-4.1402,-4.1725,-4.1937,-4.2302,-4.2752,-4.341,-4.3497,0.0,-4.3497,-4.3497,0.0,0.0,0.0,0.0,-4.4676,-4.4384,-4.3765,-4.2854,-4.2162,-4.172,-4.1527,-4.0944,-4.0667,-4.0703,-4.087,-4.0964,-4.0996,-4.1149,-4.1191,-4.1191,-4.1082,0.0,0.0,-4.0742,-4.0655,-4.053,-4.0519,-4.0489,-4.0473,-4.025,-4.0101,-3.9922,-3.9389,-3.9014,-3.86,-3.7779,-3.7148,-3.6566,-3.5758,-3.4354,-3.291,-3.223,-3.163,-3.119,-3.119,-3.0293,-2.9316,-2.9088,-2.8304,-2.7458,-2.6878,-2.651,-2.5906,-2.4738,-2.4292,-2.3826,-2.3185,-2.3078,-2.3078,-2.3078,-2.3078,-2.3078,-2.3078,-2.3078,-2.3078,-2.3078,-2.3078,-2.3078,-2.3078,-2.2944,-2.2823,-2.2823,-2.2494,-2.231,-2.231,-2.1479,-2.1037,-2.1037,-2.0398,-1.9694,-1.9044,-1.9044,-1.8826,-1.8506,-1.8523,-1.9053,-3.734,-3.7135,-3.7152,-3.7152,-3.7206,-3.7532,-3.8672,-3.9103,-3.9608,-4.0973,-4.1796,-4.2123,-4.1795,-4.2203,-4.244,-4.181,-4.1296,-4.1358,-4.248,-4.2203,-4.2284,-4.3356,0.0,0.0,-4.3497,-4.3497,0.0,0.0,0.0,0.0,-4.3429,-4.3707,-4.3254,-4.1953,-4.1854,-4.1412,-4.0623,-4.0558,-4.0588,-4.0703,-4.077,-4.0877,-4.0996,-4.1149,-4.1191,-4.1191,-4.1191,0.0,0.0,-4.0843,-4.0752,-4.0667,-4.0545,-4.0489,-4.0489,-4.0473,-4.012,-3.9645,-3.9576,-3.873,-3.7629,-3.7526,-3.7179,-3.6435,-3.4512,-3.3512,-3.2827,-3.1618,-3.1241,-3.119,-3.119,-3.0293,-2.9134,-2.8042,-2.766,-2.7575,-2.7509,-2.6428,-2.5453,-2.5342,-2.415,-2.3198,-2.3138,-2.3078,-2.3078,-2.3078,-2.3078,-2.3078,-2.3078,-2.3078,-2.3078,-2.3078,-2.3078,-2.3078,-2.3078,-2.2445,-2.2002,-2.2002,-2.0526,-1.9617,-1.9617,-1.8854,-1.8327,-1.8327,-1.8269,-1.8202,-1.8144,-1.8144,-1.8095,-1.8076,-1.8457,-1.8887,-3.8168,-3.7861,-3.7614,-3.7614,-3.7614,-3.7756,-3.8256,-3.9,-3.9792,-4.0546,-4.154,-4.23,-4.2318,-4.2808,-4.3014,-4.2422,-4.2386,-4.2505,-4.2693,-4.2752,-4.2977,-4.3444,-4.3497,0.0,0.0,0.0,0.0,0.0,0.0,0.0,-4.1547,-4.1996,-4.1819,-4.0824,-4.0924,-4.0854,-4.0489,-4.0489,-4.0534,-4.0568,-4.0696,-4.0799,-4.0877,-4.1023,-4.1126,-4.1191,-4.1191,0.0,0.0,-4.0857,-4.0771,-4.068,-4.0545,-4.0489,-4.0489,-4.0489,-4.0046,-3.9375,-3.8996,-3.8179,-3.7138,-3.6261,-3.569,-3.5173,-3.4033,-3.3247,-3.2511,-3.1475,-3.119,-3.119,-3.119,-3.0293,-2.9088,-2.7894,-2.7255,-2.6826,-2.6375,-2.5453,-2.461,-2.4105,-2.3531,-2.3078,-2.3078,-2.3078,-2.3078,-2.3078,-2.3078,-2.3078,-2.3078,-2.2702,-2.2384,-2.2384,-2.2823,-2.3078,-2.3078,-2.2823,-2.2445,-2.1939,-2.1239,-2.0655,-2.0074,-1.9243,-1.8787,-1.8787,-1.8269,-1.8008,-1.8008,-1.8008,-1.8008,-1.8018,-1.8184,-1.8486,-3.8707,-3.8415,-3.815,-3.815,-3.815,-3.815,-3.815,-3.8853,-3.9639,-4.0035,-4.1097,-4.2075,-4.2486,-4.3086,-4.3375,-4.3014,-4.3142,-4.3178,-4.2976,-4.3142,-4.3321,-4.3479,0.0,-4.3339,0.0,-4.3277,0.0,0.0,0.0,0.0,0.0,-4.058,-4.0573,-4.012,-4.0356,-4.0489,-4.0489,-4.0489,-4.0489,-4.0504,-4.0636,-4.0742,-4.0801,-4.095,-4.1077,-4.1191,0.0,0.0,0.0,-4.0914,-4.0805,-4.071,-4.059,-4.053,-4.0469,-4.0219,-3.9727,-3.9037,-3.8283,-3.7404,-3.6456,-3.5356,-3.4637,-3.4105,-3.3532,-3.2841,-3.2179,-3.1545,-3.1157,-3.0878,-3.0699,-2.9892,-2.8857,-2.7845,-2.7188,-2.6602,-2.5892,-2.5119,-2.4394,-2.359,-2.3245,-2.3078,-2.3078,-2.3078,-2.3078,-2.3078,-2.3078,-2.3078,-2.3078,-2.2384,-2.1877,-2.1877,-2.2187,-2.2372,-2.2372,-2.2113,-2.1729,-2.1175,-2.091,-2.0462,-1.9879,-1.9233,-1.8921,-1.8921,-1.8337,-1.8008,-1.8008,-1.8008,-1.8008,-1.8008,-1.8008,-1.8301,-3.8707,-3.8707,-3.8707,-3.8707,-3.8707,-3.8707,-3.8707,-3.8707,-3.8946,-3.9735,-4.0561,-4.1368,-4.2176,-4.2965,-4.3497,-4.3479,-4.305,-4.2902,-4.341,-4.305,-4.2902,0.0,0.0,-4.2902,-4.3444,-4.2782,0.0,0.0,0.0,0.0,0.0,-3.9724,-3.9754,-4.0081,-4.0356,-4.0489,-4.0489,-4.0489,-4.0489,-4.0504,-4.0636,-4.0742,-4.0801,-4.095,-4.1077,0.0,0.0,0.0,0.0,-4.1052,-4.092,-4.0785,-4.0721,-4.0623,-4.0392,-3.9604,-3.9095,-3.8632,-3.7518,-3.6423,-3.5454,-3.511,-3.4468,-3.3652,-3.2795,-3.2179,-3.1825,-3.1789,-3.1055,-3.0166,-2.9585,-2.8966,-2.8383,-2.776,-2.7575,-2.7408,-2.6669,-2.5906,-2.5175,-2.4452,-2.3649,-2.3078,-2.3078,-2.3078,-2.3078,-2.3078,-2.3078,-2.3078,-2.3078,-2.2384,-2.1877,-2.1877,-2.1175,-2.0655,-2.0655,-1.9824,-1.9365,-1.9299,-1.8529,-1.8008,-1.8008,-1.8008,-1.8008,-1.8008,-1.8008,-1.8008,-1.8008,-1.8008,-1.8008,-1.8008,-1.8008,-1.8467,-3.8707,-3.8707,-3.8707,-3.8707,-3.8707,-3.8707,-3.8707,-3.8707,-3.8927,-3.9717,-4.0102,-4.0689,-4.2047,-4.2506,-4.2855,-4.3406,-4.3375,0.0,-4.2976,-4.3142,0.0,-4.2976,-4.3142,-4.3084,0.0,0.0,0.0,0.0,0.0,0.0,0.0,-3.9399,-3.9645,-3.9735,-4.0248,-4.0489,-4.0489,-4.0489,-4.0489,-4.0489,-4.0545,-4.0617,-4.0731,-4.0821,0.0,0.0,0.0,0.0,0.0,-4.1052,-4.0964,-4.0855,-4.0102,-3.9789,-3.9631,-3.8739,-3.7963,-3.7258,-3.6538,-3.5708,-3.4877,-3.4341,-3.4009,-3.3707,-3.3136,-3.2648,-3.2144,-3.1545,-3.1157,-3.0699,-2.9673,-2.9271,-2.8857,-2.7845,-2.6811,-2.6054,-2.5783,-2.4724,-2.3754,-2.3543,-2.3245,-2.3078,-2.3078,-2.3078,-2.3078,-2.3078,-2.3078,-2.2884,-2.2384,-2.1553,-2.0782,-2.0204,-1.9365,-1.9309,-2.0526,-2.0333,-1.9944,-1.9365,-1.9044,-1.8586,-1.8008,-1.8008,-1.8008,-1.8008,-1.8008,-1.8008,-1.8008,-1.8008,-1.8008,-1.8008,-1.8008,-1.8467,-3.8719,-3.8707,-3.8707,-3.8707,-3.8707,-3.8707,-3.8707,-3.8707,-3.8836,-3.9331,-3.968,-4.0286,-4.1607,-4.2103,-4.2561,-4.3369,-4.3497,-4.3375,0.0,0.0,0.0,-4.2298,0.0,0.0,0.0,0.0,0.0,0.0,0.0,0.0,0.0,-3.9163,-3.9462,-3.9599,-4.0175,-4.0489,-4.0489,-4.0489,-4.0489,-4.0489,-4.0489,-4.0574,-4.0703,-4.077,0.0,0.0,0.0,0.0,0.0,-4.0754,-4.0561,-4.0403,-3.9369,-3.8956,-3.8794,-3.7866,-3.718,-3.6599,-3.5854,-3.521,-3.4612,-3.4117,-3.3778,-3.3494,-3.3075,-3.2616,-3.2074,-3.1389,-3.1015,-3.0617,-2.9673,-2.9225,-2.881,-2.7845,-2.6707,-2.5728,-2.5453,-2.4439,-2.3484,-2.3138,-2.3078,-2.3078,-2.3078,-2.3078,-2.3078,-2.3078,-2.3078,-2.2823,-2.2002,-2.1175,-2.0268,-1.9365,-1.8529,-1.8462,-1.9562,-1.9628,-1.9365,-1.8854,-1.8787,-1.8596,-1.8008,-1.8008,-1.8008,-1.8008,-1.8008,-1.8008,-1.8008,-1.8008,-1.8008,-1.8008,-1.8008,-1.8467,0.0,-3.8719,-3.8707,-3.8707,-3.8707,-3.8707,-3.8707,-3.8707,0.0,-3.8707,-3.9294,-4.0065,-4.0873,-4.1647,-4.2436,-4.3277,-4.3408,-4.3391,0.0,-4.3389,0.0,0.0,-4.183,0.0,0.0,0.0,0.0,0.0,0.0,0.0,0.0,-3.8961,-3.9238,-3.9534,-4.0138,-4.0473,-4.0489,-4.0489,-4.0489,-4.0489,-4.0489,-4.0574,-4.0692,-4.0703,0.0,0.0,0.0,0.0,0.0,-4.0137,-3.972,-3.9529,-3.8579,-3.813,-3.7904,-3.696,-3.6622,-3.6479,-3.5455,-3.4926,-3.4653,-3.4288,-3.3723,-3.3105,-3.2648,-3.2161,-3.1733,-3.1329,-3.0797,-3.0208,-2.9585,-2.8996,-2.8415,-2.776,-2.6982,-2.6229,-2.5563,-2.4794,-2.4002,-2.3258,-2.3078,-2.3078,-2.3078,-2.3078,-2.3078,-2.3078,-2.3078,-2.2689,-2.1877,-2.1037,-2.0139,-1.9299,-1.8462,-1.8008,-1.8008,-1.8008,-1.8008,-1.8008,-1.8008,-1.8008,-1.8008,-1.8008,-1.8008,-1.8008,-1.8008,-1.8008,-1.8008,-1.8008,-1.8008,-1.8008,-1.794,-1.8397,-3.9288,0.0,-3.8707,-3.8707,-3.8707,-3.8707,0.0,-3.8707,-3.8707,-3.8707,-3.8854,-3.9239,-4.0029,-4.0464,-4.1088,-4.2365,-4.2374,-4.2364,-4.2808,-4.2322,0.0,-4.0673,-4.0655,-4.0383,0.0,0.0,0.0,0.0,0.0,0.0,0.0,-3.8961,-3.9152,-3.9231,-3.9603,-4.0043,-4.0489,-4.0489,-4.0489,-4.0489,-4.0489,-4.0519,-4.054,-4.0092,0.0,0.0,0.0,0.0,-3.9199,-3.8984,-3.8886,-3.8765,-3.7712,-3.7292,-3.7128,-3.6144,-3.5795,-3.5729,-3.5248,-3.4926,-3.4612,-3.4062,-3.3588,-3.3105,-3.2648,-3.2161,-3.1733,-3.1329,-3.1112,-3.074,-2.9673,-2.9271,-2.8904,-2.7845,-2.6602,-2.5618,-2.5453,-2.4323,-2.3305,-2.3138,-2.3078,-2.3078,-2.3078,-2.3078,-2.3078,-2.3078,-2.2567,-2.1877,-2.1037,-2.0139,-1.9299,-1.8395,-1.8144,-1.8008,-1.8008,-1.8008,-1.8008,-1.8008,-1.8008,-1.8008,-1.8008,-1.8008,-1.8008,-1.8008,-1.8008,-1.8008,-1.8008,-1.8008,-1.8008,-1.8008,-1.7285,-1.7364,-3.9634,-3.9476,-3.9091,-3.8923,-3.8865,-3.8855,-3.8719,-3.8707,-3.8707,-3.8707,-3.8707,-3.8946,-3.9753,-3.9795,-4.0167,-4.1632,-4.1274,0.0,0.0,0.0,-4.03,-3.953,-3.9441,0.0,0.0,0.0,0.0,0.0,0.0,0.0,0.0,-3.8844,-3.8804,-3.8558,-3.8721,-3.9104,-3.971,-3.9727,-3.9605,-3.9354,-3.9354,-3.9354,-3.935,-3.9069,-3.8963,0.0,0.0,0.0,-3.8574,-3.8164,-3.8008,-3.789,-3.6891,-3.6462,-3.6331,-3.5753,-3.5534,-3.5479,-3.532,-3.5035,-3.4612,-3.4005,-3.3634,-3.3361,-3.2713,-3.2298,-3.2004,-3.1389,-3.119,-3.0918,-2.9717,-2.9406,-2.9088,-2.7894,-2.6481,-2.5398,-2.5398,-2.4208,-2.3078,-2.3078,-2.3078,-2.3005,-2.2628,-2.2567,-2.2445,-2.199,-2.1604,-2.0974,-2.0139,-1.9562,-1.8977,-1.8076,-1.8008,-1.8008,-1.8008,-1.8008,-1.8008,-1.8008,-1.8008,-1.8008,-1.8008,-1.8008,-1.8008,-1.8008,-1.8008,-1.7794,-1.7364,-1.7364,-1.7148,-1.6733,-1.6325,-1.6439,-3.9929,-3.9922,-3.9599,-3.9264,-3.9099,-3.8999,-3.8803,-3.8719,-3.8707,-3.8707,-3.8707,-3.8909,-3.9588,-3.9325,-3.9428,0.0,0.0,0.0,-3.9292,-3.9372,-3.9089,-3.8192,-3.8104,0.0,0.0,0.0,0.0,0.0,0.0,0.0,0.0,-3.8475,-3.8251,-3.766,-3.7668,-3.7853,-3.8288,-3.8499,-3.8379,-3.7943,-3.7973,-3.8007,-3.7988,-3.8013,-3.8035,0.0,0.0,0.0,-3.8144,-3.7402,-3.7109,-3.7012,-3.6211,-3.5812,-3.5696,-3.5621,-3.555,-3.5493,-3.5417,-3.5088,-3.4612,-3.4005,-3.3762,-3.355,-3.2745,-3.2451,-3.2213,-3.1428,-3.119,-3.0918,-2.9717,-2.9406,-2.9088,-2.7894,-2.6481,-2.5398,-2.5398,-2.4208,-2.3078,-2.3078,-2.3078,-2.2884,-2.2187,-2.2063,-2.1815,-2.091,-2.0719,-2.0268,-1.9431,-1.9177,-1.8854,-1.8076,-1.8008,-1.8008,-1.8008,-1.8008,-1.8008,-1.8008,-1.8008,-1.8008,-1.8008,-1.8008,-1.8008,-1.8008,-1.8008,-1.7579,-1.6784,-1.6636,-1.6245,-1.5468,-1.5414,-1.5616,-4.021,-4.0232,-3.9943,-3.9599,-3.9136,-3.8833,-3.8999,-3.8855,-3.8707,-3.8707,-3.8707,-3.8744,-3.8854,-3.8634,-3.8643,0.0,0.0,-3.9181,0.0,0.0,-3.8135,-3.6841,0.0,0.0,0.0,0.0,0.0,0.0,0.0,0.0,0.0,-3.7442,-3.7323,-3.6554,-3.6536,-3.6387,-3.6002,-3.7203,-3.7734,-3.7672,-3.7894,-3.8007,-3.7969,-3.7382,-3.7133,0.0,0.0,-3.6333,-3.6387,-3.625,-3.6191,-3.6172,-3.5977,-3.5812,-3.5696,-3.5621,-3.555,-3.5432,-3.4981,-3.4754,-3.4612,-3.4005,-3.3578,-3.3196,-3.2648,-3.223,-3.1789,-3.1312,-3.119,-3.0918,-2.9717,-2.9406,-2.9088,-2.7894,-2.6481,-2.5398,-2.5398,-2.4208,-2.3078,-2.3078,-2.3078,-2.3078,-2.2944,-2.2944,-2.2628,-2.1815,-2.1037,-2.0268,-1.9431,-1.8664,-1.8144,-1.8008,-1.8008,-1.8008,-1.8008,-1.8008,-1.8008,-1.8008,-1.8008,-1.8008,-1.8008,-1.8008,-1.8008,-1.8008,-1.8008,-1.794,-1.7794,-1.6991,-1.6677,-1.6659,-1.5168,-1.4713,-4.0277,-4.0285,-4.0042,-3.9901,-3.9402,-3.8923,-3.8884,-3.8773,-3.8707,-3.8707,-3.8707,-3.8707,-3.8707,-3.8339,-3.8005,-3.7686,0.0,-3.7997,-3.6671,-3.6724,-3.6646,0.0,0.0,0.0,0.0,0.0,0.0,0.0,0.0,0.0,0.0,0.0,-3.6468,-3.5624,-3.5605,-3.5285,-3.4578,-3.5555,-3.6121,-3.6247,-3.6535,-3.6661,-3.6642,-3.6299,-3.6187,-3.6229,0.0,-3.5853,-3.5948,-3.5995,-3.5996,-3.5996,-3.5972,-3.589,-3.5791,-3.5639,-3.555,-3.5446,-3.5034,-3.4813,-3.4632,-3.4165,-3.3787,-3.339,-3.2713,-3.235,-3.2039,-3.1389,-3.0975,-3.0518,-2.9629,-2.9134,-2.8575,-2.7327,-2.6162,-2.5287,-2.4908,-2.393,-2.3078,-2.3078,-2.3078,-2.2823,-2.1928,-2.1729,-2.129,-2.0009,-1.9431,-1.9044,-1.8654,-1.8269,-1.8008,-1.8008,-1.8008,-1.8008,-1.8008,-1.8008,-1.8008,-1.8008,-1.8008,-1.8008,-1.8008,-1.8008,-1.7794,-1.7285,-1.7207,-1.6715,-1.5658,-1.5226,-1.4913,-1.468,-1.3975,-1.393,-4.0315,-4.0285,-4.0101,-4.0101,-3.9599,-3.9063,-3.8844,-3.875,-3.8707,-3.8707,-3.8707,-3.8707,-3.8707,-3.8267,0.0,-3.6724,-3.6984,-3.6904,-3.5939,-3.5694,0.0,0.0,0.0,0.0,0.0,0.0,0.0,0.0,0.0,0.0,0.0,0.0,-3.5605,-3.4761,-3.4715,-3.4431,-3.3807,-3.4307,-3.4734,-3.4999,-3.5354,-3.5493,-3.5493,-3.5493,-3.554,-3.5591,-3.5655,-3.5755,-3.5903,-3.597,-3.5995,-3.5996,-3.5996,-3.5951,-3.5888,-3.5666,-3.5574,-3.5476,-3.5187,-3.4926,-3.4653,-3.4311,-3.3949,-3.355,-3.2872,-3.2517,-3.2213,-3.1524,-3.0845,-3.0166,-2.954,-2.9058,-2.84,-2.7071,-2.6054,-2.5231,-2.4681,-2.3767,-2.3078,-2.3078,-2.3078,-2.2628,-2.1164,-2.091,-2.0333,-1.8596,-1.8269,-1.8202,-1.8008,-1.8008,-1.8008,-1.8008,-1.8008,-1.794,-1.7716,-1.7442,-1.7364,-1.7364,-1.7579,-1.7579,-1.7364,-1.7364,-1.701,-1.6289,-1.628,-1.5508,-1.4027,-1.3893,-1.3585,-1.323,-1.3245,-1.3467,-4.0469,-4.0285,-4.0101,-4.0101,-3.9599,-3.908,-3.9072,-3.8884,-3.8707,-3.8707,-3.8707,-3.8707,0.0,-3.8267,-3.772,-3.721,-3.6776,-3.6444,-3.635,0.0,0.0,0.0,0.0,0.0,0.0,0.0,0.0,0.0,0.0,0.0,0.0,0.0,0.0,-3.3917,-3.3899,-3.3862,-3.3807,-3.4093,-3.4401,-3.4753,-3.5239,-3.5493,-3.5493,-3.5493,-3.554,-3.5611,-3.5601,-3.5714,-3.5903,-3.5907,-3.5947,-3.5996,-3.5996,-3.5951,-3.5888,-3.5666,-3.56,-3.5557,-3.5212,-3.4926,-3.4653,-3.4311,-3.3776,-3.3243,-3.3184,-3.2533,-3.1861,-3.1789,-3.1072,-3.0166,-2.954,-2.9361,-2.9042,-2.7795,-2.6428,-2.5398,-2.5342,-2.415,-2.3078,-2.3078,-2.3078,-2.2823,-2.1939,-2.1815,-2.1227,-1.9497,-1.9233,-1.8911,-1.8076,-1.8008,-1.8008,-1.8008,-1.8008,-1.7647,-1.6784,-1.5869,-1.5376,-1.5376,-1.6219,-1.6289,-1.5446,-1.5376,-1.5376,-1.5305,-1.5305,-1.5234,-1.5092,-1.4494,-1.4297,-1.4469,-1.3863,-1.3768,-4.0489,-4.0441,-4.0267,-3.9882,-3.9599,-3.9339,-3.9152,-3.8894,-3.8707,-3.8707,-3.8707,-3.8596,0.0,0.0,-3.8117,-3.734,-3.7038,-3.6764,0.0,0.0,0.0,0.0,0.0,0.0,0.0,0.0,0.0,0.0,0.0,0.0,0.0,0.0,0.0,-3.3437,-3.3437,-3.355,-3.3807,-3.4068,-3.4379,-3.4694,-3.5088,-3.5354,-3.5493,-3.5493,-3.5515,-3.5553,-3.5588,-3.565,-3.5714,-3.5856,-3.5913,-3.5945,-3.5976,-3.5951,-3.5873,-3.5716,-3.5639,-3.5579,-3.5416,-3.5155,-3.4908,-3.4614,-3.42,-3.375,-3.3343,-3.2745,-3.2161,-3.1897,-3.1376,-3.0617,-2.9673,-2.9134,-2.8417,-2.6663,-2.5783,-2.5119,-2.415,-2.3531,-2.3078,-2.3078,-2.3078,-2.2689,-2.129,-2.1101,-2.0526,-1.8721,-1.8462,-1.8395,-1.8008,-1.8008,-1.7794,-1.7217,-1.6576,-1.6088,-1.579,-1.5376,-1.495,-1.4314,-1.5155,-1.5579,-1.5234,-1.5234,-1.4879,-1.4314,-1.4243,-1.4053,-1.3681,-1.3436,-1.3529,-1.3943,-1.375,-1.3374,-4.0489,-4.0441,-4.0302,-3.9964,-3.9735,-3.9576,-3.9438,-3.9045,-3.8707,-3.8707,-3.8578,-3.8382,-3.8183,0.0,0.0,0.0,-3.7433,0.0,0.0,0.0,0.0,0.0,0.0,0.0,0.0,0.0,0.0,0.0,0.0,0.0,0.0,0.0,0.0,0.0,-3.3214,-3.339,-3.3807,-3.3986,-3.4218,-3.4551,-3.4832,-3.5174,-3.5493,-3.5493,-3.5493,-3.5507,-3.5546,-3.5588,-3.5611,-3.5768,-3.5877,-3.5942,-3.5975,-3.5973,-3.5916,-3.5807,-3.5709,-3.5611,-3.555,-3.5296,-3.4944,-3.4754,-3.442,-3.3949,-3.3372,-3.2872,-3.2417,-3.1915,-3.1359,-3.0699,-2.9673,-2.9088,-2.8273,-2.624,-2.5563,-2.5063,-2.3767,-2.3245,-2.3005,-2.2763,-2.2689,-2.2187,-2.0462,-2.0204,-1.9694,-1.8202,-1.8008,-1.8008,-1.8008,-1.8008,-1.7725,-1.7139,-1.5939,-1.5234,-1.5234,-1.4665,-1.4027,-1.331,-1.3882,-1.4307,-1.4307,-1.4307,-1.3947,-1.3237,-1.3237,-1.3107,-1.2822,-1.2846,-1.3153,-1.3566,-1.3309,-1.2853,-4.0489,-4.0304,-4.0158,-4.0441,-4.0043,-3.969,-4.0022,-3.9371,-3.8707,-3.8707,-3.8267,-3.8065,-3.8596,-3.8267,0.0,-3.7893,0.0,0.0,0.0,0.0,0.0,0.0,0.0,0.0,0.0,0.0,0.0,0.0,0.0,0.0,0.0,0.0,0.0,0.0,-3.3184,-3.339,-3.3788,-3.3807,-3.3935,-3.42,-3.4551,-3.4981,-3.5493,-3.5493,-3.5493,-3.5493,-3.5493,-3.554,-3.5601,-3.5667,-3.583,-3.5996,-3.5996,-3.5996,-3.5996,-3.5918,-3.5827,-3.5689,-3.5621,-3.5211,-3.4694,-3.4694,-3.4284,-3.3734,-3.3332,-3.2872,-3.2417,-3.1915,-3.1055,-3.0166,-2.954,-2.9406,-2.8872,-2.6938,-2.596,-2.5175,-2.4452,-2.3649,-2.2884,-2.2063,-2.1877,-2.1365,-1.9628,-1.9299,-1.8977,-1.8144,-1.8008,-1.8008,-1.8008,-1.8008,-1.794,-1.794,-1.6298,-1.5163,-1.5163,-1.3375,-1.2305,-1.2305,-1.2305,-1.2305,-1.2305,-1.2305,-1.2305,-1.2305,-1.2305,-1.2452,-1.2829,-1.3066,-1.336,-1.3572,-1.2728,-1.2328,-4.0489,-4.0441,-4.0356,-4.0251,-4.0081,-3.9922,-3.9775,-3.9333,-3.8952,-3.875,-3.8578,-3.8382,-3.8183,-3.8318,0.0,0.0,0.0,0.0,0.0,0.0,0.0,0.0,0.0,0.0,0.0,0.0,0.0,0.0,0.0,0.0,0.0,0.0,0.0,0.0,-3.255,-3.2903,-3.3361,-3.3652,-3.3935,-3.42,-3.4551,-3.4889,-3.5223,-3.5398,-3.5493,-3.5493,-3.5493,-3.5515,-3.554,-3.5655,-3.5783,-3.5923,-3.5975,-3.5996,-3.5996,-3.5918,-3.5827,-3.5689,-3.5621,-3.5334,-3.4944,-3.4754,-3.442,-3.3975,-3.3372,-3.2872,-3.2417,-3.1915,-3.1376,-3.0699,-2.9673,-2.9009,-2.815,-2.6158,-2.5563,-2.5063,-2.3767,-2.3245,-2.2884,-2.2063,-2.1877,-2.1365,-1.9628,-1.9299,-1.8977,-1.8144,-1.8008,-1.7794,-1.707,-1.6437,-1.5728,-1.5021,-1.3875,-1.3164,-1.3164,-1.2659,-1.2305,-1.2305,-1.2305,-1.2305,-1.2305,-1.2305,-1.2305,-1.2305,-1.2512,-1.2766,-1.3073,-1.3367,-1.3667,-1.3955,-1.3691,-1.2687,-4.0489,-4.0406,-4.0339,-4.0267,-4.0177,-4.0061,-3.984,-3.9457,-3.9044,-3.8894,-3.8585,-3.835,-3.8234,-3.8045,0.0,0.0,0.0,0.0,0.0,0.0,0.0,0.0,0.0,0.0,0.0,0.0,0.0,0.0,0.0,0.0,0.0,0.0,0.0,0.0,-3.2057,-3.2533,-3.3184,-3.3437,-3.3725,-3.4043,-3.4334,-3.4593,-3.4774,-3.527,-3.5493,-3.5493,-3.5493,-3.5528,-3.5546,-3.5655,-3.5772,-3.5907,-3.5974,-3.5996,-3.5996,-3.595,-3.5849,-3.5696,-3.5655,-3.5335,-3.4926,-3.4754,-3.4398,-3.3943,-3.3372,-3.2872,-3.2417,-3.1915,-3.1189,-3.0293,-2.9585,-2.8701,-2.756,-2.5809,-2.5175,-2.461,-2.3365,-2.3078,-2.2884,-2.2063,-2.1616,-2.091,-1.9562,-1.8977,-1.8596,-1.8076,-1.7647,-1.707,-1.614,-1.5517,-1.495,-1.4378,-1.3455,-1.2879,-1.2879,-1.2519,-1.2305,-1.2305,-1.2305,-1.2305,-1.2305,-1.2305,-1.2305,-1.2305,-1.2592,-1.2738,-1.2552,-1.3251,-1.3284,-1.2693,-1.2693,-1.174,-4.0489,-4.0321,-4.0195,-4.0441,-4.0321,-4.0139,-4.0139,-3.9645,-3.9186,-3.9133,0.0,-3.8129,-3.853,-3.759,0.0,0.0,0.0,0.0,0.0,0.0,0.0,0.0,0.0,0.0,0.0,0.0,0.0,0.0,0.0,0.0,0.0,0.0,0.0,-3.1716,-3.1789,-3.223,-3.3154,-3.3184,-3.339,0.0,-3.4068,-3.42,-3.4223,-3.5049,-3.5446,-3.546,-3.5493,-3.5528,-3.56,-3.5659,-3.5766,-3.588,-3.5973,-3.5996,-3.5996,-3.5996,-3.5874,-3.5703,-3.5703,-3.5277,-3.4734,-3.4694,-3.4325,-3.3762,-3.3332,-3.2872,-3.2417,-3.1915,-3.0704,-2.9451,-2.9406,-2.8432,-2.7122,-2.5728,-2.4908,-2.4176,-2.3305,-2.3065,-2.2763,-2.1939,-2.1112,-2.0204,-1.9299,-1.8529,-1.8008,-1.8008,-1.7207,-1.628,-1.5305,-1.5092,-1.5021,-1.495,-1.4099,-1.36,-1.36,-1.2806,-1.2224,-1.215,-1.215,-1.215,-1.2003,-1.2077,-1.215,-1.215,-1.2385,-1.2123,-1.1324,-1.2688,-1.2368,-1.0611,-1.0611,-1.0009,-4.0489,-4.0457,-4.0441,-4.0489,-4.0457,-4.0406,-4.0406,-4.0139,-3.9797,-3.9552,-3.916,-3.8674,-3.8164,-3.7661,0.0,0.0,0.0,0.0,0.0,0.0,0.0,0.0,0.0,0.0,0.0,0.0,0.0,0.0,0.0,0.0,0.0,0.0,0.0,-3.1329,-3.164,-3.2057,-3.2648,-3.3014,-3.339,0.0,-3.4068,-3.42,-3.42,-3.4675,-3.4981,-3.5207,-3.5417,-3.5501,-3.5528,-3.5646,-3.5717,-3.5766,-3.593,-3.5996,-3.5996,-3.5996,-3.5874,-3.5703,-3.5703,-3.5407,-3.4981,-3.4754,-3.4442,-3.4,-3.34,-3.2872,-3.2417,-3.1915,-3.0977,-2.9995,-2.954,-2.7972,-2.6366,-2.5591,-2.5287,-2.4781,-2.3424,-2.2628,-2.1865,-2.1037,-2.0204,-1.9299,-1.8462,-1.8134,-1.8008,-1.8008,-1.7207,-1.628,-1.5305,-1.4522,-1.3738,-1.3018,-1.2732,-1.2592,-1.2592,-1.2445,-1.1996,-1.1162,-1.1087,-1.0789,-0.9976,-1.0714,-1.1087,-1.1087,-1.0768,-1.0455,-1.0267,-1.0931,-1.0995,-1.0611,-1.0611,-1.0009,-4.0596,-4.0545,-4.0489,-4.0489,-4.0489,-4.0489,-4.0489,-4.0101,-3.9675,-3.949,-3.8949,-3.8364,-3.7803,0.0,0.0,0.0,0.0,0.0,0.0,0.0,0.0,0.0,0.0,0.0,0.0,0.0,0.0,0.0,0.0,0.0,0.0,-3.0935,-3.0878,-3.119,-3.1411,-3.1733,-3.2161,-3.2648,-3.3075,-3.3522,-3.3839,-3.3993,-3.4018,-3.4486,-3.4851,-3.5105,-3.5258,-3.5383,-3.5501,-3.5611,-3.5659,-3.5717,-3.589,-3.5973,-3.5996,-3.5996,-3.5874,-3.5703,-3.5703,-3.545,-3.507,-3.4793,-3.4467,-3.4104,-3.3625,-3.3027,-3.2451,-3.2196,-3.106,-2.9805,-2.9496,-2.8163,-2.6672,-2.5659,-2.4838,-2.4092,-2.3245,-2.2445,-2.1753,-2.1302,-2.0204,-1.9177,-1.8721,-1.8269,-1.7872,-1.7432,-1.6507,-1.5579,-1.4593,-1.3593,-1.2806,-1.2378,-1.2305,-1.2305,-1.2305,-1.1848,-1.1391,-1.0858,-1.034,-0.982,-0.9296,-0.9367,-0.9588,-1.004,-0.9953,-0.9614,-0.9055,-1.0139,-1.0005,-0.8965,-0.9488,-0.9144,-4.0718,-4.063,-4.0534,-4.0504,-4.0392,-4.0277,-4.0277,-3.9662,-3.9065,-3.9,-3.834,-3.7646,0.0,0.0,0.0,0.0,0.0,0.0,0.0,0.0,0.0,0.0,0.0,0.0,0.0,0.0,0.0,0.0,0.0,0.0,-3.119,-3.074,-3.0699,-3.119,-3.119,-3.1372,-3.1789,-3.2282,-3.2763,-3.3214,-3.3606,-3.3807,-3.3815,-3.4325,-3.4734,-3.5016,-3.5088,-3.5239,-3.552,-3.5566,-3.5648,-3.5717,-3.5845,-3.5945,-3.5996,-3.5996,-3.5874,-3.5703,-3.5703,-3.5461,-3.5122,-3.4793,-3.4508,-3.4218,-3.3823,-3.3136,-3.2451,-3.2281,-3.0836,-2.9361,-2.9102,-2.8128,-2.6864,-2.5508,-2.4163,-2.3078,-2.3078,-2.2384,-2.169,-2.169,-2.0268,-1.9034,-1.889,-1.824,-1.7432,-1.6498,-1.5579,-1.4665,-1.3818,-1.2879,-1.2305,-1.2305,-1.2305,-1.2305,-1.2305,-1.1539,-1.1013,-1.0783,-0.9895,-0.9221,-0.9074,-0.8089,-0.7931,-0.8765,-0.9166,-0.8891,-0.7922,-0.9294,-0.8965,-0.7139,-0.8101,-0.8017,-4.0796,-4.0722,-4.0649,-4.0534,-3.9969,-3.945,-3.945,-3.8796,-3.8097,0.0,-3.7468,-3.6968,0.0,0.0,0.0,0.0,0.0,0.0,0.0,0.0,0.0,0.0,0.0,0.0,0.0,0.0,0.0,0.0,0.0,0.0,-3.119,-3.1112,-3.1112,-3.119,-3.119,-3.1372,-3.1789,-3.2282,-3.2763,-3.3214,-3.3606,-3.3807,-3.3788,-3.3895,-3.4213,-3.4773,-3.4999,-3.5239,-3.552,-3.5566,-3.5648,-3.5717,-3.5845,-3.5945,-3.5996,-3.5996,-3.5874,-3.5703,-3.5703,-3.5582,-3.5369,-3.4851,-3.4674,-3.4467,-3.3552,-3.2903,-3.2315,-3.1373,-3.0286,-2.9148,-2.7954,-2.6672,-2.5508,-2.4624,-2.3767,-2.3078,-2.3078,-2.1865,-2.0782,-2.0782,-1.9365,-1.792,-1.712,-1.6844,-1.6498,-1.5517,-1.4522,-1.3818,-1.3745,-1.2879,-1.2305,-1.2305,-1.2305,-1.2305,-1.2305,-1.215,-1.1694,-1.0864,-0.9895,-0.8917,-0.8012,-0.7022,-0.6567,-0.6718,-0.6947,-0.7026,-0.6864,-0.7336,-0.7401,-0.7139,-0.7228,-0.7238,-4.0816,-4.0383,-3.9956,-3.9902,-3.9229,-3.8565,-3.8565,-3.7892,-3.7228,-3.7079,-3.6478,0.0,0.0,0.0,0.0,0.0,0.0,0.0,0.0,0.0,0.0,0.0,0.0,0.0,0.0,0.0,0.0,0.0,0.0,-3.0838,-3.119,-3.0878,-3.0838,-3.119,-3.119,-3.1372,-3.1789,-3.2282,-3.284,-3.355,-3.3707,-3.3807,-3.3807,-3.3807,-3.4136,-3.4713,-3.4813,-3.5105,-3.5507,-3.5528,-3.5568,-3.5638,-3.5706,-3.5821,-3.5947,-3.5947,-3.5831,-3.5703,-3.5703,-3.5611,-3.5417,-3.487,-3.4694,-3.4551,-3.376,-3.3045,-3.24,-3.1917,-3.0637,-2.9148,-2.815,-2.6953,-2.5728,-2.4567,-2.4002,-2.3662,-2.3198,-2.1803,-2.0333,-1.9299,-1.8094,-1.707,-1.6636,-1.614,-1.5649,-1.5234,-1.4314,-1.3673,-1.3673,-1.2879,-1.2305,-1.2305,-1.2305,-1.2305,-1.2305,-1.1248,-1.0421,-0.9965,-0.8461,-0.7403,-0.6945,-0.6567,-0.6264,-0.6271,-0.6556,-0.6702,-0.6702,-0.701,-0.7071,-0.7071,-0.7078,-0.7084,-4.0292,-3.9671,-3.9111,-3.9069,-3.8357,-3.768,-3.768,0.0,-3.6411,0.0,0.0,0.0,0.0,0.0,0.0,0.0,0.0,0.0,0.0,0.0,0.0,0.0,0.0,0.0,0.0,0.0,0.0,0.0,0.0,-3.0757,-3.119,-3.0781,-3.074,-3.119,-3.119,-3.1372,-3.1789,-3.2366,-3.3075,-3.3807,-3.3807,-3.3807,-3.3807,-3.3807,-3.4087,-3.4572,-3.4653,-3.4963,-3.5398,-3.546,-3.5553,-3.5611,-3.5611,-3.5714,-3.5903,-3.5903,-3.5818,-3.5703,-3.5703,-3.5611,-3.5432,-3.4963,-3.4773,-3.4551,-3.3802,-3.3051,-3.2417,-3.2039,-3.0711,-2.9194,-2.8278,-2.7157,-2.5906,-2.4624,-2.4118,-2.3695,-2.2677,-2.1479,-2.0074,-1.8337,-1.7432,-1.6784,-1.6358,-1.5649,-1.5021,-1.4522,-1.381,-1.331,-1.331,-1.2732,-1.2305,-1.2305,-1.207,-1.1922,-1.1922,-1.0346,-0.9296,-0.9296,-0.7629,-0.6718,-0.6718,-0.6412,-0.6264,-0.6274,-0.6515,-0.6664,-0.6715,-0.694,-0.6815,-0.6177,-0.6186,-0.6557,-3.8798,-3.8447,-3.8319,-3.8199,-3.7456,-3.6776,0.0,0.0,-3.5565,-3.5565,0.0,0.0,0.0,0.0,0.0,0.0,0.0,0.0,0.0,0.0,0.0,0.0,0.0,0.0,0.0,0.0,0.0,0.0,0.0,-3.1151,-3.119,-3.119,-3.1151,-3.119,-3.119,-3.1372,-3.1789,-3.2713,-3.3361,-3.3807,-3.3807,-3.3807,-3.3807,-3.3807,-3.3961,-3.4246,-3.4551,-3.487,-3.5138,-3.5403,-3.5553,-3.5611,-3.5611,-3.5714,-3.5903,-3.5903,-3.5818,-3.5703,-3.5703,-3.5611,-3.5446,-3.5174,-3.4908,-3.4492,-3.3286,-3.2729,-3.223,-3.0818,-2.9935,-2.9102,-2.7807,-2.6448,-2.5231,-2.4452,-2.3708,-2.2689,-2.1101,-2.0655,-2.0074,-1.8337,-1.794,-1.7364,-1.5587,-1.5234,-1.4593,-1.2732,-1.2445,-1.2372,-1.2372,-1.2305,-1.2305,-1.2305,-1.1465,-1.0864,-1.0864,-0.9895,-0.9296,-0.9296,-0.8313,-0.7706,-0.7706,-0.6795,-0.6338,-0.6264,-0.641,-0.6573,-0.6666,-0.6957,-0.5916,-0.3748,-0.3749,-0.5018,-3.8629,-3.8079,-3.7586,-3.7539,-3.6775,-3.6048,-3.5991,-3.5755,-3.5558,-3.5501,0.0,0.0,0.0,0.0,0.0,0.0,0.0,0.0,0.0,0.0,0.0,0.0,0.0,0.0,0.0,0.0,0.0,0.0,0.0,0.0,-3.119,-3.119,-3.119,-3.119,-3.119,-3.1524,-3.223,-3.3118,-3.3652,-3.3807,-3.3807,-3.3807,-3.3807,-3.3807,-3.3868,-3.3961,-3.4242,-3.4572,-3.4889,-3.532,-3.5407,-3.5302,-3.547,-3.5609,-3.5706,-3.5768,-3.5718,-3.5632,-3.5684,-3.5611,-3.5446,-3.519,-3.4926,-3.4593,-3.3938,-3.3158,-3.2366,-3.1845,-3.0606,-2.9194,-2.8245,-2.6718,-2.5063,-2.3826,-2.2932,-2.2002,-2.0846,-2.059,-2.0074,-1.8337,-1.701,-1.6018,-1.5305,-1.4163,-1.3091,-1.2372,-1.2305,-1.207,-1.1391,-1.1316,-1.1093,-1.0421,-1.0045,-0.982,-0.982,-0.8917,-0.8313,-0.8313,-0.7403,-0.6872,-0.6872,-0.649,-0.6264,-0.6271,-0.6344,-0.6498,-0.6656,-0.5454,-0.522,-0.5752,-0.2689,-0.1704,-3.7812,-3.7257,-3.6762,-3.6762,-3.6231,-3.5689,-3.5638,-3.5639,-3.5621,-3.5546,0.0,0.0,0.0,0.0,0.0,0.0,0.0,0.0,0.0,0.0,0.0,0.0,0.0,0.0,0.0,0.0,0.0,0.0,0.0,0.0,-3.162,-3.1368,-3.119,-3.119,-3.1487,-3.1914,-3.2484,-3.3343,-3.3807,-3.3807,-3.3807,-3.3807,-3.3807,-3.3807,-3.3807,-3.3815,-3.4074,-3.4334,-3.4572,-3.5138,-3.5273,-3.5122,-3.5403,-3.5534,-3.5601,-3.5687,-3.5678,-3.5642,-3.5683,-3.5621,-3.5489,-3.5203,-3.4926,-3.4593,-3.3938,-3.3158,-3.2451,-3.2162,-3.0597,-2.8902,-2.8404,-2.6489,-2.4271,-2.298,-2.2063,-2.1239,-2.0333,-2.0139,-1.9748,-1.8269,-1.6724,-1.5587,-1.5234,-1.3882,-1.2659,-1.2378,-1.1996,-1.1545,-1.0864,-1.049,-1.004,-0.9372,-0.8993,-0.8765,-0.8765,-0.7859,-0.7326,-0.7326,-0.6641,-0.6338,-0.6338,-0.6264,-0.6271,-0.6278,-0.6307,-0.638,-0.6489,-0.3778,-0.3161,-0.4678,-0.1438,-0.0,0.0,0.0,0.0,-3.5903,0.0,0.0,-3.571,0.0,-3.5682,0.0,0.0,0.0,0.0,0.0,0.0,0.0,0.0,0.0,0.0,0.0,0.0,0.0,0.0,0.0,0.0,0.0,0.0,0.0,0.0,-3.2022,-3.2484,-3.1694,-3.123,-3.123,-3.2056,-3.2484,-3.2484,-3.3343,-3.3762,-3.3762,-3.3788,-3.3807,-3.3807,-3.3807,-3.3807,-3.3815,-3.4093,-3.4176,-3.4246,-3.4851,-3.5105,-3.5122,-3.5403,-3.5553,-3.5601,-3.5667,-3.5697,-3.5702,-3.5705,-3.5655,-3.5538,-3.5197,-3.4926,-3.4492,-3.3286,-3.2729,-3.2316,-3.1466,-2.9821,-2.8294,-2.8247,-2.5596,-2.2832,-2.2113,-2.1227,-2.0333,-1.9497,-1.9233,-1.8977,-1.8134,-1.7148,-1.6219,-1.5305,-1.4307,-1.331,-1.2372,-1.1391,-1.0783,-1.0714,-0.9895,-0.9221,-0.9221,-0.8313,-0.7783,-0.7783,-0.6872,-0.6338,-0.6338,-0.6338,-0.6338,-0.6338,-0.6274,-0.6278,-0.6197,-0.6288,-0.6284,-0.6251,-0.215,-0.0088,-0.0,-0.0,-0.0,-3.6074,0.0,0.0,0.0,0.0,0.0,0.0,0.0,0.0,0.0,0.0,0.0,0.0,0.0,0.0,0.0,0.0,0.0,0.0,0.0,0.0,0.0,0.0,0.0,0.0,0.0,0.0,0.0,-3.2937,-3.257,-3.25,-3.2282,-3.1986,-3.1623,-3.2213,-3.235,-3.2004,-3.2903,-3.3361,-3.3361,-3.368,-3.3807,-3.3807,-3.3807,-3.3807,-3.3788,-3.3876,-3.4018,-3.4246,-3.4851,-3.5105,-3.5122,-3.5403,-3.5515,-3.5534,-3.5663,-3.5671,-3.5636,-3.568,-3.5655,-3.5538,-3.5197,-3.4926,-3.4532,-3.3674,-3.2979,-3.2298,-3.1257,-3.0077,-2.867,-2.6732,-2.459,-2.2832,-2.2113,-2.0782,-1.9562,-1.9365,-1.8277,-1.7248,-1.706,-1.5649,-1.445,-1.4171,-1.2705,-1.1527,-1.1236,-1.034,-0.9442,-0.8685,-0.8385,-0.7931,-0.7176,-0.6872,-0.6718,-0.6718,-0.649,-0.6338,-0.6338,-0.6271,-0.6274,-0.6274,-0.6285,-0.5569,-0.3986,-0.5509,-0.6334,-0.628,-0.5142,-0.2946,-0.0,-0.0,-0.0,-3.5996,-3.5996,-3.5996,0.0,0.0,0.0,0.0,-3.5945,0.0,0.0,0.0,0.0,0.0,0.0,0.0,0.0,0.0,0.0,0.0,0.0,0.0,0.0,0.0,0.0,0.0,0.0,0.0,-3.3882,-3.3442,-3.2985,-3.2533,-3.2484,-3.2366,-3.2092,-3.235,-3.2466,-3.24,-3.2952,-3.3273,-3.3447,-3.3522,-3.3652,-3.3807,-3.3807,-3.3807,-3.3807,-3.3807,-3.4037,-3.4423,-3.4793,-3.4999,-3.5122,-3.5403,-3.5493,-3.5528,-3.5646,-3.5655,-3.5606,-3.5685,-3.559,-3.5386,-3.5028,-3.4715,-3.4315,-3.3414,-3.2831,-3.2247,-3.0987,-2.9408,-2.7614,-2.5508,-2.3748,-2.2311,-2.1542,-2.0268,-1.9177,-1.8854,-1.7326,-1.614,-1.6498,-1.5013,-1.3593,-1.3135,-1.1816,-1.064,-1.0265,-0.9291,-0.8466,-0.7859,-0.7403,-0.6949,-0.6338,-0.6338,-0.6338,-0.6338,-0.6338,-0.6264,-0.6268,-0.6274,-0.5879,-0.501,-0.5821,-0.4867,-0.1871,-0.133,-0.1433,-0.2138,-0.1167,-0.043,-0.0,-0.0,-0.0,-3.5996,-3.5996,-3.5996,0.0,0.0,0.0,-3.5996,-3.5996,-3.5976,0.0,0.0,0.0,0.0,0.0,0.0,0.0,0.0,0.0,0.0,0.0,0.0,0.0,0.0,0.0,0.0,-3.5155,-3.4925,-3.4338,-3.3932,-3.3414,-3.2741,-3.2677,-3.2663,-3.2583,-3.2583,-3.2745,-3.3105,-3.3184,-3.3361,-3.3734,-3.3437,-3.3447,-3.3807,-3.3807,-3.3807,-3.3807,-3.3807,-3.4136,-3.4694,-3.4694,-3.4889,-3.5174,-3.5417,-3.5488,-3.5534,-3.5655,-3.566,-3.5611,-3.5685,-3.5485,-3.5144,-3.4813,-3.4467,-3.3988,-3.2867,-3.2484,-3.2178,-3.0542,-2.8136,-2.5791,-2.4469,-2.2955,-2.1553,-2.0655,-1.9814,-1.8911,-1.8056,-1.6446,-1.5438,-1.614,-1.4799,-1.3295,-1.2384,-1.144,-1.0484,-0.9448,-0.8466,-0.7783,-0.7629,-0.6872,-0.6338,-0.6338,-0.6338,-0.6338,-0.6264,-0.6264,-0.6268,-0.6281,-0.6285,-0.541,-0.3519,-0.4401,-0.3137,0.0623,0.4399,0.5562,0.394,0.5768,0.4681,0.0808,0.0537,0.0358,-3.5996,-3.5996,0.0,0.0,0.0,0.0,-3.5996,-3.5996,-3.5996,0.0,0.0,0.0,0.0,0.0,0.0,0.0,0.0,0.0,0.0,0.0,0.0,0.0,0.0,0.0,0.0,-3.5457,-3.527,-3.4944,-3.4656,-3.4297,-3.3894,-3.3869,-3.3606,-3.3075,-3.3075,-3.2921,-3.2648,-3.3014,-3.3243,-3.3302,-3.355,-3.3734,-3.3807,-3.3807,-3.3807,-3.3807,-3.3807,-3.4136,-3.4694,-3.4694,-3.4981,-3.5432,-3.5479,-3.5528,-3.559,-3.5659,-3.5689,-3.5684,-3.5705,-3.5485,-3.5144,-3.4813,-3.4467,-3.3988,-3.2867,-3.2484,-3.1969,-2.9403,-2.6748,-2.4456,-2.3487,-2.2053,-2.0655,-1.9748,-1.8921,-1.7988,-1.706,-1.6009,-1.5021,-1.4378,-1.3382,-1.2512,-1.2285,-1.1465,-1.0484,-0.9448,-0.8466,-0.748,-0.6718,-0.6416,-0.6338,-0.6338,-0.6338,-0.6264,-0.6274,-0.6274,-0.6281,-0.6291,-0.6308,-0.6081,-0.568,0.047,0.4254,0.504,0.5908,0.6205,0.6068,0.4879,0.4812,0.5654,0.3753,0.2857,-3.5996,0.0,0.0,-3.5996,0.0,0.0,0.0,-3.5996,-3.5996,-3.5996,-3.5996,0.0,0.0,0.0,0.0,0.0,0.0,0.0,0.0,0.0,0.0,0.0,0.0,0.0,0.0,-3.5566,-3.5424,-3.5122,-3.4832,-3.4551,-3.42,-3.4018,-3.3784,-3.3522,-3.3302,-3.3166,-3.3148,-3.3166,-3.3302,-3.3494,-3.3494,-3.3606,-3.3807,-3.3807,-3.3807,-3.3807,-3.3935,-3.426,-3.4694,-3.4832,-3.5138,-3.5493,-3.5493,-3.5534,-3.5601,-3.5687,-3.5672,-3.565,-3.5688,-3.5372,-3.4918,-3.4736,-3.4246,-3.3543,-3.2741,-3.1507,-3.0063,-2.831,-2.6126,-2.4092,-2.3251,-2.2115,-2.091,-1.9617,-1.8977,-1.824,-1.6913,-1.586,-1.4728,-1.3273,-1.2191,-1.1545,-1.1545,-1.0714,-0.9744,-0.8689,-0.7706,-0.6872,-0.6338,-0.6338,-0.6338,-0.6338,-0.6268,-0.6271,-0.6278,-0.5323,-0.5174,-0.623,-0.4316,-0.2665,-0.1649,0.2431,0.5193,0.6302,0.6288,0.6427,0.6725,0.5681,0.5815,0.7101,0.5911,0.5366,0.0,0.0,0.0,0.0,0.0,-3.5996,0.0,0.0,0.0,-3.5976,0.0,0.0,0.0,0.0,0.0,0.0,0.0,0.0,0.0,0.0,0.0,0.0,0.0,0.0,0.0,-3.5611,-3.5492,-3.5212,-3.498,-3.4715,-3.4383,-3.4024,-3.3843,-3.3876,-3.3504,-3.3465,-3.3807,-3.3494,-3.3494,-3.3807,-3.3465,-3.3494,-3.3807,-3.3807,-3.3807,-3.3815,-3.4074,-3.4379,-3.4714,-3.4981,-3.5273,-3.5493,-3.5493,-3.5546,-3.5621,-3.5677,-3.5654,-3.5626,-3.5671,-3.5258,-3.4694,-3.4694,-3.3882,-3.2787,-3.2331,-3.0285,-2.7975,-2.7365,-2.5793,-2.4034,-2.2832,-2.2077,-2.1164,-1.9212,-1.8757,-1.8267,-1.6419,-1.5288,-1.406,-1.2304,-1.1143,-1.049,-1.049,-0.982,-0.8993,-0.7936,-0.7099,-0.649,-0.6338,-0.6264,-0.6264,-0.6264,-0.6274,-0.6285,-0.6288,-0.4701,-0.3761,-0.3851,-0.0703,0.1955,0.362,0.368,0.4535,0.6278,0.6268,0.6407,0.6702,0.6702,0.6865,0.7091,0.7084,0.7084,0.0,0.0,0.0,0.0,-3.5996,0.0,0.0,0.0,-3.5976,-3.5916,0.0,0.0,0.0,0.0,0.0,0.0,0.0,0.0,0.0,0.0,0.0,0.0,0.0,0.0,0.0,0.0,-3.5581,-3.5549,-3.547,-3.5289,-3.5016,-3.4735,-3.4445,-3.4152,-3.3884,-3.3734,-3.3807,-3.3734,-3.3734,-3.3807,-3.3734,-3.3762,-3.3807,-3.3807,-3.3807,-3.3815,-3.4074,-3.4379,-3.4714,-3.4981,-3.5273,-3.5493,-3.5493,-3.5577,-3.5684,-3.5636,-3.5644,-3.5691,-3.5639,-3.5206,-3.4694,-3.4694,-3.3378,-3.1671,-3.121,-2.9431,-2.733,-2.6622,-2.5411,-2.3787,-2.1455,-2.0835,-2.0117,-1.7512,-1.6904,-1.6349,-1.445,-1.3273,-1.2231,-1.1149,-1.0115,-0.9448,-0.9448,-0.9372,-0.8993,-0.7936,-0.7706,-0.7326,-0.6416,-0.6271,-0.6278,-0.6278,-0.6288,-0.6302,-0.6322,-0.6084,-0.2824,0.4408,0.5286,0.5674,0.5902,0.5967,0.6038,0.6278,0.6268,0.6407,0.6702,0.6702,0.6854,0.7058,0.7058,0.7058,0.0,0.0,0.0,0.0,0.0,0.0,-3.5948,0.0,-3.5916,0.0,0.0,0.0,0.0,0.0,0.0,0.0,0.0,0.0,0.0,0.0,0.0,0.0,0.0,0.0,0.0,0.0,0.0,0.0,0.0,-3.5451,-3.5162,-3.5011,-3.4715,-3.42,-3.4074,-3.3961,-3.3788,-3.3807,-3.3807,-3.3807,-3.3807,-3.3807,-3.3807,-3.3807,-3.3876,-3.4043,-3.4375,-3.4655,-3.4944,-3.5223,-3.5416,-3.555,-3.555,-3.5621,-3.5704,-3.5662,-3.5671,-3.5689,-3.5621,-3.5211,-3.4513,-3.3287,-3.2296,-3.1364,-2.9927,-2.8199,-2.6651,-2.5955,-2.4741,-2.316,-2.1089,-2.059,-1.9922,-1.7239,-1.6636,-1.5913,-1.3411,-1.2531,-1.1563,-0.9432,-0.8689,-0.8237,-0.7629,-0.8012,-0.8313,-0.7859,-0.7334,-0.6806,-0.6349,-0.6281,-0.5808,-0.4538,-0.5581,-0.6318,-0.6329,-0.1803,0.2511,0.6087,0.6318,0.6298,0.6278,0.6278,0.6274,0.6268,0.6264,0.6407,0.6702,0.6702,0.6851,0.7139,0.7139,0.7492,-3.5996,0.0,0.0,0.0,0.0,0.0,0.0,0.0,0.0,0.0,0.0,0.0,0.0,0.0,0.0,0.0,0.0,0.0,0.0,0.0,0.0,0.0,0.0,0.0,0.0,0.0,0.0,0.0,0.0,0.0,-3.5316,-3.5174,-3.4907,-3.4449,-3.4292,-3.4099,-3.3928,-3.3842,-3.3807,-3.3807,-3.3807,-3.3807,-3.3788,-3.3876,-3.4018,-3.4223,-3.4634,-3.4926,-3.5122,-3.5402,-3.557,-3.5621,-3.5668,-3.5696,-3.5704,-3.5683,-3.5689,-3.5682,-3.551,-3.5002,-3.4083,-3.2051,-3.1165,-3.0521,-2.8732,-2.7208,-2.5941,-2.5259,-2.4137,-2.2713,-2.1026,-2.0246,-1.9149,-1.6435,-1.5607,-1.468,-1.2004,-1.1199,-1.0387,-0.8318,-0.7642,-0.718,-0.6423,-0.688,-0.7411,-0.7411,-0.6732,-0.6122,-0.5485,-0.5973,-0.5743,-0.4153,-0.3295,-0.2827,-0.2826,0.2747,0.6325,0.6315,0.6298,0.6278,0.6338,0.6271,0.6271,0.6338,0.6338,0.6407,0.6702,0.6702,0.702,0.7577,0.7577,0.8105,0.0,0.0,0.0,-3.5996,0.0,0.0,0.0,0.0,-3.5682,0.0,0.0,0.0,0.0,0.0,-3.5488,-3.552,0.0,0.0,0.0,0.0,0.0,0.0,0.0,0.0,0.0,0.0,0.0,0.0,0.0,0.0,-3.5572,-3.5288,-3.5088,-3.5088,-3.4492,-3.4218,-3.4195,-3.391,-3.3807,-3.3807,-3.3807,-3.3807,-3.3807,-3.4068,-3.4176,-3.4223,-3.4832,-3.5088,-3.5138,-3.5456,-3.56,-3.5611,-3.5811,-3.5806,-3.5684,-3.5625,-3.5636,-3.5648,-3.5244,-3.4478,-3.3341,-3.151,-3.0013,-2.878,-2.7765,-2.6515,-2.5287,-2.4509,-2.3702,-2.2639,-2.1014,-1.9291,-1.7281,-1.4395,-1.2998,-1.179,-0.9814,-0.8613,-0.8016,-0.8205,-0.7204,-0.6359,-0.6291,-0.6362,-0.6352,-0.6352,-0.6288,-0.5575,-0.3437,-0.5031,-0.6247,-0.6169,0.102,0.5858,0.5927,0.6169,0.6315,0.6281,0.6268,0.6338,0.6338,0.6338,0.6338,0.6338,0.6338,0.6407,0.6702,0.6702,0.744,0.8803,0.8803,0.889,0.0,0.0,-3.5996,-3.5996,0.0,0.0,0.0,0.0,0.0,0.0,0.0,0.0,0.0,0.0,-3.5493,-3.5493,-3.5493,0.0,0.0,0.0,0.0,0.0,0.0,0.0,0.0,0.0,0.0,0.0,-3.5702,0.0,0.0,-3.551,-3.5325,-3.5105,-3.4907,-3.4715,-3.4529,-3.4218,-3.4068,-3.4068,-3.3876,-3.3902,-3.4068,-3.4171,-3.4427,-3.4813,-3.5016,-3.5207,-3.5383,-3.5523,-3.5621,-3.5687,-3.5836,-3.5875,-3.5821,-3.5714,-3.5651,-3.5514,-3.4679,-3.4027,-3.3174,-3.0426,-2.9281,-2.8555,-2.6674,-2.5024,-2.3781,-2.35,-2.2469,-2.0882,-1.8441,-1.735,-1.6033,-1.2514,-1.1458,-1.0742,-0.9013,-0.8349,-0.7893,-0.7138,-0.5479,-0.4144,-0.4146,-0.5344,-0.5824,-0.4382,-0.5425,-0.6074,-0.5277,-0.094,0.2042,0.2038,0.457,0.5764,0.4314,0.55,0.6288,0.6268,0.6264,0.6338,0.6338,0.6338,0.6338,0.6338,0.6352,0.6502,0.6702,0.7628,0.8304,0.8978,1.0438,1.1123,-3.5996,-3.5996,0.0,-3.5996,-3.5948,0.0,-3.5723,0.0,0.0,0.0,0.0,0.0,0.0,0.0,0.0,-3.5493,-3.5493,-3.5432,0.0,-3.507,0.0,0.0,0.0,0.0,0.0,0.0,-3.5671,-3.5827,0.0,0.0,0.0,0.0,-3.5504,-3.5283,-3.5168,-3.5016,-3.4832,-3.4532,-3.4379,-3.4379,-3.4068,-3.4093,-3.4379,-3.4379,-3.4636,-3.5105,-3.5228,-3.5378,-3.5534,-3.565,-3.5735,-3.5777,-3.5864,-3.5873,-3.5812,-3.5723,-3.5591,-3.5262,-3.4145,-3.3563,-3.2918,-3.0256,-2.8889,-2.7905,-2.5866,-2.4019,-2.2542,-2.2213,-2.0658,-1.867,-1.6847,-1.5375,-1.3678,-1.0837,-0.9996,-0.9432,-0.7889,-0.6953,-0.6412,-0.6298,-0.5188,-0.3287,-0.0312,-0.0939,-0.2352,-0.3997,-0.4164,-0.3538,-0.2038,0.2907,0.6012,0.5277,0.5836,0.5746,0.438,0.5479,0.6271,0.6338,0.6338,0.6338,0.6338,0.6338,0.6285,0.6335,0.6817,0.7219,0.7442,0.8711,0.9549,1.0178,1.1638,1.2504]},{"header":{"parameterUnit":"m.s-1","parameterCategory":1,"la1":30.6,"la2":29.2853,"lo1":-89.7004,"lo2":-87.6739,"dy":0.0162,"dx":0.0183,"nx":112,"ny":82,"refTime":"2024-05-15T06:00:00:Z","depth":0,"parameterNumber":3,"parameterNumberName":"V-component_of_WINDS"},"data":[0.0,0.0,0.0,0.0,0.0,0.0,0.0,0.0,0.0,0.0,0.0,0.0,0.0,0.0,0.0,0.0,0.0,0.0,0.0,0.0,0.0,0.0,0.0,0.0,0.0,0.0,0.0,0.0,0.0,0.0,0.0,0.0,0.0,0.0,0.0,0.0,0.0,0.0,0.0,0.0,0.0,0.0,0.0,0.0,0.0,0.0,0.0,0.0,0.0,0.0,0.0,0.0,0.0,0.0,0.0,0.0,0.0,0.0,0.0,0.0,0.0,0.0,0.0,0.0,0.0,0.0,0.0,0.0,0.0,0.0,0.0,0.0,0.0,0.0,0.0,0.0,0.0,0.0,0.0,0.0,0.0,0.0,0.0,0.0,0.0,0.0,0.0,0.0,0.0,0.0,-2.2027,-2.2027,-2.1155,-2.1011,-2.1886,-2.2103,-2.2925,-2.4636,0.0,0.0,0.0,0.0,0.0,0.0,0.0,0.0,0.0,0.0,0.0,0.0,0.0,0.0,0.0,0.0,0.0,0.0,0.0,0.0,0.0,0.0,0.0,0.0,0.0,0.0,0.0,0.0,0.0,0.0,0.0,0.0,0.0,0.0,0.0,0.0,0.0,0.0,0.0,0.0,0.0,0.0,0.0,0.0,0.0,0.0,0.0,0.0,0.0,0.0,0.0,0.0,0.0,0.0,0.0,0.0,0.0,0.0,0.0,0.0,0.0,0.0,0.0,0.0,0.0,0.0,0.0,0.0,0.0,0.0,0.0,0.0,0.0,0.0,0.0,0.0,0.0,0.0,0.0,0.0,0.0,0.0,0.0,0.0,0.0,0.0,0.0,0.0,0.0,0.0,0.0,0.0,0.0,0.0,0.0,0.0,0.0,0.0,0.0,0.0,0.0,0.0,0.0,0.0,-2.2027,-2.2027,-2.1155,-2.1011,-2.1886,-2.2776,-2.3368,-2.3745,0.0,0.0,0.0,0.0,0.0,0.0,0.0,0.0,0.0,0.0,0.0,0.0,0.0,0.0,0.0,0.0,0.0,0.0,0.0,0.0,0.0,0.0,0.0,0.0,0.0,0.0,0.0,0.0,0.0,0.0,0.0,0.0,0.0,0.0,0.0,0.0,0.0,0.0,0.0,0.0,0.0,0.0,0.0,0.0,0.0,0.0,0.0,0.0,0.0,0.0,0.0,0.0,0.0,0.0,0.0,0.0,0.0,0.0,0.0,0.0,0.0,0.0,0.0,0.0,0.0,0.0,0.0,0.0,0.0,0.0,0.0,0.0,0.0,0.0,0.0,0.0,0.0,0.0,0.0,0.0,0.0,0.0,0.0,0.0,0.0,0.0,0.0,0.0,0.0,0.0,0.0,0.0,0.0,0.0,0.0,0.0,0.0,0.0,0.0,0.0,0.0,0.0,0.0,-2.2188,-2.2627,-2.2027,-2.2113,-2.2563,-2.3514,-2.4036,-2.4552,-2.5063,-2.5581,0.0,0.0,0.0,0.0,0.0,0.0,0.0,0.0,0.0,0.0,0.0,0.0,0.0,0.0,0.0,0.0,0.0,0.0,0.0,0.0,0.0,0.0,0.0,0.0,0.0,0.0,0.0,0.0,0.0,0.0,0.0,0.0,0.0,0.0,0.0,0.0,0.0,0.0,0.0,0.0,0.0,0.0,0.0,0.0,0.0,0.0,0.0,0.0,0.0,0.0,0.0,0.0,0.0,0.0,0.0,0.0,0.0,0.0,0.0,0.0,0.0,0.0,0.0,0.0,0.0,0.0,0.0,0.0,0.0,0.0,0.0,0.0,0.0,0.0,0.0,0.0,0.0,0.0,0.0,0.0,0.0,0.0,0.0,0.0,0.0,0.0,0.0,0.0,0.0,0.0,0.0,0.0,0.0,0.0,0.0,0.0,0.0,0.0,0.0,0.0,0.0,0.0,-2.2787,-2.3588,-2.2776,-2.3147,-2.3891,-2.4933,-2.5004,-2.5441,-2.6465,-2.6533,0.0,0.0,0.0,0.0,0.0,0.0,0.0,0.0,0.0,0.0,0.0,0.0,0.0,0.0,0.0,0.0,0.0,0.0,0.0,0.0,0.0,0.0,0.0,0.0,0.0,0.0,0.0,0.0,0.0,0.0,0.0,0.0,0.0,0.0,0.0,0.0,0.0,0.0,0.0,0.0,0.0,0.0,0.0,0.0,0.0,0.0,0.0,0.0,0.0,0.0,0.0,0.0,0.0,0.0,0.0,0.0,0.0,0.0,0.0,0.0,0.0,0.0,0.0,0.0,0.0,0.0,0.0,0.0,0.0,0.0,0.0,0.0,0.0,0.0,0.0,0.0,0.0,0.0,0.0,0.0,0.0,0.0,0.0,0.0,0.0,0.0,0.0,0.0,0.0,0.0,0.0,0.0,0.0,0.0,0.0,0.0,0.0,0.0,0.0,0.0,0.0,0.0,-2.4264,-2.4862,-2.4791,-2.4047,-2.3891,-2.4933,-2.5004,-2.5441,-2.6465,-2.6533,0.0,0.0,0.0,0.0,0.0,0.0,0.0,0.0,0.0,0.0,0.0,0.0,0.0,0.0,0.0,0.0,0.0,0.0,0.0,0.0,0.0,0.0,0.0,0.0,0.0,0.0,0.0,0.0,0.0,0.0,0.0,0.0,0.0,0.0,0.0,0.0,0.0,0.0,0.0,0.0,0.0,0.0,0.0,0.0,0.0,0.0,0.0,0.0,0.0,0.0,0.0,0.0,0.0,0.0,0.0,0.0,0.0,0.0,0.0,0.0,0.0,0.0,0.0,0.0,0.0,0.0,0.0,0.0,0.0,0.0,0.0,0.0,0.0,0.0,0.0,0.0,0.0,0.0,0.0,0.0,0.0,0.0,0.0,0.0,0.0,0.0,0.0,0.0,0.0,0.0,0.0,0.0,0.0,0.0,0.0,0.0,0.0,0.0,0.0,0.0,0.0,0.0,-2.4409,-2.5004,0.0,-2.5217,-2.5499,-2.5873,-2.5955,-2.6094,-2.6465,0.0,0.0,0.0,0.0,0.0,0.0,0.0,0.0,0.0,0.0,0.0,0.0,0.0,0.0,0.0,0.0,0.0,0.0,0.0,0.0,0.0,0.0,0.0,0.0,0.0,0.0,0.0,0.0,0.0,0.0,0.0,0.0,0.0,0.0,0.0,0.0,0.0,0.0,0.0,0.0,0.0,0.0,0.0,0.0,0.0,0.0,0.0,0.0,0.0,0.0,0.0,0.0,0.0,0.0,0.0,0.0,0.0,0.0,0.0,0.0,0.0,0.0,0.0,0.0,0.0,0.0,0.0,0.0,0.0,0.0,0.0,0.0,0.0,0.0,0.0,0.0,0.0,0.0,0.0,0.0,0.0,0.0,0.0,0.0,0.0,0.0,0.0,0.0,0.0,0.0,0.0,0.0,0.0,0.0,0.0,0.0,0.0,0.0,0.0,0.0,0.0,0.0,-2.3891,-2.485,-2.5441,0.0,-2.6094,-2.6533,-2.6533,-2.6533,-2.6533,-2.6533,0.0,0.0,0.0,0.0,0.0,0.0,0.0,0.0,0.0,0.0,0.0,0.0,0.0,0.0,0.0,0.0,0.0,0.0,0.0,0.0,0.0,0.0,0.0,0.0,0.0,0.0,0.0,0.0,0.0,0.0,0.0,0.0,0.0,0.0,0.0,0.0,0.0,0.0,0.0,0.0,0.0,0.0,0.0,0.0,0.0,0.0,0.0,0.0,0.0,0.0,0.0,0.0,0.0,0.0,0.0,0.0,0.0,0.0,0.0,0.0,0.0,0.0,0.0,0.0,0.0,0.0,0.0,0.0,0.0,0.0,0.0,0.0,0.0,0.0,0.0,0.0,0.0,0.0,0.0,0.0,0.0,0.0,0.0,0.0,0.0,0.0,0.0,0.0,0.0,0.0,0.0,0.0,0.0,0.0,0.0,0.0,0.0,0.0,0.0,0.0,0.0,0.0,-2.5004,-2.5886,-2.6533,-2.6533,-2.6533,-2.6533,-2.6533,-2.6533,-2.6533,0.0,0.0,0.0,0.0,0.0,0.0,0.0,0.0,0.0,0.0,0.0,0.0,0.0,0.0,0.0,0.0,0.0,0.0,0.0,0.0,0.0,0.0,0.0,0.0,0.0,0.0,0.0,0.0,0.0,0.0,0.0,0.0,0.0,0.0,0.0,0.0,0.0,0.0,0.0,0.0,0.0,0.0,0.0,0.0,0.0,0.0,0.0,0.0,0.0,0.0,0.0,0.0,0.0,0.0,0.0,0.0,0.0,0.0,0.0,0.0,0.0,0.0,0.0,0.0,0.0,0.0,0.0,0.0,0.0,0.0,0.0,0.0,0.0,0.0,0.0,0.0,0.0,0.0,0.0,0.0,0.0,0.0,0.0,0.0,0.0,0.0,0.0,0.0,0.0,0.0,0.0,0.0,0.0,0.0,0.0,0.0,0.0,0.0,0.0,0.0,0.0,0.0,0.0,-2.4933,-2.5886,-2.6533,-2.6533,-2.6533,-2.6533,-2.6533,-2.6533,-2.6533,-2.6533,0.0,0.0,0.0,0.0,0.0,0.0,0.0,0.0,0.0,0.0,0.0,0.0,0.0,0.0,0.0,0.0,0.0,0.0,0.0,0.0,0.0,0.0,0.0,0.0,0.0,0.0,0.0,0.0,0.0,0.0,0.0,0.0,0.0,0.0,0.0,0.0,0.0,0.0,0.0,0.0,0.0,0.0,0.0,0.0,0.0,0.0,0.0,0.0,0.0,0.0,0.0,0.0,0.0,0.0,0.0,0.0,0.0,0.0,0.0,0.0,0.0,0.0,0.0,0.0,0.0,0.0,0.0,0.0,0.0,0.0,0.0,0.0,0.0,0.0,0.0,0.0,0.0,0.0,0.0,0.0,0.0,0.0,0.0,0.0,0.0,0.0,0.0,0.0,0.0,0.0,0.0,0.0,0.0,0.0,0.0,0.0,0.0,0.0,0.0,0.0,0.0,0.0,-2.5441,-2.6094,-2.6533,-2.6533,-2.6533,-2.6533,-2.6533,-2.6533,-2.6533,-2.6533,0.0,0.0,0.0,0.0,0.0,0.0,0.0,0.0,0.0,0.0,0.0,0.0,0.0,0.0,0.0,0.0,0.0,0.0,0.0,0.0,0.0,0.0,0.0,0.0,0.0,0.0,0.0,0.0,0.0,0.0,0.0,0.0,0.0,0.0,0.0,0.0,0.0,0.0,0.0,0.0,0.0,0.0,0.0,0.0,0.0,0.0,0.0,0.0,0.0,0.0,0.0,0.0,0.0,0.0,0.0,0.0,0.0,0.0,0.0,0.0,0.0,0.0,0.0,0.0,0.0,0.0,0.0,0.0,0.0,0.0,0.0,0.0,0.0,0.0,0.0,0.0,0.0,0.0,0.0,0.0,0.0,0.0,0.0,0.0,0.0,0.0,0.0,0.0,0.0,0.0,0.0,0.0,0.0,0.0,0.0,0.0,0.0,0.0,0.0,0.0,0.0,0.0,-2.6245,-2.6452,-2.6533,-2.6533,-2.6533,-2.6533,-2.6533,-2.6533,-2.6508,-2.6445,0.0,0.0,0.0,0.0,0.0,0.0,0.0,0.0,0.0,0.0,0.0,0.0,0.0,0.0,0.0,0.0,0.0,0.0,0.0,0.0,0.0,0.0,0.0,0.0,0.0,0.0,0.0,0.0,0.0,0.0,0.0,0.0,0.0,0.0,0.0,0.0,0.0,0.0,0.0,0.0,0.0,0.0,0.0,0.0,0.0,0.0,0.0,0.0,0.0,0.0,0.0,0.0,0.0,0.0,0.0,0.0,0.0,0.0,0.0,0.0,-0.8038,0.0,0.0,0.0,0.0,0.0,0.0,0.0,0.0,0.0,0.0,0.0,0.0,0.0,0.0,0.0,0.0,0.0,0.0,0.0,0.0,0.0,0.0,0.0,0.0,0.0,0.0,0.0,0.0,0.0,0.0,0.0,0.0,0.0,0.0,0.0,0.0,0.0,0.0,0.0,0.0,0.0,-2.5217,-2.6025,-2.6533,-2.6533,-2.6533,-2.6533,-2.6533,-2.6533,-2.6332,-2.5812,-2.6336,0.0,0.0,0.0,0.0,0.0,0.0,0.0,0.0,0.0,0.0,0.0,0.0,0.0,0.0,0.0,0.0,0.0,0.0,0.0,0.0,0.0,0.0,0.0,0.0,0.0,0.0,0.0,0.0,0.0,0.0,0.0,0.0,0.0,0.0,0.0,0.0,0.0,0.0,0.0,0.0,0.0,0.0,0.0,0.0,0.0,0.0,0.0,0.0,0.0,0.0,0.0,0.0,0.0,0.0,0.0,0.0,0.0,0.0,0.0,0.0,-0.7997,0.0,0.0,0.0,0.0,0.0,0.0,0.0,0.0,0.0,0.0,0.0,0.0,0.0,0.0,0.0,0.0,0.0,0.0,0.0,0.0,0.0,0.0,0.0,0.0,0.0,0.0,0.0,0.0,0.0,0.0,0.0,0.0,0.0,0.0,0.0,0.0,0.0,0.0,0.0,0.0,-2.5557,-2.6176,-2.6533,-2.6533,-2.6533,-2.6533,-2.6533,-2.6533,-2.6405,-2.6127,-2.6562,0.0,0.0,0.0,0.0,0.0,0.0,0.0,0.0,0.0,0.0,0.0,0.0,0.0,0.0,0.0,0.0,0.0,0.0,0.0,0.0,0.0,0.0,0.0,0.0,0.0,0.0,0.0,0.0,0.0,0.0,0.0,0.0,0.0,0.0,0.0,0.0,0.0,0.0,0.0,0.0,0.0,0.0,0.0,0.0,0.0,0.0,0.0,0.0,0.0,0.0,0.0,0.0,0.0,-0.7135,-0.7736,-0.8038,-0.8038,-0.797,-0.7858,-0.7984,-0.794,-0.788,0.0,0.0,0.0,0.0,0.0,0.0,0.0,0.0,0.0,0.0,0.0,0.0,0.0,0.0,0.0,0.0,0.0,0.0,0.0,0.0,0.0,0.0,0.0,0.0,0.0,-2.0566,-2.0566,0.0,0.0,0.0,0.0,0.0,0.0,0.0,0.0,0.0,0.0,0.0,0.0,-2.6321,-2.6533,-2.6533,-2.6533,-2.6533,-2.6533,-2.6533,-2.6533,-2.6489,-2.6362,-2.6775,-2.673,0.0,0.0,0.0,0.0,0.0,0.0,0.0,0.0,0.0,0.0,0.0,0.0,0.0,0.0,0.0,0.0,0.0,0.0,0.0,0.0,0.0,0.0,0.0,0.0,0.0,0.0,0.0,0.0,0.0,0.0,0.0,0.0,0.3515,0.2113,0.0,0.0,0.0,0.0,0.0,0.0,0.0,0.0,0.0,0.0,0.0,0.0,0.0,-0.2314,-0.2314,-0.3616,-0.482,-0.6029,-0.6129,-0.6833,-0.8038,-0.8038,-0.8028,-0.8011,-0.8031,0.0,-0.7722,-0.9035,0.0,0.0,0.0,0.0,0.0,0.0,0.0,0.0,0.0,0.0,0.0,0.0,0.0,0.0,0.0,0.0,0.0,0.0,0.0,0.0,0.0,0.0,-2.0566,-2.0566,-2.0566,-2.0566,0.0,-2.0273,-2.0,-2.0,-2.0,0.0,0.0,0.0,0.0,0.0,0.0,0.0,-2.6371,-2.6533,-2.6533,-2.6533,-2.6533,-2.6533,-2.6533,-2.6533,-2.6093,-2.5113,-2.6254,-2.6538,-2.5564,-2.6943,0.0,0.0,0.0,0.0,0.0,0.0,0.0,0.0,0.0,0.0,0.0,0.0,0.0,0.0,0.0,0.0,0.0,0.0,0.0,0.0,0.0,0.0,0.0,0.0,0.0,0.0,0.0,0.0,0.0,0.5927,0.462,0.3316,0.2413,0.1511,0.0,0.0,0.0,0.0,0.0,0.0,0.0,0.0,0.0,0.0,-0.0605,-0.0907,-0.0907,-0.2213,-0.3217,-0.382,-0.5325,-0.6331,-0.6933,-0.7637,-0.7991,-0.7913,-0.7913,-0.7794,-0.7604,-0.8241,-0.9494,-1.1008,0.0,0.0,0.0,0.0,-1.4282,-1.4262,-1.4128,-1.4088,0.0,0.0,0.0,0.0,0.0,0.0,0.0,0.0,0.0,0.0,0.0,0.0,0.0,-2.0566,-2.0566,-2.0566,-2.0566,-2.0225,-1.999,0.0,-2.0711,-2.1077,-2.1063,0.0,0.0,0.0,0.0,-2.5598,-2.6414,-2.6533,-2.6533,-2.6533,-2.6533,-2.6533,-2.6533,-2.6533,-2.6164,-2.5459,-2.6384,-2.6685,-2.6056,-2.7034,-2.7625,0.0,0.0,0.0,0.0,0.0,0.0,0.0,0.0,0.0,0.0,0.0,0.0,0.0,0.0,0.0,0.0,0.0,0.0,0.0,0.0,0.0,0.0,0.0,0.0,0.0,0.0,0.0,0.0,0.7135,0.6027,0.4718,0.3316,0.2013,0.0,0.0,0.0,0.0,0.0,0.0,0.0,0.0,0.0,0.0,0.0,0.0,0.0,-0.1008,-0.1611,-0.2013,-0.4021,-0.5325,-0.6029,-0.7033,-0.7579,-0.7868,-0.7868,-0.7787,-0.7655,-0.7685,-0.869,-1.0183,-1.0288,-1.1641,-1.3646,-1.3646,-1.3822,-1.4088,-1.4088,-1.4088,-1.4088,-1.4088,0.0,-1.5462,-1.6198,0.0,0.0,0.0,0.0,-2.0566,-2.0566,-2.0566,-2.0566,-2.0566,-2.0566,-2.0566,-2.0566,-2.0312,-2.0146,0.0,-2.1202,-2.1787,-2.1613,0.0,0.0,0.0,0.0,-2.5975,-2.6471,-2.6533,-2.6533,-2.6533,-2.6533,-2.6533,-2.6533,-2.6714,-2.6539,-2.5923,-2.6794,-2.7088,-2.65,-2.7203,-2.7625,-2.7625,0.0,0.0,0.0,0.0,0.0,0.0,0.0,0.0,0.0,0.0,0.0,0.0,0.0,0.0,0.0,0.0,0.0,0.0,0.0,0.0,0.0,0.0,0.0,0.0,0.0,0.0,0.0,0.0,0.0,0.6029,0.472,0.0,0.0,0.0,0.0,0.0,0.0,0.0,0.0,0.0,0.0,0.0,0.0,0.0,0.0,-0.0101,-0.0706,-0.2013,-0.2113,-0.3518,-0.6029,-0.6029,-0.683,-0.8028,-0.8028,-0.794,-0.778,-0.7506,-0.8094,-0.9123,-0.9054,-1.0366,-1.2413,-1.2413,-1.3118,-1.4088,-1.4088,-1.4088,-1.4088,-1.4088,-1.4173,-1.4173,-1.425,-1.5801,0.0,0.0,-1.8948,-2.0566,-2.0566,-2.0566,-2.0566,-2.0566,-2.0566,-2.0566,-2.0566,-2.0547,-2.042,0.0,-2.0744,-2.153,-2.1882,0.0,-2.5083,-2.5473,-2.6063,-2.6496,-2.6533,-2.6533,-2.6533,-2.6533,-2.6533,-2.6533,-2.6533,-2.7229,-2.717,-2.5972,-2.7357,-2.7709,-2.6553,-2.7203,-2.7625,-2.7625,-2.7625,0.0,0.0,0.0,0.0,0.0,0.0,0.0,0.0,0.0,0.0,0.0,0.0,0.0,0.0,0.0,0.0,0.0,0.0,0.0,0.0,0.0,0.0,0.0,0.0,0.0,0.0,0.0,0.0,0.6129,0.5625,0.0,0.3416,0.2113,0.131,0.131,0.0504,0.0,0.0,0.0,0.0,0.0,0.0,0.0,0.0,0.0,-0.0202,-0.0706,-0.2413,-0.3817,-0.482,-0.6528,-0.7537,-0.8038,-0.8038,-0.8007,-0.7943,-0.774,-0.818,-0.9058,-0.9085,-1.0382,-1.2328,-1.2328,-1.3027,-1.4088,-1.4088,-1.4088,-1.4088,-1.4088,-1.4573,-1.5137,-1.5137,-1.6683,-1.839,-1.839,-1.9432,-2.0566,-2.0566,-2.0566,-2.0566,-2.0566,-2.0566,-2.0566,-2.0566,-2.0566,-2.0518,-2.0361,-2.1657,-2.2765,-2.295,-2.4602,-2.602,-2.6176,-2.6327,-2.6533,-2.6533,-2.6533,-2.6533,-2.6533,-2.6533,-2.6714,-2.7229,-2.7537,-2.7429,-2.6782,-2.7722,-2.7765,-2.6553,-2.7203,-2.7625,-2.7625,-2.7625,-2.7625,0.0,0.0,0.0,0.0,0.0,0.0,0.0,0.0,0.0,0.0,0.0,0.0,0.0,0.0,0.0,0.0,0.0,0.0,0.0,0.0,0.0,0.0,0.0,0.0,0.0,0.0,0.7637,0.6731,0.6229,0.5627,0.472,0.3416,0.2514,0.2013,0.1209,0.0504,0.0,0.0,0.0,0.0,0.0,0.0,0.0,0.0,0.0,0.0,-0.1812,-0.3115,-0.4016,-0.5822,-0.7129,-0.8038,-0.8038,-0.8038,-0.8031,-0.7929,-0.8211,-0.8694,-0.8576,-0.9878,-1.1754,-1.1757,-1.2772,-1.4088,-1.4088,-1.4088,-1.4088,-1.4088,-1.4817,-1.5696,-1.5696,-1.7245,-1.9036,-1.9036,-1.9756,-2.0566,-2.0566,-2.0566,-2.0566,-2.0566,-2.0566,-2.0566,-2.0566,-2.0566,-2.0712,-2.1011,-2.2414,-2.3514,-2.3514,-2.5205,-2.6533,-2.6533,-2.6533,-2.6533,-2.6533,-2.6533,-2.6533,-2.6533,-2.6533,-2.685,-2.7604,-2.767,-2.7672,-2.7572,-2.8025,-2.7876,-2.6937,-2.7357,-2.7625,-2.7625,-2.7625,-2.7625,-2.7625,0.0,0.0,0.0,0.0,0.0,0.0,0.0,0.0,0.0,0.0,0.0,0.0,0.0,0.0,0.0,0.0,0.0,0.0,0.0,0.0,0.0,0.0,0.0,0.8206,0.8038,0.8038,0.8038,0.6833,0.6029,0.6029,0.482,0.3516,0.2213,0.2013,0.1411,0.0101,0.0,0.0,0.0,0.0,0.0,0.0,0.0,0.0,0.0,0.0,-0.1411,-0.4016,-0.4016,-0.552,-0.8038,-0.8038,-0.8038,-0.8038,-0.8038,-0.795,-0.7787,-0.7495,-0.8812,-1.0741,-1.0691,-1.2083,-1.4088,-1.4088,-1.4088,-1.4088,-1.4088,-1.4817,-1.5703,-1.5703,-1.7245,-1.8957,-1.8957,-1.9756,-2.0566,-2.0566,-2.0566,-2.0566,-2.0566,-2.0566,-2.0566,-2.0566,-2.0644,-2.0934,-2.1811,-2.285,-2.3526,-2.3526,-2.5205,-2.6533,-2.6533,-2.6533,0.0,-2.6533,-2.6533,-2.6533,-2.6533,-2.6533,-2.685,-2.767,-2.7736,-2.7926,-2.8312,-2.834,-2.8112,-2.7649,-2.7625,-2.7625,-2.7625,-2.764,-2.7655,-2.7655,0.0,0.0,0.0,0.0,0.0,0.0,0.0,0.0,0.0,0.0,0.0,0.0,0.0,0.0,0.0,0.0,0.0,0.0,0.0,0.0,0.0,0.0,0.964,0.9308,0.8554,0.8038,0.8038,0.7637,0.7434,0.7434,0.6229,0.5325,0.4924,0.3118,0.1812,0.1511,0.0504,0.0,0.0,0.0,0.0,0.0,0.0,0.0,0.0,-0.1008,-0.2314,-0.4016,-0.502,-0.6429,-0.8038,-0.8038,-0.8038,-0.8038,-0.8038,-0.8014,-0.7946,-0.7651,-0.8922,-1.0741,-1.0691,-1.2083,-1.4088,-1.4088,-1.4088,-1.4088,-1.4088,-1.4334,-1.4657,-1.5455,-1.6683,-1.7908,-1.8798,-1.9756,-2.0566,-2.0566,-2.0566,-2.0566,-2.0566,-2.0566,-2.0566,-2.0566,-2.1155,-2.1659,-2.1962,-2.3368,-2.4564,-2.4564,-2.5652,-2.6533,-2.6533,-2.6533,0.0,-2.6533,-2.6533,-2.6533,-2.6533,-2.6533,-2.7095,-2.8492,-2.862,-2.8968,-2.982,-2.9459,-2.8961,-2.8353,-2.7844,-2.7625,-2.7625,-2.8068,-2.8323,0.0,0.0,0.0,0.0,0.0,0.0,0.0,0.0,0.0,0.0,0.0,0.0,0.0,0.0,0.0,0.0,0.0,0.0,0.0,0.0,0.0,0.0,1.2321,1.136,1.0793,0.9151,0.8038,0.8038,0.8038,0.8038,0.8038,0.7335,0.6631,0.6029,0.4522,0.3217,0.2013,0.131,0.0605,0.0,0.0,0.0,0.0,0.0,0.0,0.0,-0.0807,-0.1913,-0.3215,-0.452,-0.5924,0.0,-0.7736,-0.8038,-0.8038,-0.8038,-0.8038,0.0,0.0,0.0,0.0,0.0,-1.2954,-1.4088,-1.4088,-1.4088,-1.4088,-1.4088,-1.4412,-1.4977,-1.6034,-1.7172,-1.823,-1.9362,-2.0079,-2.0566,-2.0566,-2.0566,-2.0566,-2.0566,-2.0566,-2.0712,-2.1078,-2.1593,-2.2253,-2.3073,0.0,0.0,-2.5594,-2.6094,-2.6533,-2.6533,-2.6533,-2.6533,-2.6533,-2.6533,-2.6658,-2.6973,-2.6973,-2.767,-2.938,-2.9192,0.0,0.0,0.0,-2.9341,-2.9041,-2.8622,0.0,0.0,0.0,0.0,0.0,0.0,0.0,0.0,-2.9968,-3.0372,0.0,0.0,0.0,0.0,0.0,0.0,0.0,0.0,0.0,0.0,0.0,0.0,0.0,0.0,0.0,0.0,1.4752,1.3488,1.2334,0.9993,0.8333,0.8038,0.8038,0.8038,0.8038,0.8038,0.7537,0.6331,0.6129,0.4924,0.2615,0.0,0.0,0.0,0.0,0.0,0.0,0.0,0.0,0.0,0.0,-0.0706,-0.2013,-0.3416,-0.4718,-0.6029,-0.7434,-0.8038,-0.8038,-0.8038,-0.8018,-0.8157,-0.8076,-0.9322,-1.1509,-1.3397,-1.4088,0.0,-1.4088,0.0,0.0,-1.4088,-1.4734,-1.5703,-1.6927,-1.7989,-1.9036,-2.0245,-2.0566,-2.0566,-2.0566,-2.0566,-2.0566,-2.0566,-2.0566,-2.0867,-2.1659,-2.2027,-2.268,-2.4411,-2.4921,-2.5332,-2.614,-2.6445,-2.6508,-2.6445,-2.6433,-2.6408,-2.6345,-2.6276,-2.6591,-2.7407,0.0,0.0,-2.9932,-2.9369,-2.9359,-3.0321,-2.9752,-2.9389,-2.9594,-2.9579,-2.9579,-2.9579,-2.9654,-2.9684,-2.9684,-3.0313,-3.0612,-3.0612,-3.0612,-3.0612,0.0,0.0,0.0,0.0,0.0,0.0,0.0,0.0,0.0,0.0,0.0,0.0,0.0,0.0,0.0,1.5818,1.4752,1.3782,1.359,1.2134,1.0386,0.8237,0.8038,0.8038,0.8038,0.8038,0.7939,0.7637,0.6631,0.5729,0.5225,0.3217,0.0,0.1611,0.0605,0.0,0.0,0.0,0.0,0.0,0.0,0.0,-0.2013,-0.3416,-0.4718,-0.6029,-0.7434,-0.8038,-0.8038,-0.8038,-0.8376,-0.9165,-1.0019,-1.114,-1.2204,-1.36,-1.4088,-1.4088,-1.4088,-1.4088,-1.4088,-1.4088,-1.425,-1.4741,-1.669,-1.7423,0.0,-2.0079,-2.0566,-2.0566,-2.0566,-2.0566,-2.0566,-2.0566,-2.0566,-2.0634,-2.0857,-2.2113,-2.3183,-2.3153,-2.442,-2.5423,-2.5144,-2.5875,-2.6302,-2.5837,-2.5762,-2.5611,-2.5197,-2.5146,-2.5434,-2.6185,-2.6248,-2.6918,-2.8569,-2.8511,-2.8813,-2.9704,-2.965,-2.9535,-2.9579,-2.9579,-2.9579,-2.9579,-3.0073,-3.0328,-3.0328,-3.1001,-3.1345,-3.1345,-3.1345,-3.1345,0.0,0.0,0.0,0.0,0.0,0.0,0.0,0.0,0.0,0.0,0.0,1.5438,0.0,0.0,1.5832,1.5832,1.5242,1.4657,1.3974,1.3295,1.194,0.9312,0.9019,0.8726,0.8038,0.8038,0.8038,0.8038,0.7335,0.6731,0.6029,0.4119,0.2715,0.2013,0.0706,0.0,0.0,0.0,0.0,0.0,0.0,-0.0303,-0.1008,-0.2413,-0.3717,-0.512,-0.6429,-0.7335,-0.8035,-0.7957,-0.8457,-0.9427,-1.0515,-1.1524,-1.2413,-1.3646,-1.4088,-1.4088,-1.4088,-1.4088,-1.4088,-1.4088,-1.4088,-1.4496,-1.669,-1.7342,-1.7738,-2.0001,-2.0566,-2.0566,-2.0566,-2.0566,-2.0566,-2.0566,-2.0934,-2.139,-2.1605,-2.2794,-2.3804,-2.3786,-2.4523,-2.5121,-2.487,-2.5272,-2.5548,-2.5259,-2.5209,-2.5109,-2.4858,-2.482,-2.5231,-2.6411,-2.6519,-2.7179,-2.8805,-2.8931,-2.9153,-2.9579,-2.9864,-3.0043,-3.0043,-3.0372,-3.0552,-3.0552,-3.0866,-3.1016,-3.1016,-3.136,-3.1482,-3.1482,-3.1482,-3.1482,0.0,0.0,0.0,0.0,0.0,0.0,0.0,1.4967,1.5117,1.5351,1.5438,1.5551,1.5785,1.5832,1.5832,1.5832,1.5832,1.5439,1.4459,1.4262,1.3392,1.1068,1.0288,0.9608,0.8531,0.8137,0.8038,0.8038,0.8038,0.7537,0.6431,0.5122,0.3817,0.2414,0.1109,0.0303,0.0,0.0,0.0,0.0,0.0,0.0,0.0,-0.141,-0.2715,-0.4116,-0.5724,-0.7018,-0.7984,-0.7862,-0.8365,-0.9368,-1.0116,-1.1242,-1.2413,-1.3646,-1.4088,-1.4088,-1.4088,-1.4088,-1.4088,-1.4088,-1.425,-1.4741,-1.669,-1.7423,-1.806,-2.0079,-2.0566,-2.0566,-2.0566,-2.0566,-2.0547,-2.0459,-2.1166,-2.1924,-2.2243,-2.3213,-2.4058,-2.4292,-2.4516,-2.4619,-2.4506,-2.4494,-2.4531,-2.4644,-2.4657,-2.4619,-2.4506,-2.4621,-2.5273,-2.6672,-2.6965,-2.7669,-2.9068,-2.919,-2.925,-2.9385,-2.9864,-3.0238,-3.0492,-3.1046,-3.1405,-3.1482,-3.1482,-3.1482,-3.1482,-3.1482,-3.1482,-3.1482,-3.1482,-3.1482,1.7261,1.7098,1.7253,1.718,1.6612,1.6097,0.0,1.5637,1.5357,1.5391,1.5605,1.5792,1.5818,1.5832,1.5832,1.5832,1.5832,1.573,1.5635,1.5635,1.5051,1.3584,1.1453,0.9899,0.9801,0.8726,0.8038,0.8038,0.8038,0.7939,0.7739,0.6528,0.5122,0.3815,0.2514,0.1209,0.0,0.0,0.0,0.0,0.0,0.0,0.0,-0.141,-0.2715,-0.4116,-0.6628,-0.7763,-0.7834,-0.7818,-0.8295,-0.9091,-0.9251,-1.0534,-1.2413,-1.3646,-1.4088,-1.4088,-1.4088,-1.4088,-1.4088,-1.4088,-1.4734,-1.5703,-1.6927,-1.7989,-1.9036,-2.0245,-2.0566,-2.0566,-2.0566,-2.0566,-2.0469,-2.0078,-2.0636,-2.123,-2.0923,-2.2194,-2.3285,-2.2829,-2.3475,-2.3929,-2.3353,-2.3265,-2.3502,-2.4017,-2.4092,-2.3904,-2.3389,-2.3901,-2.4651,-2.5493,-2.6157,-2.6924,-2.7748,-2.785,-2.8053,-2.8667,-2.8786,-2.9325,-3.0447,-3.0567,-3.0911,-3.1467,-3.1482,-3.1482,-3.1482,-3.1482,-3.1482,-3.1482,-3.1482,-3.1482,1.9353,1.8789,1.831,1.831,1.8334,1.8168,1.7578,1.7606,1.7827,1.7827,1.7842,1.7762,1.7037,1.6943,1.6669,0.0,1.5832,1.5885,1.6059,1.5939,1.5695,1.537,1.3482,1.1648,1.0194,0.9509,0.8825,0.8038,0.8038,0.8038,0.8038,0.6734,0.5727,0.5222,0.3116,0.1712,0.1209,0.0404,0.0,0.0,0.0,0.0,0.0,-0.0605,-0.2013,-0.4112,-0.5955,-0.7082,-0.7797,-0.7628,-0.7756,-0.8166,-0.8779,-0.9911,-1.1466,-1.2595,-1.347,-1.4088,-1.4088,-1.4088,-1.4088,-1.4088,-1.4817,-1.5861,-1.7009,-1.8069,-1.9204,-2.0323,-2.0566,-2.0566,-2.0566,-2.0381,-2.0289,-2.0606,-2.1135,-2.1658,-2.1722,-2.2775,-2.356,-2.2946,-2.317,-2.3427,-2.3115,-2.3078,-2.3165,-2.3464,-2.3841,-2.4051,-2.3806,-2.4452,-2.5231,-2.596,-2.6721,-2.7255,-2.7575,-2.7625,-2.7694,-2.7979,-2.8382,-2.8846,-2.937,-3.0118,-3.0642,-3.0926,-3.133,-3.1482,-3.1482,-3.1482,-3.1482,-3.1482,-3.1482,-3.1482,2.0566,2.0001,1.9469,1.958,1.9789,1.9809,1.9144,1.9309,1.9497,1.9497,1.9497,1.9131,1.7963,1.7692,1.7318,1.6015,1.5899,1.6025,1.6246,1.6086,1.6032,1.6246,1.5216,1.3584,1.1258,1.0386,0.941,0.8137,0.8038,0.8038,0.8038,0.7033,0.6431,0.6029,0.3718,0.2413,0.2013,0.0706,0.0,0.0,0.0,0.0,0.0,-0.0402,-0.1598,-0.3584,-0.5079,-0.6373,-0.7193,-0.7366,-0.7346,-0.7385,-0.8151,-0.9144,-1.0269,-1.1381,-1.2772,-1.4088,-1.4088,-1.4088,-1.4088,-1.4088,-1.4817,-1.5861,-1.7009,-1.8069,-1.9204,-2.0323,-2.0566,-2.0537,-2.042,-2.0146,-1.9993,-2.0388,-2.1129,-2.1846,-2.195,-2.2892,-2.364,-2.3153,-2.3078,-2.3078,-2.3078,-2.3305,-2.3424,-2.3424,-2.4279,-2.4738,-2.435,-2.5119,-2.6014,-2.6721,-2.7306,-2.7625,-2.7625,-2.7625,-2.7625,-2.7625,-2.8038,-2.8412,-2.8592,-2.949,-3.0148,-3.0492,-3.1001,-3.1345,-3.1482,-3.1482,-3.1482,-3.1482,-3.1482,-3.1482,2.0566,2.0566,2.0664,2.1024,2.0595,2.0135,2.0521,2.003,1.9497,1.9497,1.9497,1.9131,1.7963,1.7692,1.7318,1.6015,1.6072,1.6259,1.6273,1.6266,1.6259,1.6273,1.6012,1.5242,0.0,1.1453,0.941,0.8137,0.8038,0.8038,0.8038,0.7939,0.7335,0.6029,0.462,0.3316,0.2013,0.0706,0.0,0.0,0.0,0.0,0.0,-0.1384,-0.1958,-0.2248,-0.4689,-0.573,-0.5726,-0.6913,-0.7282,-0.7146,-0.7143,-0.7929,-0.9061,-1.0269,-1.2083,-1.4088,-1.4088,-1.4088,-1.4088,-1.4088,-1.4817,-1.5861,-1.7009,-1.8069,-1.9204,-2.0323,-2.0566,-2.0469,-2.0049,-1.9922,-1.9697,-1.8867,-2.0002,-2.1129,-2.0714,-2.1951,-2.309,-2.3078,-2.3078,-2.3078,-2.3078,-2.3767,-2.4292,-2.4292,-2.5508,-2.5906,-2.4452,-2.5563,-2.6774,-2.7509,-2.7575,-2.7625,-2.7625,-2.7625,-2.7625,-2.7625,-2.764,-2.7904,-2.8577,-2.8637,-2.9235,-3.0477,-3.0522,-3.0866,-3.1482,-3.1482,-3.1482,-3.1482,-3.1482,-3.1482,2.0566,2.0566,2.0674,2.1123,2.1216,2.137,2.1788,2.1936,2.1863,2.1863,2.1863,2.1302,1.9532,1.9015,1.8295,1.6471,1.6046,1.6046,1.6246,1.6106,1.6052,1.6253,1.6012,0.0,0.0,0.0,0.0,0.941,0.8528,0.8038,0.8038,0.8038,0.7839,0.7335,0.6027,0.472,0.3316,0.2013,0.0907,0.0,0.0,0.0,0.0,-0.0492,-0.1168,-0.2111,-0.366,-0.4818,-0.5707,-0.6715,-0.7187,-0.7139,-0.7139,-0.8273,-1.0091,-1.0438,-1.2083,-1.4088,-1.4088,-1.4088,-1.4088,-1.4088,-1.5311,-1.6846,-1.7172,-1.863,-2.0157,-2.0489,-2.0361,-2.0098,-1.9951,-1.9492,-1.9271,-2.0112,-2.0599,-2.1039,-2.2025,-2.2689,-2.3078,-2.3078,-2.3078,-2.3245,-2.3826,-2.4118,-2.4452,-2.4951,-2.5837,-2.651,-2.6481,-2.6916,-2.7306,-2.7575,-2.7625,-2.7625,-2.7625,-2.7625,-2.7625,-2.7625,-2.7625,-2.773,-2.7904,-2.8353,-2.8801,-2.9235,-3.0073,-3.0612,-3.0851,-3.13,-3.1482,-3.1482,-3.1482,-3.1482,2.0566,2.0566,2.0713,2.1318,2.168,2.2031,2.2607,2.2939,2.3135,2.3135,2.3135,2.2577,2.0706,2.0286,1.9604,1.7912,1.7138,1.687,1.7169,1.6545,1.6172,1.6259,1.6012,1.5439,0.0,0.0,0.0,1.0096,0.8726,0.8038,0.8038,0.8038,0.8038,0.8038,0.6731,0.5322,0.4016,0.2715,0.131,0.0,0.0,0.0,0.0,0.0,-0.0477,-0.1318,-0.2485,-0.3645,-0.5006,-0.6014,-0.6694,-0.7139,-0.7139,-0.8269,-1.0009,-1.0438,-1.1821,-1.3555,-1.3913,-1.4088,-1.4088,-1.4088,-1.5304,-1.6764,-1.7172,-1.855,-2.0051,-2.0294,-2.0127,-1.9844,-1.9541,-1.9053,-1.8924,-2.0232,-2.0554,-2.0974,-2.2384,-2.2884,-2.3078,-2.3078,-2.3078,-2.3365,-2.4176,-2.4738,-2.5342,-2.6108,-2.6602,-2.6982,-2.7203,-2.7458,-2.7625,-2.7625,-2.7625,-2.7625,-2.7625,-2.7625,-2.7625,-2.7625,-2.7625,-2.7625,-2.7625,-2.7993,-2.8353,-2.8607,-2.94,-3.0058,-3.0507,-3.1222,-3.1667,-3.191,-3.216,-3.2256,2.0566,2.0566,2.0771,2.1641,2.1865,2.21,2.292,2.3125,2.3135,2.3135,2.3135,2.2775,0.0,0.0,2.1059,2.0247,1.9166,1.8505,1.8596,1.7534,1.656,0.0,0.0,0.0,0.0,0.0,0.0,1.0288,0.0,0.8038,0.8038,0.8038,0.8038,0.8038,0.6731,0.5425,0.4116,0.2712,0.1308,0.0,0.0,0.0,0.0,0.0,0.0,-0.0092,-0.1264,-0.2503,-0.3659,-0.491,-0.6071,-0.7139,-0.7139,-0.7841,-0.9065,-1.0178,-1.1295,-1.2498,-1.3646,-1.4088,-1.4088,-1.4088,-1.4817,-1.5861,-1.7009,-1.8052,-1.9085,-1.9716,-1.9883,-1.9658,-1.8848,-1.8623,-1.8765,-1.9271,-2.0009,-2.091,-2.1741,-2.2567,-2.3078,-2.3078,-2.3125,-2.3471,-2.4279,-2.5618,-2.6774,-2.7509,-2.7625,-2.7357,-2.6669,-2.7152,-2.7625,-2.7625,-2.7625,-2.7625,-2.7625,-2.7625,-2.7625,-2.7625,-2.7625,-2.7625,-2.7625,-2.7625,-2.7925,-2.8584,-2.8629,-2.9244,-3.0513,-3.1267,-3.1958,-3.2594,-3.3271,-3.3582,2.0566,2.0566,2.0703,2.126,2.1641,2.2021,2.2549,2.291,2.3135,2.3135,2.3135,2.2782,2.1808,2.1509,0.0,2.006,1.8769,0.0,1.7931,1.6805,0.0,1.5952,1.5872,1.5832,1.5832,1.4657,0.0,0.0,1.0194,0.9019,0.8038,0.8038,0.8038,0.8038,0.7637,0.683,0.5525,0.3172,0.1282,0.0,0.0,0.0,0.0,0.0,0.0,-0.0091,-0.1257,-0.2503,-0.3659,-0.491,-0.6071,-0.7139,-0.7139,-0.7841,-0.9065,-1.0178,-1.1295,-1.2498,-1.3646,-1.4088,-1.4088,-1.4088,-1.4817,-1.5861,-1.7009,-1.7871,-1.8652,-1.963,-1.9453,-1.8906,-1.8691,-1.8863,-1.9312,-2.0107,-2.091,-2.1803,-2.2628,-2.2944,-2.3078,-2.3078,-2.4047,-2.5063,-2.5783,-2.6707,-2.7357,-2.7575,-2.7625,-2.7509,-2.7357,-2.7458,-2.7625,-2.7625,-2.7625,-2.7625,-2.7625,-2.7625,-2.7625,-2.7625,-2.7625,-2.7625,-2.7625,-2.7625,-2.7886,-2.8498,-2.9005,-2.9654,-3.0411,-3.165,-3.2368,-3.2542,-3.324,-3.3582,2.0566,2.0566,2.0674,2.1123,2.1562,2.1992,2.2412,2.2832,2.3135,2.3135,2.3135,2.294,2.2447,2.2199,2.1983,2.1651,0.0,0.0,1.8816,1.761,1.6531,0.0,1.5832,0.0,1.5832,1.5146,1.4172,0.0,1.1068,0.941,0.8038,0.8038,0.8038,0.8038,0.8038,0.7307,0.5955,0.3216,0.1547,0.0775,0.0285,0.0,0.0,0.0,0.0,-0.009,0.0,-0.2503,-0.3659,-0.491,-0.6071,-0.7139,-0.7139,-0.7841,-0.9065,-1.0178,-1.1295,-1.2498,-1.3646,-1.4088,-1.4088,-1.4088,-1.5144,-1.6519,-1.709,-1.8118,-1.9099,-1.9538,-1.916,-1.8523,-1.8408,-1.8836,-1.9497,-2.0398,-2.1302,-2.2125,-2.2944,-2.3078,-2.3185,-2.3543,-2.461,-2.5618,-2.6336,-2.7086,-2.7625,-2.7625,-2.7625,-2.7625,-2.7625,-2.7625,-2.7625,-2.7625,-2.7625,-2.7625,-2.7625,-2.7625,-2.7625,-2.7625,-2.7625,-2.7625,-2.7625,-2.7625,-2.776,-2.8091,-2.8458,-2.9126,-2.999,-3.1102,-3.2096,-3.2967,-3.3695,-3.42,2.0566,2.0566,2.0654,2.1045,2.1475,2.1904,2.2155,2.2486,2.2795,2.2853,2.2775,2.2687,2.3047,2.296,2.3076,2.3643,2.259,2.1375,2.0145,1.8839,1.753,1.5953,1.5832,1.5832,1.5832,1.5832,1.5242,1.3974,1.1843,0.9899,0.8333,0.8233,0.8127,0.8011,0.8011,0.7239,0.5835,0.3439,0.218,0.1801,0.0743,0.0184,0.0,0.0,0.0,-0.009,0.0,0.0,-0.3659,-0.4732,-0.5891,-0.7139,-0.7139,-0.7753,-0.8798,-0.9923,-1.1123,-1.2242,-1.347,-1.3997,-1.4088,-1.4088,-1.5394,-1.6919,-1.7114,-1.8197,-1.9353,-1.9243,-1.8887,-1.8467,-1.8105,-1.8721,-1.9694,-2.0398,-2.1365,-2.2261,-2.2944,-2.3185,-2.3484,-2.4292,-2.5063,-2.5783,-2.651,-2.7203,-2.7625,-2.7625,-2.7625,-2.7625,-2.7625,-2.7625,-2.7625,-2.7625,-2.7625,-2.7625,-2.7625,-2.7625,-2.7625,-2.7625,-2.7675,-2.771,-2.771,-2.781,-2.7894,-2.7944,-2.7944,-2.8547,-2.972,-3.0382,-3.1629,-3.335,-3.4152,-3.4844,2.0323,2.0566,2.0586,2.0664,2.1016,2.1202,2.0568,2.0793,2.1176,2.1505,2.0854,2.0764,2.2775,2.2306,2.1961,2.3057,2.2232,2.0951,1.977,1.8589,1.729,0.0,1.5832,1.5832,1.5832,1.5832,0.0,0.0,0.0,1.2226,0.9801,0.9608,0.9053,0.7855,0.7851,0.7096,0.5621,0.5144,0.3892,0.1764,0.1545,0.0991,0.0,0.0,0.0,0.0,-0.018,0.0,-0.3659,-0.3838,-0.5174,-0.7139,-0.7139,-0.7228,-0.7577,-0.8711,-0.9923,-1.1042,-1.2242,-1.3294,-1.4088,-1.4088,-1.4334,-1.4935,-1.6333,-1.6763,-1.6925,-1.8347,-1.8447,-1.8105,-1.8027,-1.9177,-2.0398,-2.059,-2.1803,-2.2944,-2.3078,-2.359,-2.4337,-2.5063,-2.5783,-2.6549,-2.7306,-2.7524,-2.7625,-2.7625,-2.7625,-2.7625,-2.7625,-2.7625,-2.7625,-2.7625,-2.7625,-2.7625,-2.7625,-2.7625,-2.7625,-2.7625,-2.8042,-2.8319,-2.8319,-2.8826,-2.93,-2.9848,-2.9848,-3.0172,-3.0899,-3.1608,-3.2169,-3.2555,-3.3871,-3.4556,1.8709,1.9353,1.9766,1.9766,2.0076,2.0261,1.986,1.9856,2.007,2.095,2.0257,2.0042,2.1845,2.1212,2.0755,2.1943,2.1123,2.0124,1.9579,1.8503,1.7225,1.592,1.5832,1.5832,1.5832,1.5832,1.554,0.0,0.0,1.3494,1.0194,0.9225,0.8523,0.7706,0.7624,0.7263,0.6537,0.586,0.4897,0.3628,0.2426,0.1522,0.0897,0.0269,0.0,0.0,-0.0628,0.0,-0.3659,-0.4283,-0.5534,-0.7139,-0.7139,-0.7139,-0.7228,-0.8452,-0.9235,-0.9923,-1.1724,-1.2681,-1.3269,-1.3734,-1.4255,-1.4945,-1.6277,-1.6699,-1.6893,-1.8247,-1.833,-1.8008,-1.8008,-1.9299,-2.059,-2.059,-2.1865,-2.3185,-2.3649,-2.4002,-2.4624,-2.5728,-2.6283,-2.6721,-2.7458,-2.7625,-2.7625,-2.7625,-2.7625,-2.7625,-2.7625,-2.7625,-2.7625,-2.7625,-2.7625,-2.7625,-2.7625,-2.7625,-2.7625,-2.7625,-2.786,-2.8042,-2.8042,-2.8591,-2.9058,-2.9361,-2.9673,-3.0123,-3.074,-3.1091,-3.164,-3.2347,-3.3017,-3.3761,1.7261,1.798,1.8638,1.8638,1.886,1.9018,1.8933,1.865,1.8762,1.9878,1.9354,1.9125,2.0648,1.9943,1.9497,2.0755,2.0305,1.9679,1.9222,1.8503,1.749,1.6015,1.5832,0.0,1.5832,1.5832,0.0,0.0,0.0,0.0,1.052,0.903,0.8013,0.7556,0.7434,0.7356,0.7322,0.6302,0.5625,0.5359,0.3217,0.2057,0.179,0.0539,0.0,-0.009,-0.0986,0.0,0.0,-0.4552,-0.5714,-0.6782,-0.6962,-0.7139,-0.7228,-0.8189,-0.8798,-0.9492,-1.1295,-1.2207,-1.2728,-1.3378,-1.4353,-1.5427,-1.6202,-1.6756,-1.7315,-1.8235,-1.8262,-1.8008,-1.8008,-1.9299,-2.0719,-2.1037,-2.2113,-2.3245,-2.3884,-2.4292,-2.4908,-2.6068,-2.651,-2.693,-2.7509,-2.7625,-2.7625,-2.7625,-2.7625,-2.7625,-2.7625,-2.7625,-2.7625,-2.7625,-2.7625,-2.7625,-2.7625,-2.771,-2.781,-2.781,-2.8027,-2.8174,-2.8174,-2.8764,-2.9088,-2.9088,-2.954,-3.0038,-3.0477,-3.0477,-3.1024,-3.2053,-3.2246,-3.3,1.7017,1.7415,1.7423,1.7423,1.7448,1.7302,1.6615,1.6397,1.6609,1.7392,1.6569,1.6593,1.9157,1.868,1.8234,1.9497,2.0477,2.0395,1.8141,1.868,1.8495,1.6103,0.0,0.0,1.5832,1.5832,0.0,0.0,0.0,0.0,1.1637,1.0292,0.8898,0.7492,0.738,0.7302,0.7163,0.6969,0.6428,0.5359,0.4105,0.2858,0.179,0.0539,0.0,0.0,-0.009,0.0,0.0,-0.3304,-0.4463,-0.5625,-0.6694,-0.7139,-0.7139,-0.7228,-0.8619,-1.0438,-1.0697,-1.1934,-1.351,-1.3566,-1.4272,-1.5185,-1.5546,-1.6345,-1.718,-1.7889,-1.8037,-1.8008,-1.8008,-1.9299,-2.0974,-2.2506,-2.3005,-2.3138,-2.3185,-2.4323,-2.5342,-2.5453,-2.6587,-2.7524,-2.7575,-2.7625,-2.7625,-2.7625,-2.7625,-2.7625,-2.7625,-2.7625,-2.7625,-2.7625,-2.7625,-2.7625,-2.7625,-2.8091,-2.8415,-2.8415,-2.9451,-3.0064,-3.0064,-3.0617,-3.0958,-3.0958,-3.1015,-3.1055,-3.1112,-3.1112,-3.1185,-3.1309,-3.1968,-3.2713,1.5228,1.5876,1.6355,1.6355,1.6355,1.6221,1.5944,1.5461,1.5474,1.6691,1.6154,1.6026,1.8072,1.7404,1.6943,1.8226,1.8211,1.7933,1.7684,1.749,1.6929,1.592,1.5832,0.0,0.0,0.0,0.0,0.0,0.0,0.0,1.2405,1.0471,0.908,0.8306,0.7585,0.7204,0.7139,0.7139,0.6874,0.6425,0.5267,0.4018,0.2858,0.1612,0.0718,0.0,0.0,0.0,0.0,-0.3126,-0.4285,-0.5536,-0.6694,-0.7139,-0.7139,-0.7139,-0.7603,-0.8549,-0.9904,-1.0767,-1.1532,-1.2752,-1.379,-1.4659,-1.542,-1.5769,-1.6209,-1.7627,-1.8008,-1.8008,-1.8008,-1.9299,-2.1037,-2.2689,-2.3484,-2.3943,-2.4381,-2.5342,-2.6162,-2.6654,-2.7188,-2.7625,-2.7625,-2.7625,-2.7625,-2.7625,-2.7625,-2.7625,-2.7625,-2.791,-2.814,-2.814,-2.781,-2.7625,-2.7625,-2.781,-2.8091,-2.8463,-2.8966,-2.9361,-2.9761,-3.0351,-3.0658,-3.0658,-3.1015,-3.119,-3.119,-3.119,-3.119,-3.1207,-3.1495,-3.2019,1.4088,1.465,1.522,1.522,1.522,1.522,1.522,1.4817,1.4722,1.5871,1.5673,1.5626,1.6843,1.6324,1.6109,1.6943,1.6669,1.6574,1.7037,1.6669,1.6197,1.5825,0.0,1.6204,0.0,1.5752,0.0,0.0,0.0,0.0,0.0,1.0873,0.9367,0.8894,0.7753,0.7139,0.7139,0.7139,0.7139,0.7051,0.5983,0.4732,0.357,0.2325,0.1165,0.0,0.0,0.0,0.0,-0.2592,-0.3749,-0.4999,-0.6157,-0.6782,-0.7136,-0.7092,-0.7184,-0.7677,-0.9456,-1.0198,-1.054,-1.2261,-1.3209,-1.3866,-1.5105,-1.5576,-1.5869,-1.7217,-1.7988,-1.8462,-1.8721,-1.9879,-2.1353,-2.275,-2.3531,-2.4163,-2.4894,-2.5673,-2.639,-2.7137,-2.7458,-2.7625,-2.7625,-2.7625,-2.7625,-2.7625,-2.7625,-2.7625,-2.7625,-2.814,-2.8511,-2.8511,-2.8271,-2.8125,-2.8125,-2.8304,-2.8575,-2.9012,-2.918,-2.9496,-2.9892,-3.0335,-3.0576,-3.0576,-3.0975,-3.119,-3.119,-3.119,-3.119,-3.119,-3.119,-3.1698,1.4088,1.4088,1.4088,1.4088,1.4088,1.4088,1.4088,1.4088,1.4175,1.4462,1.4763,1.5057,1.5351,1.5638,1.5832,1.5825,1.685,1.7225,1.6015,1.685,1.7225,0.0,0.0,1.7225,1.592,1.5571,0.0,0.0,0.0,0.0,0.0,1.1956,1.0096,0.8978,0.7753,0.7139,0.7139,0.7139,0.7139,0.7051,0.5983,0.4732,0.357,0.2325,0.1165,0.0,0.0,0.0,0.0,-0.1344,-0.2503,-0.3748,-0.491,-0.6071,-0.7122,-0.6983,-0.7688,-0.883,-0.9615,-1.0444,-1.1349,-1.2433,-1.2545,-1.2666,-1.4601,-1.5869,-1.6567,-1.6636,-1.793,-1.9497,-2.0333,-2.1239,-2.2075,-2.2884,-2.3138,-2.3305,-2.4118,-2.4908,-2.5618,-2.6336,-2.7086,-2.7625,-2.7625,-2.7625,-2.7625,-2.7625,-2.7625,-2.7625,-2.7625,-2.814,-2.8511,-2.8511,-2.9012,-2.9361,-2.9361,-2.9951,-3.0251,-3.0293,-3.0838,-3.119,-3.119,-3.119,-3.119,-3.119,-3.119,-3.119,-3.119,-3.119,-3.119,-3.119,-3.119,-3.1985,1.4088,1.4088,1.4088,1.4088,1.4088,1.4088,1.4088,1.4088,1.4168,1.4456,1.4596,1.481,1.5304,1.5471,1.5598,1.5798,1.6109,0.0,1.7037,1.6669,0.0,1.7037,1.6669,1.6216,0.0,0.0,0.0,0.0,0.0,0.0,0.0,1.1952,1.0438,1.0091,0.8097,0.7139,0.7139,0.7139,0.7139,0.7139,0.6694,0.598,0.4821,0.3571,0.0,0.0,0.0,0.0,0.0,-0.1344,-0.2057,-0.2588,-0.448,-0.5415,-0.5835,-0.6483,-0.695,-0.7411,-0.9025,-0.9735,-1.0166,-1.1909,-1.2378,-1.2519,-1.381,-1.4879,-1.5939,-1.7217,-1.7988,-1.8721,-2.0204,-2.0782,-2.1353,-2.275,-2.393,-2.4724,-2.5007,-2.6054,-2.6967,-2.7203,-2.7458,-2.7625,-2.7625,-2.7625,-2.7625,-2.7625,-2.7625,-2.776,-2.814,-2.8732,-2.9271,-2.9673,-3.0251,-3.0309,-2.9451,-2.9585,-2.9848,-3.0251,-3.0477,-3.0781,-3.119,-3.119,-3.119,-3.119,-3.119,-3.119,-3.119,-3.119,-3.119,-3.119,-3.119,-3.1985,1.3997,1.4088,1.4088,1.4088,1.4088,1.4088,1.4088,1.4088,1.4135,1.4315,1.4442,1.4663,1.5144,1.5324,1.5491,1.5785,1.5832,1.6109,0.0,0.0,0.0,1.7412,0.0,0.0,0.0,0.0,0.0,0.0,0.0,0.0,0.0,1.2254,1.1037,1.0611,0.8356,0.7139,0.7139,0.7139,0.7139,0.7139,0.7139,0.6517,0.5359,0.4105,0.0,0.0,0.0,0.0,0.0,-0.08,-0.1416,-0.1941,-0.3791,-0.4697,-0.5194,-0.6252,-0.6556,-0.6701,-0.8277,-0.9024,-0.9599,-1.1168,-1.2211,-1.3025,-1.3954,-1.495,-1.6079,-1.7579,-1.8269,-1.8854,-2.0204,-2.0846,-2.1416,-2.275,-2.4047,-2.5063,-2.5342,-2.6322,-2.7255,-2.7575,-2.7625,-2.7625,-2.7625,-2.7625,-2.7625,-2.7625,-2.7625,-2.781,-2.8415,-2.9012,-2.9629,-3.0251,-3.0838,-3.0878,-3.0123,-3.0081,-3.0251,-3.0617,-3.0658,-3.0797,-3.119,-3.119,-3.119,-3.119,-3.119,-3.119,-3.119,-3.119,-3.119,-3.119,-3.119,-3.1985,0.0,1.3997,1.4088,1.4088,1.4088,1.4088,1.4088,1.4088,0.0,1.4088,1.4302,1.4583,1.4877,1.5261,1.555,1.5752,1.5906,1.6008,0.0,1.59,0.0,0.0,1.6162,0.0,0.0,0.0,0.0,0.0,0.0,0.0,0.0,1.2942,1.1809,1.0778,0.8532,0.7228,0.7139,0.7139,0.7139,0.7139,0.7139,0.6517,0.5447,0.4188,0.0,0.0,0.0,0.0,0.0,0.0,-0.0693,-0.1812,-0.2952,-0.4008,-0.5074,-0.6102,-0.6458,-0.6596,-0.7455,-0.8466,-0.9448,-1.0565,-1.2191,-1.3882,-1.4879,-1.586,-1.6784,-1.7725,-1.8596,-1.9431,-2.0333,-2.1164,-2.2002,-2.2884,-2.3767,-2.4567,-2.5231,-2.6014,-2.6774,-2.7473,-2.7625,-2.7625,-2.7625,-2.7625,-2.7625,-2.7625,-2.7625,-2.7894,-2.8511,-2.9088,-2.9717,-3.0293,-3.0878,-3.119,-3.119,-3.119,-3.119,-3.119,-3.119,-3.119,-3.119,-3.119,-3.119,-3.119,-3.119,-3.119,-3.119,-3.119,-3.119,-3.119,-3.123,-3.2026,1.108,0.0,1.4088,1.4088,1.4088,1.4088,0.0,1.4088,1.4088,1.4088,1.4142,1.4282,1.4569,1.5634,1.6289,1.5629,1.7228,1.8311,1.7404,1.6992,0.0,1.6743,1.6529,1.6316,0.0,0.0,0.0,0.0,0.0,0.0,0.0,1.2942,1.2157,1.1901,1.0519,0.8877,0.7139,0.7139,0.7139,0.7139,0.7139,0.6962,0.6602,0.4568,0.0,0.0,0.0,0.0,0.0,0.0,-0.017,-0.0592,-0.2472,-0.3345,-0.382,-0.5644,-0.6312,-0.6461,-0.7492,-0.8466,-0.9599,-1.1397,-1.2725,-1.3882,-1.4879,-1.586,-1.6784,-1.7725,-1.8144,-1.8654,-2.0204,-2.0782,-2.129,-2.275,-2.4163,-2.5175,-2.5342,-2.6428,-2.7408,-2.7575,-2.7625,-2.7625,-2.7625,-2.7625,-2.7625,-2.7625,-2.7993,-2.8511,-2.9088,-2.9717,-3.0293,-3.0918,-3.1112,-3.119,-3.119,-3.119,-3.119,-3.119,-3.119,-3.119,-3.119,-3.119,-3.119,-3.119,-3.119,-3.119,-3.119,-3.119,-3.119,-3.119,-3.1507,-3.2486,0.9607,1.1133,1.2607,1.3118,1.3288,1.3379,1.3997,1.4088,1.4088,1.4088,1.4088,1.4175,1.4469,1.5575,1.6433,1.6294,1.7733,0.0,0.0,0.0,1.7523,1.7188,1.7149,0.0,0.0,0.0,0.0,0.0,0.0,0.0,0.0,1.347,1.2796,1.2157,1.1562,1.0113,0.7899,0.7812,0.7519,0.6939,0.6939,0.6939,0.685,0.5057,0.3923,0.0,0.0,0.0,0.0,0.0,0.0,-0.0165,-0.1772,-0.271,-0.3338,-0.4945,-0.5867,-0.6416,-0.6945,-0.8089,-0.9599,-1.1626,-1.2659,-1.331,-1.4736,-1.5579,-1.6219,-1.7579,-1.8008,-1.8395,-2.0139,-2.059,-2.1037,-2.2689,-2.4266,-2.5398,-2.5398,-2.6534,-2.7625,-2.7625,-2.7625,-2.766,-2.7944,-2.7993,-2.8091,-2.84,-2.867,-2.9134,-2.9717,-3.0123,-3.0518,-3.1151,-3.119,-3.119,-3.119,-3.119,-3.119,-3.119,-3.119,-3.119,-3.119,-3.119,-3.119,-3.119,-3.119,-3.1291,-3.1487,-3.1487,-3.1582,-3.1804,-3.2388,-3.3335,0.8578,0.9492,1.0611,1.1724,1.2328,1.2766,1.3646,1.3997,1.4088,1.4088,1.4088,1.4162,1.4409,1.549,1.6533,0.0,0.0,0.0,1.8427,1.8255,1.8124,1.8012,1.7971,0.0,0.0,0.0,0.0,0.0,0.0,0.0,0.0,1.4099,1.3451,1.2146,1.2058,1.1123,0.9104,0.88,0.807,0.6947,0.6781,0.6702,0.6698,0.5427,0.4334,0.0,0.0,0.0,0.0,0.0,0.0,-0.0081,-0.1185,-0.219,-0.3202,-0.4295,-0.5392,-0.6338,-0.6644,-0.7859,-0.9599,-1.1626,-1.2372,-1.2879,-1.4665,-1.5305,-1.5799,-1.751,-1.8008,-1.8395,-2.0139,-2.059,-2.1037,-2.2689,-2.4266,-2.5398,-2.5398,-2.6534,-2.7625,-2.7625,-2.7625,-2.776,-2.8271,-2.8367,-2.8559,-2.918,-2.9316,-2.9629,-3.0208,-3.0393,-3.0617,-3.1151,-3.119,-3.119,-3.119,-3.119,-3.119,-3.119,-3.119,-3.119,-3.119,-3.119,-3.119,-3.119,-3.119,-3.1389,-3.1733,-3.1789,-3.2056,-3.2611,-3.3434,-3.4266,0.7362,0.8277,0.9405,1.0611,1.2339,1.3561,1.2766,1.3379,1.4088,1.4088,1.4088,1.4102,1.4142,1.6102,1.7407,0.0,0.0,1.8479,0.0,0.0,1.8087,1.8771,0.0,0.0,0.0,0.0,0.0,0.0,0.0,0.0,0.0,1.4185,1.3492,1.3034,1.3028,1.2263,1.0835,0.9104,0.8193,0.7922,0.7109,0.6702,0.6695,0.542,0.4313,0.0,0.0,0.1031,0.0,0.0,0.0,-0.0079,-0.1178,-0.219,-0.3202,-0.4295,-0.5392,-0.6567,-0.8237,-0.9069,-0.9599,-1.1626,-1.2806,-1.3665,-1.4879,-1.572,-1.6636,-1.7716,-1.8008,-1.8395,-2.0139,-2.059,-2.1037,-2.2689,-2.4266,-2.5398,-2.5398,-2.6534,-2.7625,-2.7625,-2.7625,-2.7625,-2.771,-2.771,-2.7944,-2.8559,-2.9088,-2.9629,-3.0208,-3.0757,-3.1112,-3.119,-3.119,-3.119,-3.119,-3.119,-3.119,-3.119,-3.119,-3.119,-3.119,-3.119,-3.119,-3.119,-3.119,-3.123,-3.1291,-3.1623,-3.2208,-3.3051,-3.3868,-3.5087,0.7102,0.8013,0.9061,0.9579,1.1391,1.3118,1.3294,1.373,1.4088,1.4088,1.4088,1.4088,1.4088,1.5587,1.6921,1.7573,0.0,1.9256,2.0014,1.9629,1.9485,0.0,0.0,0.0,0.0,0.0,0.0,0.0,0.0,0.0,0.0,0.0,1.3273,1.2966,1.2959,1.2582,1.1822,0.9777,0.8505,0.7953,0.6936,0.6464,0.6461,0.5912,0.5086,0.3968,0.0,0.1801,0.0784,0.0236,0.0,-0.0079,-0.0549,-0.141,-0.2503,-0.4139,-0.5392,-0.649,-0.8008,-0.8841,-0.9523,-1.1019,-1.2131,-1.3237,-1.4736,-1.5517,-1.6149,-1.7579,-1.8337,-1.8977,-2.0268,-2.0974,-2.1729,-2.3339,-2.461,-2.5508,-2.5906,-2.6811,-2.7625,-2.7625,-2.7625,-2.781,-2.8448,-2.8575,-2.8904,-2.9805,-3.0208,-3.0477,-3.074,-3.1015,-3.119,-3.119,-3.119,-3.119,-3.119,-3.119,-3.119,-3.119,-3.119,-3.119,-3.119,-3.119,-3.1291,-3.1507,-3.1528,-3.177,-3.2282,-3.2466,-3.3105,-3.4167,-3.503,-3.6055,0.7109,0.8013,0.889,0.889,1.0611,1.2504,1.347,1.3913,1.4088,1.4088,1.4088,1.4088,1.4088,1.4977,0.0,1.831,1.9048,1.9622,2.0127,2.0401,0.0,0.0,0.0,0.0,0.0,0.0,0.0,0.0,0.0,0.0,0.0,0.0,1.2959,1.2652,1.2721,1.2532,1.2305,1.0571,0.9145,0.8161,0.6872,0.6338,0.6338,0.6338,0.5709,0.4686,0.3826,0.2735,0.1568,0.0706,0.0236,0.0,0.0,-0.0628,-0.1881,-0.3906,-0.5237,-0.6096,-0.7399,-0.8466,-0.9448,-1.049,-1.1607,-1.2879,-1.4378,-1.5163,-1.5799,-1.7295,-1.8442,-1.9497,-2.0398,-2.1112,-2.199,-2.3636,-2.4724,-2.5563,-2.6122,-2.6982,-2.7625,-2.7625,-2.7625,-2.7944,-2.8996,-2.918,-2.9585,-3.0797,-3.1015,-3.1055,-3.119,-3.119,-3.119,-3.119,-3.119,-3.123,-3.1312,-3.1466,-3.1487,-3.1487,-3.1389,-3.1389,-3.1487,-3.1487,-3.1657,-3.1968,-3.1951,-3.2332,-3.3045,-3.3334,-3.405,-3.5151,-3.6146,-3.7,0.7136,0.8013,0.889,0.889,1.0611,1.2322,1.2413,1.3294,1.4088,1.4088,1.4088,1.4088,0.0,1.4977,1.6108,1.7253,1.8336,1.9073,1.9125,0.0,0.0,0.0,0.0,0.0,0.0,0.0,0.0,0.0,0.0,0.0,0.0,0.0,0.0,1.2345,1.2338,1.2325,1.2305,1.1242,1.019,0.915,0.7249,0.6338,0.6338,0.6338,0.5709,0.4688,0.4608,0.3439,0.1568,0.1489,0.0863,0.0,0.0,-0.0628,-0.1881,-0.3906,-0.4766,-0.5076,-0.7084,-0.8466,-0.9448,-1.049,-1.2044,-1.36,-1.3745,-1.5084,-1.6498,-1.6636,-1.7939,-1.9497,-2.0398,-2.0655,-2.1101,-2.2811,-2.4323,-2.5398,-2.5453,-2.6587,-2.7625,-2.7625,-2.7625,-2.781,-2.8463,-2.8559,-2.895,-3.0166,-3.0335,-3.0559,-3.1151,-3.119,-3.119,-3.119,-3.119,-3.1351,-3.1733,-3.2179,-3.2417,-3.2417,-3.2004,-3.1968,-3.2384,-3.2417,-3.2417,-3.2451,-3.2451,-3.2484,-3.255,-3.3737,-3.4731,-3.5589,-3.6833,-3.7826,0.7139,0.7404,0.8101,0.9575,1.0611,1.1466,1.2157,1.3203,1.4088,1.4088,1.4088,1.4334,0.0,0.0,1.5304,1.7017,1.7666,1.823,0.0,0.0,0.0,0.0,0.0,0.0,0.0,0.0,0.0,0.0,0.0,0.0,0.0,0.0,0.0,1.3171,1.3171,1.2879,1.2305,1.1316,1.0265,0.9296,0.7859,0.6872,0.6338,0.6338,0.6103,0.5631,0.5002,0.4219,0.3439,0.2115,0.1333,0.0941,0.0235,-0.0628,-0.1802,-0.3203,-0.4139,-0.4921,-0.6325,-0.7553,-0.8542,-0.9518,-1.0783,-1.2117,-1.3302,-1.4665,-1.586,-1.6428,-1.7482,-1.8854,-2.0204,-2.0974,-2.1904,-2.4008,-2.5007,-2.5673,-2.6587,-2.7188,-2.7625,-2.7625,-2.7625,-2.7894,-2.8904,-2.9042,-2.9451,-3.0699,-3.0878,-3.0918,-3.119,-3.119,-3.1291,-3.1545,-3.1842,-3.2092,-3.2196,-3.2417,-3.2616,-3.2921,-3.25,-3.2298,-3.2484,-3.2484,-3.2648,-3.2921,-3.2952,-3.3309,-3.4075,-3.455,-3.5476,-3.6803,-3.7271,-3.8029,0.7139,0.7404,0.7925,0.9226,1.0091,1.0697,1.1123,1.2687,1.4088,1.4088,1.4328,1.4734,1.5137,0.0,0.0,0.0,1.6764,0.0,0.0,0.0,0.0,0.0,0.0,0.0,0.0,0.0,0.0,0.0,0.0,0.0,0.0,0.0,0.0,0.0,1.3673,1.3237,1.2305,1.162,1.0789,0.9744,0.8765,0.7557,0.6338,0.6338,0.6338,0.6261,0.555,0.5002,0.453,0.2815,0.1723,0.102,0.0314,-0.0471,-0.1254,-0.2268,-0.3281,-0.4373,-0.5392,-0.6861,-0.8389,-0.9069,-1.0196,-1.1607,-1.323,-1.4378,-1.5376,-1.6349,-1.7472,-1.8721,-2.0204,-2.1037,-2.2089,-2.4469,-2.5231,-2.5728,-2.6982,-2.7458,-2.766,-2.786,-2.7894,-2.8271,-2.9496,-2.9673,-3.0038,-3.1055,-3.119,-3.119,-3.119,-3.119,-3.1329,-3.1565,-3.2144,-3.2484,-3.2484,-3.2745,-3.3045,-3.3361,-3.3105,-3.2903,-3.2903,-3.2903,-3.3057,-3.339,-3.339,-3.3923,-3.499,-3.5293,-3.6138,-3.7526,-3.7845,-3.8414,0.7139,0.8017,0.8627,0.7404,0.8877,1.0265,0.9148,1.1569,1.4088,1.4088,1.4977,1.5379,1.4334,1.4977,0.0,1.5696,0.0,0.0,0.0,0.0,0.0,0.0,0.0,0.0,0.0,0.0,0.0,0.0,0.0,0.0,0.0,0.0,0.0,0.0,1.3745,1.3237,1.2298,1.2305,1.1768,1.0783,0.9744,0.8237,0.6338,0.6338,0.6338,0.6338,0.6338,0.5709,0.4608,0.3513,0.1878,0.0,0.0,0.0,-0.0157,-0.1176,-0.227,-0.3279,-0.4295,-0.6685,-0.9296,-0.9296,-1.0645,-1.2445,-1.3382,-1.4378,-1.5376,-1.6349,-1.793,-1.9497,-2.0398,-2.059,-2.1267,-2.3728,-2.4851,-2.5618,-2.6336,-2.7086,-2.776,-2.8367,-2.8511,-2.8873,-3.0081,-3.0293,-3.0518,-3.1112,-3.119,-3.119,-3.119,-3.119,-3.123,-3.123,-3.1986,-3.2517,-3.2517,-3.3314,-3.3807,-3.3807,-3.3807,-3.3807,-3.3807,-3.3807,-3.3807,-3.3807,-3.3807,-3.4211,-3.5009,-3.5899,-3.6707,-3.7544,-3.86,-3.9099,0.7139,0.7404,0.7753,0.8281,0.8886,0.9492,1.0009,1.1558,1.3033,1.3913,1.4328,1.4734,1.5137,1.4901,0.0,0.0,0.0,0.0,0.0,0.0,0.0,0.0,0.0,0.0,0.0,0.0,0.0,0.0,0.0,0.0,0.0,0.0,0.0,0.0,1.5092,1.4307,1.331,1.2666,1.1768,1.0783,0.9744,0.8618,0.7326,0.6641,0.6338,0.6338,0.6338,0.6103,0.5709,0.3826,0.2345,0.1019,0.0314,0.0,-0.0157,-0.1176,-0.227,-0.3279,-0.4295,-0.623,-0.8389,-0.9069,-1.0196,-1.1533,-1.323,-1.4378,-1.5376,-1.6349,-1.7482,-1.8721,-2.0204,-2.098,-2.1993,-2.45,-2.5231,-2.5728,-2.6982,-2.7458,-2.776,-2.8367,-2.8511,-2.8873,-3.0081,-3.0293,-3.0518,-3.1112,-3.119,-3.1291,-3.1603,-3.1914,-3.2248,-3.2583,-3.3087,-3.3419,-3.3419,-3.3634,-3.3807,-3.3807,-3.3807,-3.3807,-3.3807,-3.3807,-3.3807,-3.3807,-3.4376,-3.5073,-3.5917,-3.6725,-3.7551,-3.834,-3.8663,-3.9045,0.7139,0.7489,0.7841,0.8101,0.854,0.9065,0.9749,1.1128,1.2498,1.3203,1.4139,1.4817,1.5061,1.4795,0.0,0.0,0.0,0.0,0.0,0.0,0.0,0.0,0.0,0.0,0.0,0.0,0.0,0.0,0.0,0.0,0.0,0.0,0.0,0.0,1.607,1.5084,1.3745,1.3171,1.2358,1.1391,1.0415,0.9593,0.8912,0.7096,0.6338,0.6338,0.6338,0.6025,0.555,0.3826,0.2501,0.1489,0.0392,0.0,-0.0079,-0.0706,-0.1879,-0.3202,-0.3826,-0.5992,-0.8466,-0.9069,-1.0271,-1.1687,-1.323,-1.4378,-1.5376,-1.6349,-1.7736,-1.9299,-2.0333,-2.1432,-2.282,-2.4924,-2.5618,-2.6162,-2.7357,-2.7625,-2.776,-2.8367,-2.8685,-2.918,-3.0123,-3.0518,-3.0797,-3.1151,-3.1351,-3.1603,-3.2022,-3.235,-3.2616,-3.2872,-3.3302,-3.355,-3.355,-3.3707,-3.3807,-3.3807,-3.3807,-3.3807,-3.3807,-3.3807,-3.3807,-3.3807,-3.4596,-3.5478,-3.6454,-3.7161,-3.804,-3.9064,-3.9064,-3.932,0.7139,0.7929,0.8452,0.7404,0.7929,0.8715,0.8715,1.0438,1.198,1.2151,0.0,1.5115,1.4119,1.4618,0.0,0.0,0.0,0.0,0.0,0.0,0.0,0.0,0.0,0.0,0.0,0.0,0.0,0.0,0.0,0.0,0.0,0.0,0.0,1.6775,1.6636,1.572,1.3818,1.3745,1.3237,0.0,1.1316,1.0783,1.0708,0.7851,0.649,0.6412,0.6338,0.5786,0.4766,0.3591,0.2579,0.1645,0.0471,0.0,0.0,0.0,-0.1331,-0.3124,-0.3124,-0.5745,-0.9145,-0.9296,-1.0576,-1.2372,-1.3382,-1.4378,-1.5376,-1.6349,-1.8449,-2.0526,-2.059,-2.1916,-2.3577,-2.5063,-2.5906,-2.6616,-2.7408,-2.761,-2.786,-2.8463,-2.9058,-2.9673,-3.0293,-3.0838,-3.119,-3.119,-3.1528,-3.1951,-3.2451,-3.255,-3.2583,-3.2616,-3.3014,-3.3243,-3.3243,-3.3578,-3.3815,-3.3842,-3.3842,-3.3842,-3.3895,-3.3868,-3.3842,-3.3842,-3.4733,-3.5713,-3.6752,-3.7378,-3.8348,-3.9599,-3.9599,-3.9775,0.7139,0.7316,0.7404,0.7139,0.7316,0.7489,0.7489,0.8623,0.9923,1.0783,1.2066,1.294,1.2492,1.3244,0.0,0.0,0.0,0.0,0.0,0.0,0.0,0.0,0.0,0.0,0.0,0.0,0.0,0.0,0.0,0.0,0.0,0.0,0.0,1.7725,1.7001,1.607,1.4879,1.4099,1.3237,0.0,1.1316,1.0783,1.0783,0.9291,0.8237,0.7403,0.6644,0.618,0.5786,0.3904,0.2968,0.2579,0.0706,0.0,0.0,0.0,-0.1331,-0.3124,-0.3124,-0.5292,-0.8237,-0.9069,-1.0121,-1.1459,-1.3157,-1.4378,-1.5376,-1.6349,-1.8065,-1.9759,-2.0398,-2.225,-2.416,-2.5148,-2.5508,-2.6,-2.7306,-2.7944,-2.8496,-2.9088,-2.9673,-3.0293,-3.0878,-3.1095,-3.119,-3.119,-3.1528,-3.1951,-3.2451,-3.2809,-3.3166,-3.3476,-3.3606,-3.368,-3.368,-3.3734,-3.3876,-3.4099,-3.4123,-3.4218,-3.4505,-3.4242,-3.4123,-3.4123,-3.5778,-3.6765,-3.7021,-3.8437,-3.9312,-3.9599,-3.9599,-3.9775,0.6248,0.6694,0.7139,0.7139,0.7139,0.7139,0.7139,0.7523,0.8072,0.8664,1.0619,1.2188,1.2649,0.0,0.0,0.0,0.0,0.0,0.0,0.0,0.0,0.0,0.0,0.0,0.0,0.0,0.0,0.0,0.0,0.0,0.0,1.8405,1.8462,1.8008,1.7501,1.6784,1.586,1.4879,1.3954,1.2952,1.1983,1.1539,1.1465,0.997,0.877,0.7783,0.7253,0.6718,0.618,0.453,0.3591,0.2968,0.141,0.0471,0.0,0.0,-0.1331,-0.3124,-0.3124,-0.514,-0.7936,-0.8998,-0.9965,-1.1081,-1.2572,-1.4019,-1.5305,-1.579,-1.7842,-2.0009,-2.0462,-2.2103,-2.391,-2.5106,-2.5946,-2.664,-2.7458,-2.8091,-2.8606,-2.8919,-2.9673,-3.0393,-3.0699,-3.1015,-3.1269,-3.1449,-3.1878,-3.2298,-3.2777,-3.3225,-3.3578,-3.378,-3.3807,-3.3807,-3.3807,-3.3928,-3.4043,-3.4176,-3.4357,-3.4529,-3.4694,-3.4655,-3.4574,-3.4445,-3.6196,-3.7175,-3.7356,-3.8855,-3.9757,-4.0024,-3.9903,-4.0003,0.509,0.5891,0.6874,0.7051,0.7122,0.7102,0.7102,0.6993,0.6888,0.714,0.947,1.187,0.0,0.0,0.0,0.0,0.0,0.0,0.0,0.0,0.0,0.0,0.0,0.0,0.0,0.0,0.0,0.0,0.0,0.0,1.8008,1.8654,1.8721,1.8008,1.8008,1.7569,1.6636,1.5658,1.4673,1.3673,1.2732,1.2305,1.2224,1.0576,0.9145,0.8084,0.7859,0.7249,0.6183,0.5157,0.4062,0.2968,0.1957,0.0941,0.0,0.0,-0.1331,-0.3124,-0.3124,-0.5063,-0.7706,-0.8917,-0.9895,-1.0789,-1.2144,-1.381,-1.5305,-1.557,-1.8073,-2.0655,-2.0951,-2.2274,-2.3872,-2.5287,-2.6602,-2.7625,-2.7625,-2.814,-2.8654,-2.8654,-2.9629,-3.046,-3.0526,-3.0965,-3.1449,-3.1861,-3.2298,-3.2745,-3.3154,-3.355,-3.3807,-3.3807,-3.3807,-3.3807,-3.3807,-3.3993,-3.4147,-3.42,-3.4508,-3.4714,-3.4773,-3.5035,-3.5051,-3.4832,-3.6423,-3.7395,-3.7672,-3.9086,-4.0024,-4.0489,-4.0267,-4.0304,0.3838,0.473,0.5894,0.6874,0.7048,0.6956,0.6956,0.6841,0.6975,0.0,0.9255,1.0165,0.0,0.0,0.0,0.0,0.0,0.0,0.0,0.0,0.0,0.0,0.0,0.0,0.0,0.0,0.0,0.0,0.0,0.0,1.8008,1.8144,1.8144,1.8008,1.8008,1.7569,1.6636,1.5658,1.4673,1.3673,1.2732,1.2305,1.2298,1.2003,1.087,0.9074,0.8161,0.7249,0.6183,0.5157,0.4062,0.2968,0.1957,0.0941,0.0,0.0,-0.1331,-0.3124,-0.3124,-0.4606,-0.6795,-0.8689,-0.9372,-0.9965,-1.2712,-1.4307,-1.55,-1.7123,-1.9017,-2.0887,-2.2335,-2.391,-2.5287,-2.6176,-2.6982,-2.7625,-2.7625,-2.8496,-2.9271,-2.9271,-3.0251,-3.1196,-3.1531,-3.1679,-3.1861,-3.235,-3.2809,-3.3154,-3.3184,-3.355,-3.3807,-3.3807,-3.3807,-3.3807,-3.3807,-3.3842,-3.3961,-3.4195,-3.4508,-3.4793,-3.5053,-3.5304,-3.5432,-3.5383,-3.703,-3.7909,-3.7959,-3.958,-4.0422,-4.0489,-4.0473,-4.0531,0.3392,0.4423,0.5349,0.5874,0.6389,0.68,0.68,0.6681,0.6732,0.7207,0.8087,0.0,0.0,0.0,0.0,0.0,0.0,0.0,0.0,0.0,0.0,0.0,0.0,0.0,0.0,0.0,0.0,0.0,0.0,1.8529,1.8008,1.8462,1.8529,1.8008,1.8008,1.7569,1.6636,1.5658,1.445,1.2879,1.2519,1.2305,1.2305,1.2305,1.1174,0.9301,0.8841,0.7783,0.6261,0.5786,0.4999,0.3982,0.3517,0.2348,0.0863,0.0863,-0.0782,-0.3124,-0.3124,-0.453,-0.6644,-0.8613,-0.9296,-0.9744,-1.2204,-1.4027,-1.5367,-1.6175,-1.8409,-2.0887,-2.1993,-2.3533,-2.5063,-2.6229,-2.6774,-2.71,-2.7524,-2.8543,-2.9585,-3.0293,-3.1027,-3.1603,-3.1789,-3.2022,-3.2264,-3.2484,-3.2921,-3.3214,-3.3214,-3.355,-3.3807,-3.3807,-3.3807,-3.3807,-3.3807,-3.4111,-3.4353,-3.4467,-3.4907,-3.5207,-3.532,-3.5432,-3.5526,-3.5565,-3.718,-3.8007,-3.8007,-3.9758,-4.062,-4.062,-4.0658,-4.0696,0.2818,0.3907,0.4716,0.5057,0.5904,0.6644,0.6644,0.0,0.642,0.0,0.0,0.0,0.0,0.0,0.0,0.0,0.0,0.0,0.0,0.0,0.0,0.0,0.0,0.0,0.0,0.0,0.0,0.0,0.0,1.8664,1.8008,1.8586,1.8654,1.8008,1.8008,1.7569,1.6636,1.5438,1.3954,1.2305,1.2305,1.2305,1.2305,1.2305,1.1323,0.9669,0.9448,0.8313,0.6641,0.6412,0.5631,0.4688,0.4688,0.3439,0.1568,0.1568,-0.0391,-0.3124,-0.3124,-0.453,-0.6567,-0.8313,-0.9074,-0.9744,-1.197,-1.386,-1.5376,-1.6062,-1.8362,-2.0824,-2.1796,-2.3297,-2.4908,-2.6176,-2.6669,-2.7019,-2.7879,-2.8764,-2.9761,-3.0975,-3.1449,-3.1733,-3.1933,-3.2264,-3.2583,-3.2809,-3.3136,-3.3361,-3.3361,-3.3606,-3.3807,-3.3807,-3.385,-3.3902,-3.3902,-3.4375,-3.4694,-3.4694,-3.5138,-3.5383,-3.5383,-3.546,-3.5526,-3.5584,-3.6949,-3.7796,-3.8084,-3.9869,-4.0723,-4.0725,-4.0783,-4.0824,0.1524,0.2604,0.369,0.4775,0.5849,0.6485,0.0,0.0,0.6271,0.6271,0.0,0.0,0.0,0.0,0.0,0.0,0.0,0.0,0.0,0.0,0.0,0.0,0.0,0.0,0.0,0.0,0.0,0.0,0.0,1.8076,1.8008,1.8008,1.8076,1.8008,1.8008,1.7569,1.6636,1.4736,1.331,1.2305,1.2305,1.2305,1.2305,1.2305,1.1694,1.0634,0.9744,0.8694,0.7629,0.6721,0.5631,0.4688,0.4688,0.3439,0.1568,0.1568,-0.0391,-0.3124,-0.3124,-0.453,-0.649,-0.7557,-0.8542,-0.9809,-1.2694,-1.4316,-1.572,-1.8335,-1.9814,-2.0951,-2.2518,-2.4129,-2.5563,-2.6336,-2.7034,-2.7894,-2.9042,-2.9361,-2.9761,-3.0975,-3.123,-3.1487,-3.2316,-3.2484,-3.2777,-3.3606,-3.3734,-3.3762,-3.3762,-3.3807,-3.3807,-3.3807,-3.4018,-3.4195,-3.4195,-3.4508,-3.4694,-3.4694,-3.4963,-3.5122,-3.5122,-3.5369,-3.5493,-3.5526,-3.6353,-3.7276,-3.8291,-3.9965,-4.0804,-4.0785,-4.0805,-4.0865,0.0506,0.1413,0.2299,0.2707,0.3622,0.4506,0.5218,0.5344,0.5473,0.618,0.0,0.0,0.0,0.0,0.0,0.0,0.0,0.0,0.0,0.0,0.0,0.0,0.0,0.0,0.0,0.0,0.0,0.0,0.0,0.0,1.8008,1.8008,1.8008,1.8008,1.8008,1.7295,1.572,1.3803,1.2666,1.2305,1.2305,1.2305,1.2305,1.2305,1.2077,1.1694,1.0714,0.9669,0.8618,0.6945,0.6483,0.6623,0.6015,0.4846,0.3517,0.2815,0.0546,-0.2257,-0.2887,-0.453,-0.649,-0.748,-0.8466,-0.9593,-1.1273,-1.3397,-1.5438,-1.6401,-1.8572,-2.0824,-2.187,-2.3742,-2.5728,-2.693,-2.7695,-2.8415,-2.9225,-2.9406,-2.9761,-3.0975,-3.1657,-3.2127,-3.2451,-3.2965,-3.3447,-3.3762,-3.3807,-3.385,-3.4043,-3.4068,-3.4141,-3.4353,-3.4464,-3.4529,-3.4529,-3.4793,-3.4963,-3.4963,-3.5207,-3.5354,-3.5354,-3.5446,-3.5526,-3.5565,-3.6444,-3.7329,-3.8234,-3.9429,-4.0328,-4.0926,-4.1025,-4.1078,0.0,0.0813,0.1605,0.1605,0.2375,0.3279,0.3982,0.4139,0.4453,0.555,0.0,0.0,0.0,0.0,0.0,0.0,0.0,0.0,0.0,0.0,0.0,0.0,0.0,0.0,0.0,0.0,0.0,0.0,0.0,0.0,1.7079,1.7657,1.8008,1.8008,1.7364,1.6437,1.5234,1.3302,1.2305,1.2305,1.2305,1.2305,1.2305,1.2305,1.2305,1.2224,1.1236,1.0415,0.9669,0.7629,0.7176,0.7706,0.6721,0.5628,0.4608,0.3515,0.1324,-0.1245,-0.2652,-0.4295,-0.6018,-0.7322,-0.8466,-0.9593,-1.1273,-1.3397,-1.5305,-1.5948,-1.8475,-2.1095,-2.1599,-2.3851,-2.6371,-2.763,-2.8367,-2.8966,-2.9585,-2.9717,-2.9978,-3.1015,-3.1787,-3.2316,-3.2484,-3.3105,-3.3634,-3.378,-3.3876,-3.4012,-3.4195,-3.4311,-3.4445,-3.4674,-3.4774,-3.4832,-3.4832,-3.5088,-3.5223,-3.5223,-3.5398,-3.5493,-3.5493,-3.5526,-3.5565,-3.5603,-3.6232,-3.7132,-3.8262,-3.9233,-4.0169,-4.1062,-4.1166,-4.1191,0.0,0.0,0.0,0.1568,0.0,0.0,0.3046,0.0,0.3357,0.0,0.0,0.0,0.0,0.0,0.0,0.0,0.0,0.0,0.0,0.0,0.0,0.0,0.0,0.0,0.0,0.0,0.0,0.0,0.0,1.614,1.5234,1.6941,1.794,1.794,1.6158,1.5234,1.5234,1.3302,1.2372,1.2372,1.2298,1.2305,1.2305,1.2305,1.2305,1.2224,1.1242,1.0858,1.0634,0.8609,0.7783,0.7706,0.6721,0.5631,0.4608,0.3513,0.1793,-0.0234,-0.234,-0.3826,-0.5074,-0.7161,-0.8466,-0.9809,-1.2694,-1.4316,-1.5587,-1.7442,-1.9738,-2.1711,-2.1773,-2.461,-2.7575,-2.8304,-2.895,-2.9585,-3.0166,-3.0335,-3.0518,-3.1095,-3.1582,-3.2004,-3.2451,-3.2903,-3.3361,-3.3762,-3.4043,-3.42,-3.4242,-3.4508,-3.4714,-3.4714,-3.4963,-3.5105,-3.5105,-3.5354,-3.5493,-3.5493,-3.5493,-3.5493,-3.5493,-3.5584,-3.5603,-3.5597,-3.5661,-3.6573,-3.8381,-3.9375,-4.0312,-4.1191,-4.1191,-4.1191,0.0,0.0,0.0,0.0,0.0,0.0,0.0,0.0,0.0,0.0,0.0,0.0,0.0,0.0,0.0,0.0,0.0,0.0,0.0,0.0,0.0,0.0,0.0,0.0,0.0,0.0,0.0,0.0,1.3727,1.4672,1.5155,1.5658,1.6298,1.6991,1.5799,1.5517,1.6219,1.4307,1.331,1.331,1.2592,1.2305,1.2305,1.2305,1.2305,1.2298,1.1996,1.1465,1.0634,0.8609,0.7783,0.7706,0.6721,0.6103,0.5628,0.3748,0.226,0.0778,-0.2104,-0.3826,-0.5074,-0.7161,-0.8466,-0.9739,-1.1924,-1.3829,-1.5579,-1.7415,-1.9346,-2.1409,-2.3755,-2.5912,-2.7575,-2.8304,-2.9271,-3.0123,-3.0251,-3.0874,-3.1439,-3.1585,-3.2264,-3.284,-3.2983,-3.3533,-3.3956,-3.4074,-3.4357,-3.4634,-3.4832,-3.4925,-3.5051,-3.5273,-3.5354,-3.5383,-3.5383,-3.5446,-3.5493,-3.5493,-3.5565,-3.5584,-3.5584,-3.5641,-3.5662,-3.5676,-3.5789,-3.6386,-3.7525,-3.8407,-3.9637,-4.1191,-4.1191,-4.1191,0.0,0.0,0.0,0.0,0.0,0.0,0.0,0.0941,0.0,0.0,0.0,0.0,0.0,0.0,0.0,0.0,0.0,0.0,0.0,0.0,0.0,0.0,0.0,0.0,0.0,0.0,0.0,1.1501,1.2503,1.3663,1.5084,1.5234,1.5438,1.6,1.5517,1.5226,1.5367,1.4243,1.3528,1.3091,1.2952,1.2666,1.2305,1.2305,1.2305,1.2305,1.2305,1.1471,1.0115,0.8917,0.8161,0.7706,0.6721,0.6338,0.6025,0.3904,0.2493,0.1166,-0.2026,-0.4055,-0.5684,-0.7766,-0.914,-1.0409,-1.2743,-1.4275,-1.5641,-1.7891,-2.0211,-2.2662,-2.5176,-2.6842,-2.8048,-2.8717,-2.9629,-3.0393,-3.0617,-3.1418,-3.2022,-3.1861,-3.2565,-3.3225,-3.3346,-3.3836,-3.4265,-3.4379,-3.4675,-3.4926,-3.5088,-3.5207,-3.5339,-3.5493,-3.5493,-3.5493,-3.5493,-3.5493,-3.5526,-3.5545,-3.5584,-3.5612,-3.5646,-3.574,-3.5764,-3.5693,-3.5835,-3.6476,-3.7654,-3.8205,-3.9412,-4.1191,-4.1133,-4.1152,0.0,0.0,0.0,0.0,0.0,0.0,0.0,0.0,0.0235,0.0,0.0,0.0,0.0,0.0,0.0,0.0,0.0,0.0,0.0,0.0,0.0,0.0,0.0,0.0,0.0,0.7553,0.8385,1.0335,1.1354,1.2743,1.4577,1.472,1.4799,1.5021,1.5021,1.4665,1.3882,1.3745,1.331,1.2445,1.3171,1.3091,1.2305,1.2305,1.2305,1.2305,1.2305,1.1174,0.9296,0.9296,0.8618,0.7557,0.6644,0.6257,0.5867,0.3826,0.2415,0.101,-0.2026,-0.4436,-0.6513,-0.8599,-0.9965,-1.1372,-1.4291,-1.5234,-1.5781,-1.8716,-2.1884,-2.4689,-2.624,-2.76,-2.8732,-2.9361,-2.9935,-3.0559,-3.1117,-3.1932,-3.2366,-3.2022,-3.2663,-3.3325,-3.357,-3.3944,-3.4292,-3.4653,-3.4926,-3.5105,-3.5138,-3.5354,-3.5493,-3.5493,-3.5493,-3.5493,-3.5526,-3.5526,-3.5545,-3.5622,-3.5641,-3.5666,-3.5725,-3.5844,-3.5859,-3.5717,-3.5825,-3.667,-3.8294,-3.8595,-3.9548,-4.1144,-4.1032,-4.1033,0.0,0.0,0.0,0.0,0.0,0.0,0.0,0.0,0.0079,0.0,0.0,0.0,0.0,0.0,0.0,0.0,0.0,0.0,0.0,0.0,0.0,0.0,0.0,0.0,0.0,0.6093,0.7096,0.8309,0.9286,1.0404,1.1588,1.1662,1.2398,1.3954,1.3954,1.4314,1.4879,1.4099,1.36,1.3455,1.2879,1.2445,1.2305,1.2305,1.2305,1.2305,1.2305,1.1174,0.9296,0.9296,0.8237,0.6567,0.6416,0.5786,0.4844,0.3591,0.1948,0.0,-0.234,-0.4436,-0.6513,-0.8599,-0.9965,-1.1372,-1.4291,-1.5234,-1.6027,-2.0114,-2.356,-2.6226,-2.7019,-2.8227,-2.9361,-2.9978,-3.0576,-3.1157,-3.1585,-3.2109,-3.2583,-3.2872,-3.3332,-3.3689,-3.3752,-3.4018,-3.4292,-3.4653,-3.4926,-3.519,-3.5383,-3.5479,-3.5493,-3.5493,-3.5493,-3.5526,-3.5584,-3.5584,-3.5622,-3.568,-3.5776,-3.5855,-3.5861,-3.5934,-3.594,-3.5858,-3.5785,-3.6587,-3.8311,-3.9032,-3.9906,-4.088,-4.0843,-4.0857,0.0,0.0,0.0,0.0,0.0,0.0,0.0,0.0,0.0,0.0,0.0,0.0,0.0,0.0,0.0,0.0,0.0,0.0,0.0,0.0,0.0,0.0,0.0,0.0,0.0,0.5157,0.6167,0.7706,0.8765,0.9744,1.0783,1.1218,1.1964,1.2952,1.3455,1.3738,1.373,1.3738,1.3455,1.3025,1.3025,1.2732,1.2305,1.2305,1.2305,1.2305,1.1768,1.072,0.9296,0.8765,0.7629,0.6338,0.6338,0.5628,0.4608,0.3515,0.148,-0.1011,-0.2574,-0.5129,-0.7901,-0.8983,-1.0634,-1.2625,-1.4577,-1.6752,-1.8968,-2.1625,-2.4363,-2.664,-2.7223,-2.8179,-2.918,-3.0064,-3.0518,-3.0965,-3.1642,-3.2161,-3.2695,-3.327,-3.3723,-3.4012,-3.4012,-3.4242,-3.4551,-3.4851,-3.5122,-3.5354,-3.5493,-3.5493,-3.5493,-3.5493,-3.5545,-3.5565,-3.5603,-3.562,-3.5681,-3.579,-3.5795,-3.5858,-3.5958,-3.5894,-3.5817,-3.5738,-3.5661,-3.6449,-3.8142,-3.8588,-3.9496,-4.0793,-4.0765,-4.0761,0.0,0.0,0.0,0.0,0.0,0.0,0.0,0.0,0.0,-0.0235,0.0,0.0,0.0,0.0,0.0,0.0,0.0,0.0,0.0,0.0,0.0,0.0,0.0,0.0,0.0,0.4373,0.5384,0.7084,0.8156,0.914,1.0185,1.1137,1.1736,1.1996,1.2945,1.3098,1.2305,1.3025,1.3025,1.2305,1.3098,1.3025,1.2305,1.2305,1.2305,1.2224,1.1236,1.0265,0.9221,0.8237,0.7176,0.6338,0.6338,0.555,0.4295,0.32,0.0856,-0.2023,-0.3042,-0.5979,-0.9296,-0.9296,-1.1501,-1.4426,-1.5421,-1.8649,-2.2153,-2.2962,-2.4799,-2.6692,-2.7575,-2.8258,-2.8996,-3.0302,-3.0608,-3.0858,-3.188,-3.2415,-3.2924,-3.3578,-3.4043,-3.4311,-3.4311,-3.4529,-3.4774,-3.507,-3.5289,-3.5446,-3.5493,-3.5526,-3.5526,-3.5526,-3.5584,-3.5641,-3.5661,-3.5707,-3.5779,-3.5888,-3.5794,-3.5806,-3.5951,-3.5768,-3.565,-3.5603,-3.5545,-3.6334,-3.8007,-3.8007,-3.8931,-4.0735,-4.0696,-4.0696,0.0,0.0,0.0,0.0,0.0,0.0,0.0,0.0,-0.0235,-0.1254,0.0,0.0,0.0,0.0,0.0,0.0,0.0,0.0,0.0,0.0,0.0,0.0,0.0,0.0,0.0,0.0,0.4763,0.4996,0.6015,0.7099,0.8084,0.9064,1.004,1.0932,1.1916,1.2445,1.2305,1.2445,1.2445,1.2305,1.2445,1.2372,1.2305,1.2305,1.2305,1.2224,1.1236,1.0265,0.9221,0.8237,0.7176,0.6338,0.6338,0.5079,0.3122,0.218,-0.0233,-0.3044,-0.4139,-0.6605,-0.9296,-0.9296,-1.2396,-1.6312,-1.73,-2.0039,-2.3034,-2.3761,-2.519,-2.6886,-2.8732,-2.921,-2.9685,-3.127,-3.1625,-3.1915,-3.284,-3.327,-3.3605,-3.4061,-3.4423,-3.4653,-3.4653,-3.4674,-3.4774,-3.507,-3.5122,-3.5223,-3.5479,-3.5565,-3.5603,-3.5603,-3.5661,-3.5738,-3.5853,-3.5874,-3.5885,-3.5902,-3.5902,-3.5823,-3.5746,-3.5656,-3.5605,-3.5603,-3.5545,-3.6334,-3.8007,-3.8007,-3.8873,-4.0543,-4.0543,-4.0543,0.0,0.0,0.0,0.0,0.0,0.0,-0.0784,0.0,-0.1254,0.0,0.0,0.0,0.0,0.0,0.0,0.0,0.0,0.0,0.0,0.0,0.0,0.0,0.0,0.0,0.0,0.0,0.0,0.0,0.0,0.5774,0.6835,0.7842,0.914,1.0783,1.1236,1.1694,1.2298,1.2305,1.2305,1.2305,1.2305,1.2305,1.2305,1.2305,1.1996,1.1391,1.0346,0.9367,0.8389,0.7326,0.6325,0.5392,0.5392,0.4453,0.2888,0.1245,-0.0934,-0.3279,-0.4295,-0.6685,-0.9734,-1.2528,-1.4803,-1.6853,-1.9435,-2.1834,-2.3787,-2.463,-2.5957,-2.7479,-2.9027,-2.9406,-2.9816,-3.1422,-3.1789,-3.2092,-3.3194,-3.3515,-3.382,-3.4597,-3.4851,-3.4981,-3.5138,-3.5053,-3.4963,-3.5088,-3.5261,-3.5426,-3.5551,-3.5622,-3.5663,-3.5669,-3.5739,-3.5834,-3.5892,-3.5892,-3.5908,-3.5894,-3.5834,-3.5718,-3.5603,-3.5603,-3.5584,-3.5545,-3.5526,-3.6334,-3.8007,-3.8007,-3.8854,-4.0489,-4.0489,-4.0425,0.0,0.0,0.0,0.0,0.0,0.0,0.0,0.0,0.0,0.0,0.0,0.0,0.0,0.0,0.0,0.0,0.0,0.0,0.0,0.0,0.0,0.0,0.0,0.0,0.0,0.0,0.0,0.0,0.0,0.0,0.5752,0.7076,0.8461,0.9959,1.0484,1.1162,1.1848,1.215,1.2305,1.2305,1.2305,1.2305,1.2298,1.1996,1.1465,1.0708,0.9442,0.8466,0.7706,0.6402,0.5395,0.4611,0.4064,0.3202,0.2027,0.0234,-0.1558,-0.3357,-0.4991,-0.752,-1.0828,-1.5373,-1.7098,-1.8068,-2.126,-2.3238,-2.4617,-2.5481,-2.6573,-2.7799,-2.9073,-2.9597,-3.0203,-3.174,-3.2176,-3.2588,-3.3666,-3.3963,-3.424,-3.4982,-3.5196,-3.5293,-3.5518,-3.5392,-3.5245,-3.5245,-3.546,-3.563,-3.5635,-3.5695,-3.5753,-3.5756,-3.5864,-3.5924,-3.5905,-3.5911,-3.5872,-3.5815,-3.5718,-3.5603,-3.5493,-3.5565,-3.5565,-3.5493,-3.5493,-3.6334,-3.8007,-3.8007,-3.8823,-4.0389,-4.0389,-4.0286,0.0,0.0,0.0,0.0,0.0,0.0,0.0,0.0,-0.3357,0.0,0.0,0.0,0.0,0.0,-0.6257,-0.6183,0.0,0.0,0.0,0.0,0.0,0.0,0.0,0.0,0.0,0.0,0.0,0.0,0.0,0.0,0.4683,0.67,0.7859,0.7859,0.9809,1.0789,1.0864,1.1842,1.2305,1.2305,1.2305,1.2305,1.2305,1.1316,1.0858,1.0708,0.8685,0.7859,0.7629,0.5616,0.4766,0.453,0.2504,0.1016,0.0,-0.1166,-0.218,-0.3511,-0.6612,-0.9643,-1.2715,-1.6578,-1.8937,-2.0529,-2.2384,-2.4084,-2.5508,-2.6283,-2.6909,-2.7709,-2.9057,-3.0136,-3.1175,-3.2523,-3.3211,-3.3762,-3.451,-3.487,-3.5072,-3.5189,-3.5407,-3.5608,-3.568,-3.5628,-3.557,-3.557,-3.5661,-3.57,-3.5694,-3.58,-3.5886,-3.59,-3.5962,-3.5971,-3.5901,-3.59,-3.5815,-3.5622,-3.5545,-3.5493,-3.5493,-3.5493,-3.5493,-3.5493,-3.5493,-3.6334,-3.8007,-3.8007,-3.8725,-4.012,-4.012,-4.0101,0.0,0.0,0.0,0.0,0.0,0.0,0.0,0.0,0.0,0.0,0.0,0.0,0.0,0.0,-0.6338,-0.6338,-0.6338,0.0,0.0,0.0,0.0,0.0,0.0,0.0,0.0,0.0,0.0,0.0,0.0234,0.0,0.0,0.4991,0.6388,0.7783,0.8461,0.914,0.982,1.0789,1.1316,1.1316,1.1996,1.1922,1.1316,1.0938,1.0034,0.8761,0.8084,0.7403,0.6718,0.5309,0.4295,0.3515,0.2113,0.0548,-0.1173,-0.2184,-0.3276,-0.4675,-0.8406,-1.081,-1.2984,-1.7922,-1.9843,-2.0841,-2.3703,-2.5576,-2.6761,-2.7034,-2.7871,-2.9007,-3.0389,-3.098,-3.1638,-3.325,-3.3753,-3.4069,-3.4849,-3.5115,-3.524,-3.548,-3.5596,-3.5678,-3.5697,-3.5755,-3.5759,-3.5689,-3.5763,-3.5817,-3.5844,-3.5906,-3.5958,-3.5899,-3.5921,-3.5888,-3.5776,-3.5732,-3.5661,-3.5545,-3.5526,-3.5493,-3.5493,-3.5493,-3.5493,-3.5493,-3.6026,-3.6873,-3.8007,-3.835,-3.9069,-4.0081,-3.9645,-3.9438,0.0,0.0,0.0,0.0,-0.0784,0.0,-0.289,0.0,0.0,0.0,0.0,0.0,0.0,0.0,0.0,-0.6338,-0.6338,-0.6567,0.0,-0.7936,0.0,0.0,0.0,0.0,0.0,0.0,-0.3671,-0.227,0.0,0.0,0.0,0.0,0.5306,0.6619,0.7395,0.8084,0.8765,0.9739,1.0265,1.0265,1.1316,1.1242,1.0265,1.0265,0.9362,0.7783,0.7007,0.6318,0.5628,0.4219,0.3205,0.2423,0.1017,-0.0626,-0.219,-0.289,-0.4213,-0.6297,-0.9952,-1.1885,-1.3467,-1.836,-2.0511,-2.1704,-2.4439,-2.6442,-2.7838,-2.8051,-2.9096,-3.0318,-3.119,-3.1876,-3.2619,-3.3855,-3.4295,-3.4597,-3.5221,-3.5358,-3.546,-3.5718,-3.5778,-3.5767,-3.576,-3.5847,-3.588,-3.5773,-3.5853,-3.592,-3.5899,-3.5937,-3.5926,-3.5844,-3.5836,-3.5772,-3.567,-3.5596,-3.5565,-3.5493,-3.5493,-3.5493,-3.5493,-3.5493,-3.5641,-3.593,-3.6339,-3.7137,-3.8287,-3.8499,-3.9024,-3.9712,-3.9289,-3.9063]}]]